GFSSGP_sfc_rhum_000.txt.gz
RH
42 17 16 13 19 15 14 17 18 22 23 19 20 20 29 36 44 61 33 34 42 54 61 68 89 88 87 86 86 88 88 87 84 83 83 83 82 81 81 80 80 77 74 73 72 74 78 79 82
17 14 11 15 19 16 15 16 19 22 19 15 16 17 26 38 33 34 34 35 44 49 56 70 92 88 88 88 86 87 86 86 86 84 84 83 82 81 80 79 81 77 74 74 74 72 80 83 83
29 12 13 17 15 14 18 18 24 19 15 16 18 23 27 32 29 30 31 34 45 58 70 87 95 90 89 90 89 89 93 92 90 88 84 82 80 78 78 80 80 76 74 74 75 75 76 79 83
14 10 10 13 12 13 14 20 19 19 20 17 17 30 25 24 28 27 29 31 35 62 77 94 96 95 95 94 94 94 94 94 92 89 84 82 81 79 80 80 76 73 72 73 75 78 83 86 88
14 13 14 14 15 14 16 16 16 19 18 17 16 31 36 32 25 24 26 27 32 55 70 83 96 95 93 92 92 94 94 92 90 88 86 83 81 79 79 78 76 74 73 72 72 73 76 79 82
13 12 16 15 16 15 15 14 15 19 15 14 17 26 36 29 27 26 24 25 28 42 63 68 92 94 94 92 93 94 92 92 91 88 84 84 82 80 78 77 76 76 75 75 73 72 73 75 76
17 16 15 17 17 17 17 14 12 11 13 14 14 28 31 29 30 25 23 23 31 33 38 51 66 85 90 92 93 93 92 92 90 89 87 86 86 82 77 75 74 72 72 72 71 72 71 70 74
10 11 14 17 16 16 11 10 9 10 15 10 11 24 31 32 29 26 24 24 27 35 34 44 56 55 67 81 91 92 92 90 89 87 86 88 86 83 78 79 74 72 71 71 70 70 70 69 70
6 11 15 12 12 10 8 7 6 6 12 11 15 16 24 28 28 28 27 25 28 31 43 46 43 51 60 64 76 88 89 89 88 85 85 84 74 74 74 76 79 75 75 74 73 71 69 74 77
7 10 8 6 6 6 6 6 6 7 11 11 14 19 29 31 32 31 29 28 31 40 39 48 54 56 50 33 70 68 60 70 72 66 71 68 65 62 57 70 82 83 84 83 81 80 80 80 68
7 9 6 5 6 4 5 5 4 7 9 9 13 14 29 34 34 30 25 25 29 34 37 48 62 59 53 52 54 53 56 60 67 65 65 64 64 70 74 85 87 92 90 83 85 79 82 65 68
7 6 5 5 5 4 4 5 5 6 8 8 10 13 26 28 29 28 27 24 29 33 35 49 56 62 57 53 51 55 54 58 60 64 62 71 72 73 69 67 61 62 62 61 65 66 65 65 57
7 6 6 5 5 6 7 7 8 7 7 8 9 15 23 26 28 27 26 25 28 32 36 45 55 61 63 58 63 63 61 64 62 60 61 67 67 72 68 65 62 61 58 59 62 60 58 59 51
6 6 6 7 8 8 8 8 10 8 6 7 10 14 19 24 26 27 28 29 32 30 37 50 51 58 52 53 58 64 63 61 64 56 56 55 65 68 67 65 63 61 59 60 58 58 62 62 55
7 9 9 10 10 10 9 11 10 9 8 8 8 11 14 19 20 24 27 30 29 26 29 60 85 67 52 52 56 57 50 44 51 51 53 49 54 62 65 67 66 64 63 60 62 64 61 64 56
9 10 13 10 10 11 11 14 9 9 9 10 9 10 11 15 17 20 25 25 24 30 35 81 56 55 50 57 50 47 52 54 51 55 54 53 52 54 63 66 68 67 70 66 66 65 63 62 62
12 13 13 14 9 11 11 14 10 9 11 11 11 11 10 12 17 19 22 26 27 25 30 45 55 52 46 51 47 49 52 53 50 49 52 54 51 58 64 64 69 70 68 68 67 61 66 66 65
15 11 9 9 12 9 10 10 11 11 11 12 11 11 12 12 14 19 20 24 27 29 30 35 52 45 42 46 50 45 46 48 47 50 50 51 50 54 60 61 68 70 66 66 69 74 66 67 64
10 10 10 12 12 13 12 12 12 12 12 15 14 15 15 23 28 29 34 37 34 37 32 40 53 52 42 46 48 50 54 48 50 45 48 46 50 52 59 60 60 61 62 66 65 64 65 61 68
12 12 12 12 12 12 13 12 13 14 15 15 16 19 24 26 25 28 33 39 46 43 46 50 46 42 40 40 48 50 50 48 47 48 51 50 54 50 43 57 56 59 63 65 69 73 66 60 59
14 16 22 20 15 13 14 15 16 15 16 16 18 19 21 24 27 29 35 42 47 46 46 37 38 41 49 46 39 44 46 48 48 48 49 48 48 46 49 54 58 62 63 64 66 67 67 68 61
20 20 20 18 18 19 13 20 19 17 19 20 21 23 22 22 22 25 34 41 46 48 48 41 40 38 41 45 48 48 48 52 53 58 54 55 51 52 46 50 59 63 66 66 69 52 72 72 69
24 22 20 20 20 20 16 20 23 17 21 23 25 24 26 28 29 31 34 37 40 48 52 47 41 38 40 44 48 52 60 62 61 63 59 55 57 53 50 52 59 66 64 67 71 69 74 77 82
21 23 22 22 24 49 20 22 37 23 23 25 25 26 27 27 30 30 33 36 40 48 50 47 41 36 41 45 51 56 56 57 56 56 58 54 54 54 55 53 62 66 68 66 68 77 77 86 86
19 25 48 60 62 56 25 23 33 24 23 24 26 27 30 33 34 32 31 34 39 44 45 44 42 38 40 44 44 47 51 55 56 57 58 57 56 59 58 60 63 64 64 65 65 73 78 80 86
25 26 59 62 64 43 20 21 30 24 23 23 24 25 27 31 35 34 34 38 38 42 44 45 43 41 40 47 46 50 54 53 53 58 56 60 61 61 59 63 63 63 67 70 71 77 79 80 85
29 37 23 45 65 63 24 28 26 23 24 23 24 24 26 29 30 31 32 37 39 41 44 48 46 43 43 48 55 56 56 58 58 56 58 59 60 48 64 68 64 65 68 72 76 80 80 83 85
25 21 41 48 71 58 29 26 42 30 27 24 23 24 25 28 29 34 33 39 39 41 48 54 49 45 46 47 54 49 52 53 54 55 56 60 62 58 61 67 69 69 69 68 70 79 77 78 84
28 30 29 25 45 60 58 32 23 26 24 26 27 25 29 31 32 33 34 36 37 41 43 50 50 47 48 47 51 56 55 54 55 56 61 62 63 61 60 61 63 62 64 82 84 84 78 72 72
24 28 26 68 56 70 76 49 22 26 30 29 29 30 32 35 36 36 39 41 41 45 45 46 52 53 52 52 52 50 52 50 53 59 57 60 60 62 58 60 60 64 67 79 85 83 79 74 74

GFSSGP_sfc_rhum_003.txt.gz
RH
51 25 27 22 26 27 25 22 27 31 29 23 33 42 52 50 57 80 59 67 72 87 82 82 91 90 90 91 91 90 88 87 86 86 87 88 85 83 81 82 84 78 74 74 72 76 80 81 82
32 20 23 21 28 29 32 27 30 27 22 27 30 35 45 57 45 54 69 64 69 76 84 86 92 91 91 92 91 90 88 88 88 88 87 85 82 80 79 82 84 77 75 74 73 73 75 78 82
33 21 19 24 26 26 40 28 27 23 22 21 35 35 39 48 41 50 61 67 79 92 93 89 92 92 92 93 94 95 94 93 91 90 83 80 80 79 81 81 80 73 72 72 74 77 81 86 89
19 19 15 19 19 19 31 28 24 26 23 27 31 51 37 34 40 46 67 82 94 98 97 98 97 96 94 94 95 95 94 93 92 88 80 82 79 80 79 78 74 71 70 70 71 73 77 84 88
30 21 21 23 22 36 24 21 23 28 27 30 42 51 47 37 38 42 73 77 96 98 98 97 98 97 96 95 95 95 94 94 93 91 88 82 79 79 79 78 76 74 73 72 72 72 74 77 82
21 17 23 24 21 22 21 19 22 28 24 26 45 48 48 36 36 39 50 73 83 96 98 95 96 96 96 96 96 95 94 94 93 92 88 84 82 82 79 78 76 74 73 72 72 72 72 73 76
22 24 22 27 24 25 18 14 13 22 19 30 37 50 47 39 34 34 44 58 76 84 95 96 95 93 94 95 95 95 95 94 92 91 90 89 87 85 82 78 74 72 72 71 71 71 73 72 74
17 20 19 22 24 22 14 12 10 16 18 14 30 46 58 42 34 32 38 45 50 62 73 86 91 90 96 96 94 94 93 92 89 88 89 88 86 81 81 80 78 75 72 70 70 72 72 72 78
12 15 18 15 21 15 12 10 8 12 14 19 27 35 42 37 32 32 34 41 45 49 59 70 74 79 88 94 89 92 90 90 88 87 87 90 92 84 80 83 80 78 79 79 79 79 78 79 78
12 17 13 9 10 11 10 9 8 12 15 20 41 36 35 35 36 36 35 38 41 49 57 59 62 77 75 55 88 94 85 92 92 89 90 91 93 91 75 81 82 81 82 84 84 84 82 81 86
12 12 8 7 7 8 8 8 8 15 18 16 43 42 39 40 40 37 33 36 41 43 54 64 61 59 61 67 85 88 88 94 90 83 78 78 73 82 82 93 93 96 91 96 91 91 90 86 87
11 8 7 8 7 6 7 7 8 10 12 12 22 38 39 41 41 36 34 33 40 45 56 63 67 61 63 59 64 67 72 77 84 80 75 82 85 76 74 73 76 85 92 96 94 89 79 83 73
9 9 8 7 7 11 8 8 10 9 10 11 14 34 40 38 38 36 32 31 39 45 58 62 67 70 64 62 73 69 73 70 71 76 72 73 74 73 73 73 68 67 67 67 69 69 65 67 61
10 8 8 8 11 13 13 13 13 13 10 9 18 33 34 34 34 36 35 34 36 40 54 60 73 72 63 62 67 70 69 68 70 70 66 64 67 75 74 71 70 67 68 68 64 62 64 66 66
10 12 11 12 14 14 14 17 15 13 9 9 12 18 32 33 35 36 36 34 36 43 69 80 88 85 67 58 58 68 49 51 58 60 56 58 60 62 66 72 75 74 74 71 68 68 73 74 71
13 17 20 15 15 15 14 20 15 13 12 13 13 13 13 29 33 34 35 33 34 66 71 80 72 82 76 61 53 57 59 56 61 62 67 61 62 66 69 67 68 76 77 74 71 72 73 73 76
21 22 22 17 14 18 18 21 15 14 14 15 16 14 14 18 31 35 34 32 30 40 71 76 78 80 75 54 53 58 51 53 56 61 60 52 59 60 67 69 73 75 77 78 77 75 82 81 76
24 21 23 23 17 14 15 20 19 16 16 18 21 31 32 42 43 39 41 39 37 52 62 71 79 82 55 51 46 62 54 56 56 53 49 46 58 58 61 61 63 66 67 71 72 73 70 74 68
17 18 22 22 16 21 18 22 21 22 23 27 38 41 40 40 40 46 45 47 49 54 52 60 67 54 51 63 64 63 54 53 53 50 52 50 48 46 52 58 66 68 66 68 68 76 72 68 73
17 22 29 21 16 18 21 23 23 23 27 30 36 37 39 41 43 44 48 49 62 48 46 55 57 57 54 62 62 57 54 52 51 50 49 53 56 54 48 61 66 64 66 64 65 66 76 73 73
26 30 30 28 21 20 23 28 26 25 25 25 28 31 35 40 46 46 48 54 51 50 47 44 46 46 54 53 46 47 50 53 56 61 60 59 64 57 56 60 66 66 71 69 70 74 68 77 76
35 29 28 25 29 33 21 41 31 29 32 31 32 36 39 41 45 46 51 56 57 59 50 46 43 40 41 49 53 56 64 70 71 70 66 67 60 57 56 57 62 71 73 73 77 64 78 84 88
35 33 32 32 34 36 28 40 32 28 36 36 37 36 42 45 47 51 53 53 56 54 54 50 44 42 43 44 48 63 62 66 67 68 65 60 60 58 57 60 65 72 77 73 78 83 85 90 91
25 34 35 36 40 64 36 44 57 50 37 39 38 39 40 43 45 48 51 49 52 53 50 44 40 41 44 45 46 56 54 57 67 64 64 62 62 64 57 57 65 69 72 75 79 86 85 88 83
34 43 76 71 80 72 41 42 66 40 33 37 43 46 46 47 46 46 49 53 51 53 50 48 48 42 45 51 50 50 58 59 64 62 62 58 65 62 61 69 73 74 71 76 79 85 88 90 92
38 42 73 74 87 62 27 47 49 33 32 33 33 39 42 43 44 45 44 48 47 45 44 50 44 43 42 49 57 59 60 65 63 52 51 57 65 66 69 71 71 71 73 78 81 87 86 84 92
40 49 34 63 78 75 48 42 35 31 32 30 30 30 42 46 44 40 40 39 44 45 54 56 52 50 48 54 58 60 59 59 60 51 54 68 70 56 73 76 76 76 77 78 77 85 88 89 92
33 29 58 67 70 68 49 55 65 48 45 31 33 39 40 42 45 47 45 52 54 55 61 60 58 56 55 56 64 63 59 60 67 67 71 71 70 69 71 71 72 72 72 77 86 92 90 92 92
41 45 43 42 66 80 86 56 45 44 41 42 43 44 48 49 50 53 53 53 57 56 58 62 59 57 59 52 55 56 56 61 67 66 66 66 68 69 68 66 68 70 73 78 89 92 92 90 88
35 42 46 80 73 88 89 64 46 43 38 39 40 44 48 47 50 53 54 53 51 53 52 52 57 62 58 56 60 60 62 55 65 63 60 63 62 63 66 64 59 60 61 66 79 91 90 85 77

GFSSGP_sfc_rhum_009.txt.gz
RH
55 26 27 21 25 30 34 24 49 51 58 53 60 57 76 82 72 84 85 84 90 92 89 87 92 91 90 90 90 89 88 84 84 84 84 81 78 78 79 78 75 70 67 67 69 72 74 76 79
27 24 23 26 30 30 36 40 52 51 50 44 46 53 69 86 88 94 92 89 88 90 89 90 94 94 92 91 90 89 85 85 86 84 83 79 78 77 76 76 77 70 67 66 66 69 73 78 82
31 25 19 24 33 33 38 44 48 44 41 38 46 44 59 86 85 88 88 87 87 91 90 94 96 95 94 94 92 91 92 92 89 86 81 78 77 74 72 74 73 68 66 65 65 67 71 76 80
24 23 18 22 25 23 32 33 39 40 38 41 45 54 45 68 79 86 84 86 94 98 96 96 96 96 95 95 95 95 95 92 89 87 80 77 75 73 72 73 70 67 65 65 64 65 69 73 75
30 24 22 24 22 25 25 30 36 41 46 45 43 52 63 86 80 86 95 88 95 98 97 96 97 97 95 93 93 95 94 92 91 88 83 78 76 74 72 72 70 69 67 66 66 67 68 70 71
24 23 25 24 33 29 23 28 44 47 46 48 54 55 65 85 90 92 89 83 79 90 92 95 97 96 96 95 95 95 94 94 93 90 85 79 78 78 73 71 70 69 67 67 68 70 70 71 70
26 24 26 26 40 26 26 21 47 46 47 49 45 62 68 91 96 91 84 80 78 81 85 92 94 98 98 96 95 93 92 92 92 91 88 85 85 82 78 74 70 68 66 68 69 72 73 71 73
24 22 27 33 38 42 19 16 30 44 51 41 42 61 85 67 92 95 87 86 88 86 87 94 100 99 98 98 95 94 92 91 92 90 87 85 81 81 81 80 78 75 71 71 73 75 76 75 78
22 26 25 19 26 30 25 15 17 29 46 42 46 49 60 72 91 98 96 93 95 97 99 99 99 98 98 97 93 91 88 88 88 88 86 88 90 87 85 85 82 79 78 76 78 80 82 82 81
25 29 21 14 19 20 12 23 25 38 50 57 50 45 59 70 84 91 94 98 98 97 97 98 97 97 97 81 95 95 91 94 94 92 92 94 93 94 84 86 87 85 85 84 84 86 86 89 95
21 17 12 10 12 11 11 13 18 45 57 55 51 51 58 69 69 70 73 76 78 80 83 86 88 94 95 85 98 99 98 97 96 92 94 95 93 96 96 97 96 96 90 96 94 94 96 94 95
21 12 11 10 11 9 10 10 20 24 41 48 40 42 47 51 54 56 62 65 72 78 74 77 86 88 89 92 95 94 95 96 97 95 94 96 96 92 90 92 87 83 83 83 93 96 93 90 85
14 12 11 13 10 10 8 10 12 16 31 45 38 37 41 42 44 45 48 51 60 68 70 77 86 84 80 87 90 92 93 92 91 94 90 92 89 81 82 81 80 80 81 81 78 77 74 74 75
12 13 11 13 14 12 10 15 16 17 54 48 40 38 37 36 36 40 44 47 58 60 67 76 80 81 74 79 86 88 90 93 93 92 90 81 83 83 83 79 76 78 84 84 81 80 80 81 80
11 12 13 13 17 16 16 21 17 19 50 49 44 42 45 41 41 37 39 42 54 62 66 81 84 86 80 78 80 85 90 82 88 82 70 71 76 78 75 73 70 73 79 72 73 75 77 72 70
17 19 18 15 19 20 14 16 19 21 53 55 54 57 52 51 54 51 50 41 55 76 80 91 83 90 85 77 81 84 80 76 78 77 76 71 68 68 70 65 66 72 77 76 73 76 68 70 76
24 23 26 21 18 21 19 24 20 18 41 39 55 63 57 63 66 74 78 69 79 85 88 89 95 93 91 83 86 89 80 74 67 66 72 66 64 64 67 69 76 79 76 77 75 70 74 75 74
23 26 44 22 20 24 25 31 40 49 51 66 74 65 66 70 76 72 85 89 90 93 90 92 91 87 86 77 71 82 86 82 77 68 64 62 66 68 69 74 76 79 74 73 74 73 74 75 80
24 27 25 28 21 34 44 51 61 61 64 69 65 64 64 66 64 64 66 70 65 80 81 84 82 80 77 77 83 87 74 70 72 69 74 68 62 59 67 72 73 75 72 75 76 80 79 73 81
28 30 35 28 26 36 48 52 53 53 63 67 63 62 61 60 57 56 58 64 72 75 79 73 73 71 76 84 83 81 79 70 71 64 60 59 64 63 58 68 72 76 75 75 79 83 83 85 90
41 39 36 30 34 38 41 49 45 42 50 56 63 64 59 60 65 62 58 59 58 60 62 55 58 58 65 72 72 66 67 71 70 71 67 62 63 62 65 69 77 80 81 84 87 90 90 92 91
43 38 34 30 40 48 39 68 51 53 60 63 65 66 67 61 58 56 57 57 54 58 54 50 49 50 51 54 56 57 63 67 78 77 65 62 65 64 67 72 78 82 85 88 90 88 96 96 98
41 38 36 37 40 42 43 56 56 50 64 66 68 62 59 58 60 60 58 57 58 57 55 54 51 49 50 52 57 68 71 75 80 69 62 61 67 72 70 72 70 75 83 87 87 90 90 92 94
33 41 48 56 52 65 49 56 60 58 55 59 58 59 57 64 69 64 60 58 60 63 60 56 53 55 56 58 63 71 69 74 65 62 65 65 69 74 73 67 75 82 83 85 87 88 86 89 92
40 51 71 68 77 73 52 61 63 46 46 51 56 59 62 66 66 61 56 60 65 70 68 61 62 66 66 67 68 68 64 60 59 58 61 60 70 78 76 79 82 83 82 82 84 85 88 91 92
47 51 73 65 81 60 49 67 56 48 50 48 52 56 60 68 62 64 66 70 69 64 58 55 57 58 59 60 62 64 58 64 62 61 65 75 82 82 82 82 76 74 76 81 86 86 88 88 90
48 51 47 72 81 75 67 55 44 48 54 47 51 55 65 64 65 65 68 69 68 68 68 64 56 55 57 60 66 67 67 69 74 76 83 83 84 75 82 74 74 79 76 76 83 85 84 90 91
36 39 58 71 65 72 66 66 66 51 52 50 56 66 68 66 65 67 67 64 60 61 65 67 67 62 63 66 72 69 75 75 78 83 80 79 75 68 69 78 84 68 65 69 80 85 86 90 94
46 49 56 61 75 76 86 73 52 52 52 62 70 68 66 69 68 66 64 58 56 57 55 62 65 61 59 62 68 76 77 76 78 80 78 75 73 72 73 73 66 62 61 66 70 74 78 89 88
44 53 52 70 68 90 88 65 51 56 59 60 63 66 70 68 66 60 58 55 54 51 47 48 52 49 53 58 64 67 70 71 79 79 77 75 71 71 75 77 76 67 61 63 67 70 79 74 72

GFSSGP_sfc_rhum_012.txt.gz
RH
68 48 37 28 20 28 34 28 48 56 66 61 58 66 81 90 74 77 87 91 91 96 92 88 91 91 91 89 88 89 86 84 84 83 80 78 77 77 76 74 76 69 66 66 67 69 72 76 80
28 28 26 31 32 32 37 29 58 55 56 54 58 62 75 83 87 94 93 89 90 92 93 90 92 92 91 90 90 89 85 84 84 83 79 78 75 74 72 74 77 68 64 63 63 64 68 72 74
32 25 24 31 39 26 35 51 55 52 45 42 49 56 68 86 87 90 88 90 90 95 96 95 95 93 92 92 92 90 90 90 88 84 78 76 72 70 71 73 73 65 62 59 58 61 64 69 71
25 25 21 27 30 24 35 41 48 53 50 46 47 61 59 78 83 90 88 91 96 99 98 97 96 95 94 93 93 94 94 93 91 86 78 75 72 69 70 70 67 64 60 60 61 63 67 70 71
29 25 26 35 28 24 22 34 40 45 56 45 46 62 69 92 90 90 92 92 90 99 98 97 97 96 95 94 94 95 93 91 91 87 83 77 74 71 70 70 68 66 65 65 66 68 70 71 72
26 26 27 33 33 34 32 39 45 49 48 50 56 65 79 91 90 93 89 93 88 90 98 96 95 95 95 94 96 95 93 92 92 89 84 78 77 77 70 70 69 67 68 69 70 71 72 73 74
27 26 28 39 42 37 26 43 47 47 52 52 52 76 90 96 90 88 84 85 90 85 90 96 98 96 96 96 96 95 94 93 92 89 87 85 84 80 76 74 72 69 70 72 73 75 77 75 77
27 25 34 49 41 44 34 23 42 46 54 43 50 90 94 91 91 82 80 80 83 84 81 83 86 94 99 98 95 92 91 92 90 89 87 84 82 79 78 77 75 75 73 73 75 77 79 80 82
26 28 27 38 40 38 28 22 28 40 48 47 47 67 79 91 86 88 92 91 92 90 91 94 92 98 99 97 95 92 89 89 88 87 86 88 89 86 85 85 83 82 81 81 81 82 84 86 86
28 31 25 20 31 39 34 22 31 48 53 58 63 82 96 92 89 87 87 85 88 89 93 94 99 99 98 88 96 96 92 95 94 94 93 94 92 92 86 87 88 87 86 88 87 88 89 90 95
29 26 17 14 24 27 17 29 26 49 61 58 71 92 95 98 98 97 96 95 96 96 99 98 98 97 97 94 98 98 98 98 96 94 94 93 93 96 96 98 96 95 86 92 88 92 94 92 94
24 16 13 10 17 15 18 15 39 36 40 48 64 77 83 91 89 87 90 92 90 93 94 94 95 96 96 96 98 97 98 97 98 96 94 96 97 94 93 92 83 81 82 80 85 89 85 82 77
20 14 12 12 11 12 10 14 31 22 43 46 61 68 72 74 75 68 66 68 78 84 83 87 91 92 90 93 96 96 97 97 95 96 94 95 94 86 87 83 82 81 84 84 81 80 78 78 76
17 12 12 14 11 11 11 15 16 26 59 49 56 64 65 64 60 64 65 69 73 76 81 85 90 91 83 89 92 96 96 95 95 96 93 86 88 85 83 78 76 77 84 80 81 81 80 78 74
13 11 13 13 18 16 16 19 20 42 54 50 48 54 53 47 51 51 50 58 66 73 80 89 92 88 92 90 92 94 96 86 93 88 83 84 80 82 77 73 71 76 82 78 75 75 72 70 67
16 20 19 16 20 21 13 16 21 64 58 62 60 58 59 63 60 58 59 51 65 87 95 94 89 95 95 94 92 93 89 93 82 84 90 81 74 71 72 74 80 80 78 75 76 80 69 73 76
23 24 24 22 21 21 18 30 42 38 61 62 65 61 65 71 78 81 81 64 82 93 94 97 96 95 96 91 93 90 86 89 74 81 78 70 70 71 73 73 76 75 75 77 74 76 75 77 77
21 24 46 24 33 36 34 72 69 68 60 75 79 78 82 79 78 83 94 96 97 97 95 95 93 92 90 88 82 90 91 90 88 84 75 70 63 64 66 67 74 73 73 77 77 74 75 77 83
22 24 26 30 29 53 67 72 71 79 79 79 81 81 78 77 73 81 83 88 83 90 92 89 89 87 84 84 89 85 85 88 83 73 67 62 58 60 66 72 74 76 76 79 81 82 82 78 91
30 32 35 36 38 54 62 60 58 59 72 79 78 78 76 72 68 65 72 80 80 87 92 88 83 75 77 82 87 88 84 81 75 67 65 66 66 64 64 75 80 79 78 83 88 88 85 85 94
42 35 38 37 47 51 54 59 58 55 66 67 69 71 68 70 70 63 62 66 79 81 72 64 66 65 70 78 74 70 72 77 73 74 64 67 66 68 71 77 79 80 81 88 92 91 90 92 92
43 40 36 43 48 56 49 80 63 67 73 72 74 73 76 66 60 55 54 53 55 60 58 56 56 55 56 58 59 59 66 73 84 72 65 68 70 71 70 72 77 80 85 86 91 86 91 92 94
43 39 37 39 43 44 51 68 62 65 75 73 75 73 75 69 61 52 56 54 61 59 60 61 57 57 58 60 69 77 80 86 74 68 64 63 70 67 68 71 77 82 86 86 87 88 84 88 90
38 44 50 57 55 62 51 58 66 72 66 70 68 68 70 72 71 63 63 59 58 63 64 64 67 68 69 69 72 73 77 66 64 68 71 71 72 76 75 74 83 86 86 86 87 86 85 90 90
46 50 71 67 77 74 57 61 57 52 56 60 63 67 70 80 76 73 67 62 70 74 71 66 63 63 63 61 60 62 61 58 64 67 75 73 79 83 86 83 85 86 81 76 77 80 82 85 84
51 51 71 64 84 68 55 68 58 50 48 53 58 64 69 72 72 68 72 72 65 61 60 61 59 61 62 66 66 66 65 72 74 79 80 85 88 88 86 85 78 78 78 78 82 81 84 86 83
51 53 51 74 81 75 71 58 54 63 61 59 59 62 73 77 77 75 73 72 71 71 70 64 62 64 67 70 75 78 80 79 83 83 87 90 87 82 87 82 83 85 81 82 83 88 80 84 87
44 43 56 72 63 72 71 72 71 67 64 60 63 69 74 74 75 74 68 66 67 69 73 73 66 58 55 57 70 68 68 70 76 84 85 87 86 81 76 80 83 82 80 76 78 81 81 86 90
48 53 62 62 75 74 86 73 59 59 57 60 67 72 74 73 76 68 64 62 58 52 54 50 48 43 49 54 61 62 66 71 77 83 87 85 79 77 79 79 80 73 73 76 76 76 75 81 90
48 54 51 66 58 89 88 64 53 60 55 64 73 71 76 74 70 65 61 56 44 43 41 47 45 42 48 52 58 62 68 72 77 84 85 82 79 78 76 80 81 81 81 74 72 71 73 81 73

GFSSGP_sfc_rhum_015.txt.gz
RH
51 30 24 20 16 19 21 20 35 52 63 57 56 58 66 65 63 74 78 77 76 77 73 69 88 90 87 86 88 89 86 82 82 80 78 77 76 75 73 75 74 69 63 62 62 63 63 65 67
19 22 20 22 17 18 22 29 51 48 54 53 50 48 60 74 72 94 84 84 74 75 71 66 89 90 88 88 90 88 84 83 82 79 77 75 73 72 73 72 74 68 59 57 56 57 60 64 67
20 19 18 20 24 18 27 45 47 44 43 43 68 63 66 68 83 90 85 82 81 78 72 70 90 92 90 91 91 89 89 89 87 82 76 73 70 69 71 72 72 62 57 56 56 58 62 66 70
18 17 16 19 20 20 28 44 46 45 44 39 48 62 70 74 86 79 83 78 77 75 73 87 94 93 92 92 92 93 93 93 90 85 77 72 68 67 69 71 68 61 62 62 62 64 67 70 75
19 17 18 19 18 18 18 38 47 42 43 36 38 55 66 87 81 81 84 77 79 76 73 76 96 94 93 93 93 94 94 93 90 86 82 75 70 68 68 70 68 66 66 65 66 69 70 72 77
20 18 19 18 30 26 31 36 37 43 39 44 51 57 81 87 85 85 78 77 76 80 81 77 93 96 95 95 95 94 92 92 90 88 84 77 75 74 71 70 69 69 70 71 71 72 73 74 76
20 18 19 26 34 31 29 38 41 39 42 47 50 78 91 91 88 80 77 75 75 77 80 81 77 85 97 96 96 94 92 91 90 88 86 84 81 77 76 75 72 69 74 75 75 76 78 76 79
19 18 27 36 34 47 31 33 58 46 47 41 50 75 93 85 84 80 79 78 76 79 80 79 79 76 80 80 96 94 92 91 89 87 85 83 79 77 76 75 76 77 77 76 77 81 82 83 85
18 20 30 34 34 47 38 28 28 38 43 44 44 65 71 83 80 82 84 84 88 85 83 80 81 83 86 79 80 87 89 89 88 82 83 79 60 60 61 77 81 82 82 84 84 84 86 87 81
19 22 20 22 31 36 32 26 32 44 45 51 81 85 79 85 83 87 88 86 84 84 84 85 87 88 86 72 75 74 67 64 66 66 70 64 71 67 66 76 85 84 86 83 82 83 84 72 50
22 20 18 14 27 25 25 25 30 43 46 43 69 89 83 86 81 78 76 73 71 74 77 82 86 88 83 72 71 66 66 67 68 74 74 73 72 74 67 65 57 61 66 51 55 54 50 58 53
18 17 11 9 25 26 26 20 37 37 34 37 64 81 83 83 81 77 74 70 74 81 80 85 85 84 82 70 70 69 65 68 69 71 77 76 70 70 66 52 55 59 56 57 54 50 59 56 53
19 16 12 10 17 17 15 21 32 28 42 48 68 77 82 84 82 74 67 68 72 72 72 77 79 78 77 77 72 72 74 73 76 74 77 71 66 65 60 61 55 54 51 50 50 50 49 49 46
17 10 10 12 11 10 14 11 18 26 44 59 70 73 73 70 67 60 56 56 61 60 65 73 75 73 70 72 77 84 88 88 92 93 89 83 68 69 61 55 49 49 50 50 48 51 45 44 42
11 11 11 13 10 11 12 13 18 40 43 58 67 64 62 56 52 52 48 52 54 56 62 77 82 78 79 80 87 90 86 86 90 88 84 80 72 62 56 52 52 54 52 52 49 48 45 43 38
13 17 14 12 14 15 10 14 33 39 45 50 53 51 51 48 46 46 49 41 50 60 69 80 80 83 86 90 94 87 86 87 78 83 77 66 60 60 61 54 56 54 50 52 48 44 40 42 41
20 17 18 15 22 16 16 25 45 45 50 52 48 50 47 53 55 67 74 55 64 68 78 83 85 83 88 95 88 86 81 82 63 66 60 60 57 60 56 52 55 56 49 50 45 45 47 44 40
18 18 17 18 22 32 38 53 55 56 52 57 54 57 58 58 64 76 79 81 82 79 80 83 83 82 84 85 74 74 75 67 58 54 48 48 46 52 50 50 55 49 47 49 46 48 44 46 47
17 18 18 24 35 49 59 57 57 59 57 59 59 59 60 62 71 74 80 82 80 79 78 77 83 74 67 56 68 67 68 60 51 44 49 49 47 48 52 48 50 50 49 53 52 46 47 39 50
25 27 33 36 40 46 49 56 56 56 62 60 60 61 60 65 68 72 73 73 74 74 72 74 72 59 51 57 59 58 57 54 46 46 50 48 51 49 48 54 50 52 48 56 57 53 44 47 59
33 30 32 36 44 42 43 48 58 57 59 61 62 60 61 65 70 69 70 74 80 80 70 55 54 54 54 57 52 52 56 55 50 44 43 47 49 46 50 54 52 53 54 55 62 62 61 51 53
36 30 38 44 37 38 37 30 54 61 64 62 61 60 60 59 57 55 56 59 58 57 56 50 49 46 47 50 48 53 48 49 53 46 43 42 50 48 45 51 56 61 60 64 61 57 58 52 47
36 34 34 31 33 34 39 35 46 59 64 61 58 58 56 52 48 44 44 45 44 49 50 52 52 50 52 54 56 53 57 52 46 47 52 53 53 53 51 54 60 63 59 64 63 57 52 46 43
40 38 41 44 40 43 38 36 42 60 56 56 55 56 54 49 48 46 46 46 49 51 56 56 48 48 50 50 53 56 54 50 46 50 52 52 53 53 58 57 62 63 62 59 57 59 53 51 48
35 38 50 55 61 51 46 46 37 40 46 48 53 51 52 51 52 52 49 49 54 56 54 49 45 47 48 50 50 52 52 53 55 57 56 58 54 55 58 65 67 60 58 58 60 53 54 53 45
40 38 59 60 63 49 46 53 36 40 38 44 44 47 53 54 56 53 54 51 50 52 49 48 46 49 51 54 53 56 57 52 46 47 48 49 52 56 64 66 62 60 58 54 56 54 55 56 55
40 39 43 61 64 57 45 43 38 48 43 48 51 52 53 54 56 54 53 53 51 49 53 53 46 42 43 46 44 46 44 44 45 50 52 50 59 58 69 67 63 68 62 60 58 57 59 57 57
34 38 46 51 59 54 42 51 40 54 48 50 53 53 54 56 58 56 53 56 55 53 57 51 37 34 36 37 41 40 43 45 46 47 46 50 56 63 68 66 63 63 60 55 58 55 55 60 55
40 44 53 48 56 47 52 36 45 45 45 49 49 51 56 59 59 56 50 51 50 54 43 37 41 31 34 35 41 44 44 46 47 46 49 51 59 60 61 62 63 61 56 61 65 58 55 55 53
37 42 43 53 50 67 67 41 38 47 45 49 49 56 57 58 57 49 47 45 44 38 35 44 33 32 34 37 41 42 44 45 49 50 52 57 58 60 62 62 62 63 67 68 61 51 47 52 53

GFSSGP_sfc_rhum_018.txt.gz
RH
45 16 9 12 14 13 15 15 24 42 47 41 42 44 51 47 57 67 60 52 50 58 52 58 90 88 86 86 88 88 85 81 79 76 76 74 73 73 72 74 73 65 60 58 57 56 56 58 63
9 9 12 11 15 16 14 14 26 39 37 36 35 41 46 52 57 72 66 60 57 61 51 50 91 88 87 89 89 88 83 81 78 75 74 72 72 71 71 70 71 64 56 53 53 53 58 64 68
10 13 11 10 11 13 15 25 32 32 32 29 42 47 58 59 51 62 66 63 61 65 50 54 90 90 90 90 88 88 89 87 84 79 72 69 70 69 68 69 69 61 59 58 57 57 63 67 70
8 11 10 12 13 12 20 29 29 30 30 31 35 66 54 59 46 64 66 64 76 76 59 83 91 89 89 88 88 92 92 90 86 82 74 67 65 65 66 67 67 62 62 61 61 64 68 71 74
9 9 11 12 12 11 18 28 31 32 26 27 28 45 50 54 56 60 75 78 80 85 64 66 93 87 87 87 93 93 92 90 87 84 79 70 64 64 66 68 68 67 65 65 66 68 70 73 75
10 10 12 13 17 19 13 25 30 26 24 27 28 37 56 62 61 68 77 87 66 60 60 62 83 86 91 94 94 93 92 90 89 85 79 71 69 70 68 69 69 69 68 69 69 71 72 74 76
12 9 11 16 24 28 24 26 29 29 23 32 31 44 74 82 72 71 66 59 62 56 62 63 60 73 97 96 94 92 91 89 88 86 84 80 78 79 74 72 69 68 69 71 72 75 77 78 80
11 10 14 18 26 35 31 34 27 26 31 34 32 41 78 71 66 67 65 62 62 66 62 67 60 59 65 67 94 92 90 88 86 85 83 81 77 76 74 73 75 74 74 75 76 78 80 81 82
12 10 14 23 25 33 21 23 29 24 33 39 38 42 50 62 63 67 72 73 71 68 65 59 51 56 56 52 70 86 88 87 85 78 80 74 40 44 47 77 80 80 80 81 80 80 82 81 78
13 12 13 18 21 25 25 21 20 32 38 40 49 50 54 63 66 68 69 70 71 76 69 70 70 76 63 48 55 50 44 40 44 45 51 42 52 49 50 64 78 77 76 70 72 75 75 66 27
13 12 11 20 20 16 18 20 17 25 34 32 48 63 69 67 66 68 65 68 63 65 69 71 80 83 56 51 44 37 39 45 50 57 54 54 53 52 43 38 36 42 55 34 39 36 30 40 36
15 12 10 16 21 16 16 16 21 23 24 27 40 54 63 67 67 58 58 46 45 52 54 72 77 71 60 43 39 42 42 48 49 52 62 60 50 52 47 36 40 44 38 40 36 32 41 40 36
15 12 10 9 17 17 17 17 21 23 24 32 44 49 54 56 48 42 38 37 39 42 48 58 58 60 57 54 49 52 54 50 56 57 63 57 60 58 46 46 40 39 35 35 35 34 33 33 32
13 10 8 8 15 17 16 17 20 21 31 39 47 45 48 49 44 38 38 38 40 39 48 55 51 53 50 54 60 63 67 74 76 79 75 79 82 72 49 45 39 36 35 34 34 35 31 30 31
10 10 9 9 13 14 13 14 17 30 34 38 38 39 42 41 39 36 32 32 33 36 44 53 57 53 60 67 80 77 82 82 83 85 84 89 84 61 52 52 51 43 40 39 35 34 32 31 28
10 10 11 11 11 10 12 15 21 33 34 35 37 42 44 40 37 34 35 30 30 35 46 58 63 63 77 88 90 96 84 79 73 78 78 68 58 54 56 42 42 44 39 35 35 34 31 31 31
12 9 10 13 14 11 9 12 25 34 32 35 37 37 38 39 39 41 41 32 33 38 49 63 68 70 73 83 94 78 77 80 70 60 49 54 50 48 42 40 43 43 36 38 35 34 37 33 33
12 13 9 11 18 9 12 22 24 35 32 34 32 34 36 37 39 45 47 42 40 46 54 66 70 73 79 79 68 56 54 44 41 38 37 38 39 43 39 40 45 38 35 35 37 42 37 38 38
10 11 12 14 25 22 22 22 27 32 35 37 34 36 37 37 42 49 54 54 53 57 60 65 70 72 68 52 48 46 47 42 39 35 40 40 38 39 40 35 37 39 39 45 45 42 42 38 38
13 13 18 23 27 24 24 28 30 31 35 36 36 36 37 41 45 54 57 56 57 59 60 62 59 58 46 40 40 40 41 38 36 37 41 38 38 35 34 40 38 42 40 44 48 49 43 36 40
19 18 23 20 26 25 23 26 32 38 37 39 40 36 38 41 48 54 57 57 60 62 61 53 49 43 42 44 40 41 42 39 36 34 33 34 39 36 38 41 42 43 42 39 48 48 50 44 39
22 21 22 27 22 20 24 17 31 36 39 40 43 42 43 46 49 50 51 52 53 52 44 41 41 42 40 36 37 42 36 37 40 36 35 34 42 42 38 40 44 46 44 47 47 41 46 43 40
25 24 23 22 20 23 24 20 29 37 39 41 44 46 48 48 44 41 39 40 38 45 44 42 38 36 38 40 42 39 41 38 36 37 42 42 40 41 40 41 44 48 46 48 52 48 45 42 44
25 25 25 24 23 32 21 23 17 32 31 37 42 44 46 42 37 33 33 34 36 39 42 42 38 38 38 39 41 43 43 38 35 38 34 28 27 26 30 35 48 49 49 53 47 46 51 50 42
25 24 31 37 39 36 31 28 18 21 30 31 40 39 41 38 34 33 34 33 37 42 43 40 37 38 38 38 35 37 38 37 30 28 25 28 24 25 28 34 42 47 51 49 49 54 53 42 39
25 24 32 35 39 26 33 27 18 26 25 30 33 32 36 36 35 34 34 36 39 42 40 39 37 35 33 33 33 30 27 26 22 26 28 28 29 30 36 41 44 49 51 52 54 51 44 43 42
29 29 29 42 50 45 21 24 23 30 29 31 33 32 34 34 35 36 38 39 41 41 43 40 32 28 29 33 34 30 31 30 31 34 33 30 33 29 37 48 51 53 57 56 60 47 46 44 44
26 26 35 35 49 39 21 24 17 34 33 32 34 35 34 31 35 38 39 42 39 39 42 37 28 28 32 37 32 26 29 30 32 33 34 34 35 35 38 44 48 54 55 57 54 44 52 43 40
30 29 30 28 39 30 27 15 25 28 30 34 34 33 33 34 37 40 40 40 39 39 34 29 28 33 40 29 29 32 30 32 32 33 34 34 38 37 38 40 45 48 56 54 52 55 59 45 38
27 27 24 32 35 47 54 22 24 31 30 29 31 31 32 36 38 40 39 40 40 37 30 30 31 37 27 26 28 30 29 28 32 34 34 36 39 40 41 44 44 44 46 48 57 58 44 37 38

GFSSGP_sfc_rhum_021.txt.gz
RH
43 21 9 7 14 13 14 11 10 32 41 41 38 33 47 44 55 64 44 48 48 48 44 57 90 88 87 86 87 87 83 78 76 77 74 73 72 71 71 72 70 62 57 55 53 54 59 63 66
14 7 5 9 14 13 11 8 17 35 35 31 33 38 36 44 46 57 57 52 50 49 52 54 91 88 89 89 89 86 80 77 75 74 71 71 70 69 68 67 69 61 56 54 53 58 60 63 66
11 6 8 9 12 13 12 14 30 36 28 29 35 31 37 40 43 55 49 56 57 56 52 64 90 90 89 89 88 89 87 84 81 76 69 69 66 65 64 65 68 62 60 57 58 61 64 67 67
7 6 9 13 13 10 11 23 30 25 27 25 26 33 40 41 45 46 54 56 62 71 73 89 92 90 88 86 90 91 89 87 84 79 70 65 63 63 65 67 66 63 61 60 61 64 68 72 74
6 7 10 12 12 10 17 30 31 39 26 31 24 32 32 41 37 48 51 66 82 89 86 73 91 88 85 87 90 91 89 88 85 80 74 67 62 63 68 69 68 67 65 64 66 68 70 73 74
7 7 11 12 11 10 9 27 23 26 23 23 28 31 35 35 40 46 60 80 82 89 85 76 84 85 86 90 94 93 91 89 87 82 76 66 67 67 68 69 68 68 68 68 68 71 73 74 76
9 8 10 10 17 18 12 31 50 23 22 23 20 30 42 39 41 55 57 71 73 92 82 69 63 75 96 94 93 92 90 89 87 84 81 75 75 74 70 69 68 68 69 70 72 74 76 76 77
7 8 9 10 24 27 18 25 24 30 66 26 25 42 37 40 56 73 91 84 90 95 77 66 65 59 69 74 93 91 88 87 86 80 80 78 76 72 70 73 74 74 74 76 77 77 78 77 77
8 11 9 13 30 33 20 22 21 19 27 27 30 32 39 47 53 63 73 72 76 74 66 60 49 54 55 60 77 85 87 85 83 75 76 71 39 45 49 74 75 75 76 74 71 74 76 76 75
8 9 9 16 27 46 17 18 18 23 23 26 34 35 47 52 52 60 62 69 63 64 61 58 61 54 50 38 52 44 41 37 43 42 45 39 46 45 45 61 71 70 65 65 64 66 71 72 28
9 11 10 12 23 19 24 21 16 26 30 25 33 38 44 52 52 55 54 53 54 57 65 70 77 67 46 43 36 32 35 42 46 51 47 49 45 45 42 37 36 40 54 35 40 38 31 38 35
11 9 9 12 16 14 15 15 18 58 74 21 27 39 47 43 50 46 48 39 39 48 58 71 73 59 46 36 32 35 36 42 41 45 53 53 51 48 45 37 37 40 34 40 36 33 39 36 34
12 10 10 14 14 11 13 15 29 33 21 21 31 41 42 41 37 33 30 29 32 37 47 58 55 51 49 44 45 48 48 57 67 56 64 59 55 63 68 64 48 40 37 36 37 35 34 36 32
11 10 9 11 13 19 14 14 24 19 18 27 35 35 30 33 28 28 27 28 30 33 42 45 44 47 42 49 56 60 66 67 72 76 85 80 70 72 67 66 53 45 41 42 37 38 35 33 31
10 11 9 10 14 15 12 12 16 20 20 26 27 26 27 27 25 26 26 29 28 30 38 44 48 46 51 61 61 67 70 69 73 80 80 81 82 76 64 63 56 45 43 42 36 36 32 29 27
11 12 13 10 13 14 14 14 16 20 20 23 23 25 28 29 26 23 24 24 25 29 41 46 44 52 60 66 76 89 88 72 74 75 79 73 69 57 60 52 47 48 43 36 37 34 34 34 32
13 13 13 12 10 13 14 14 14 19 18 22 24 28 29 29 26 28 26 23 24 30 41 53 55 62 66 72 86 91 71 68 67 57 49 52 48 46 43 40 43 45 36 37 37 37 40 38 37
14 11 9 11 12 12 9 13 13 17 18 23 23 26 29 29 29 31 31 26 24 30 42 54 60 65 74 77 67 55 57 53 45 39 36 38 39 41 39 38 45 41 37 39 43 49 43 41 36
10 10 8 9 11 10 9 13 14 16 18 22 21 24 27 29 29 35 37 37 35 41 47 66 71 73 72 55 53 52 47 42 38 34 38 38 37 37 40 35 37 40 42 45 46 45 48 36 34
10 10 13 12 12 15 11 12 14 16 18 19 20 22 24 27 33 38 41 42 43 46 50 63 60 63 54 43 40 39 39 34 32 35 40 36 37 36 34 43 42 42 42 44 43 44 44 38 36
12 12 16 14 15 14 13 16 20 20 20 24 22 22 23 27 35 41 44 46 49 53 58 55 53 49 40 39 38 38 37 38 34 35 33 36 39 37 39 41 42 43 40 36 42 43 48 42 38
17 16 14 16 18 18 13 18 18 22 24 26 28 27 27 28 32 40 44 48 51 52 49 43 42 39 41 35 31 34 31 34 38 36 36 35 38 40 37 36 40 42 40 43 42 33 45 46 42
28 18 18 16 17 20 17 15 44 24 23 26 27 28 29 32 37 40 43 42 42 43 42 41 39 33 33 35 38 36 39 38 35 36 36 34 30 27 25 26 32 42 42 44 46 48 47 43 47
18 20 20 17 15 27 15 17 23 23 20 23 28 31 34 38 38 33 33 35 38 39 41 40 34 34 36 38 41 43 41 36 32 30 26 24 23 22 25 25 32 36 41 45 44 46 48 52 50
16 20 29 30 34 33 18 18 16 11 18 18 30 33 38 37 33 29 31 31 35 40 41 38 35 37 38 37 35 36 35 30 29 26 24 27 24 25 28 33 37 36 38 41 44 50 56 60 46
20 18 29 31 31 25 20 19 13 17 15 18 25 30 35 34 30 28 28 30 34 39 38 36 35 35 33 33 30 29 30 32 27 26 28 27 27 28 31 34 38 42 40 42 58 52 62 56 52
19 25 19 29 33 36 17 11 14 21 21 21 26 30 34 31 28 28 29 32 35 38 39 40 35 30 29 30 35 36 41 30 30 31 32 29 30 26 30 35 38 40 42 48 62 62 62 51 49
22 18 28 24 36 35 15 15 11 23 22 24 27 30 31 28 27 28 29 35 36 37 41 40 32 29 32 35 37 41 36 28 30 32 32 31 32 33 34 36 36 38 40 55 53 51 50 53 57
25 23 22 22 32 36 28 17 15 14 19 23 25 27 29 29 29 30 33 34 36 37 38 35 29 32 35 33 37 42 30 30 31 32 32 31 34 33 33 34 37 38 38 38 43 48 53 55 56
21 22 23 38 31 35 45 24 15 18 19 21 23 24 26 27 26 29 33 36 36 39 35 31 32 34 32 30 31 29 29 27 29 32 32 32 34 34 33 35 36 35 35 39 45 51 55 54 47

GFSSGP_sfc_rhum_024.txt.gz
RH
41 23 18 15 12 16 18 12 9 28 42 33 30 28 41 47 63 86 80 52 56 58 66 71 89 87 86 88 87 86 83 80 76 78 80 78 77 76 75 72 69 65 55 54 58 58 58 61 64
20 17 14 8 15 18 14 13 39 40 34 32 32 32 34 50 51 72 72 60 52 57 57 67 91 88 89 89 87 83 80 78 78 77 76 76 72 70 71 73 71 68 58 58 57 57 58 61 64
23 11 7 9 13 17 14 18 30 33 29 32 34 30 34 45 53 60 60 60 55 53 54 75 91 89 88 87 88 86 84 82 79 76 71 67 64 65 68 74 72 67 60 59 61 64 67 71 78
12 8 7 15 15 11 10 31 28 29 29 26 28 35 36 34 46 51 70 72 68 68 73 88 86 86 87 88 89 88 87 84 80 76 73 66 64 68 70 76 73 65 63 63 64 68 71 80 81
11 8 10 12 12 11 10 31 38 58 76 30 25 29 38 37 48 50 63 68 84 93 89 84 90 83 86 89 89 88 88 86 82 78 75 72 66 69 74 78 76 72 67 67 68 71 75 79 80
10 8 13 13 11 9 8 29 47 61 72 35 27 27 40 38 48 66 74 86 89 92 94 92 86 83 89 92 91 90 89 87 84 79 75 73 74 76 76 77 76 76 75 74 73 76 78 79 78
13 9 11 11 11 15 24 35 47 49 52 34 41 51 42 40 54 66 78 80 91 90 95 97 87 81 94 94 92 91 89 88 87 83 81 81 81 79 77 78 77 76 77 77 77 79 80 78 77
8 9 11 10 10 19 37 35 31 38 42 38 50 43 60 60 77 78 78 82 92 98 92 89 80 86 89 85 90 89 88 88 86 81 79 79 77 76 76 79 78 76 76 76 76 78 76 77 75
6 10 13 11 12 48 63 65 36 23 36 48 58 41 58 62 72 80 93 93 95 95 95 83 80 79 83 81 83 86 86 86 82 78 76 78 64 69 70 78 76 77 77 75 70 70 71 76 77
9 12 11 15 29 59 54 48 35 22 24 37 42 47 52 59 68 77 90 96 92 94 93 81 79 79 77 58 74 74 68 67 65 60 69 67 67 61 55 68 73 72 68 67 69 69 72 74 50
9 12 9 17 40 43 38 30 19 36 45 41 85 45 49 55 61 69 76 84 90 76 76 78 80 73 58 61 64 55 59 67 72 69 66 69 65 69 67 75 65 76 73 60 66 60 53 51 55
11 8 9 15 39 45 61 28 32 39 53 48 50 37 43 51 54 55 60 59 67 68 73 75 75 72 65 54 56 59 59 69 68 71 68 77 83 77 78 78 72 67 59 59 60 61 57 57 49
10 10 9 15 17 36 30 33 37 37 44 40 50 39 38 41 40 40 38 46 54 65 75 73 71 67 62 66 69 73 80 89 91 88 83 85 84 85 82 81 75 72 65 66 65 60 56 54 50
10 12 10 14 18 14 21 28 37 43 32 40 42 37 36 32 31 30 32 39 42 56 62 63 59 66 60 68 79 83 78 82 86 87 90 90 90 90 77 80 80 74 67 63 63 61 58 56 50
12 13 11 11 15 15 22 25 28 24 26 29 29 28 29 28 27 29 32 35 38 47 51 57 64 61 69 75 74 75 76 76 85 87 86 88 90 84 80 79 76 73 67 62 61 58 55 54 46
13 14 18 11 15 18 18 25 16 20 23 26 26 27 27 25 25 26 30 31 32 41 49 55 50 68 75 76 82 92 95 84 88 89 88 83 79 72 74 71 73 72 70 62 61 62 61 60 59
20 21 17 13 13 17 19 26 14 15 23 24 24 25 26 29 25 26 28 30 31 43 49 57 65 72 78 82 90 92 83 77 77 75 72 68 62 60 66 70 72 67 65 64 63 68 69 67 63
23 18 15 14 10 14 15 17 14 14 20 24 24 25 30 31 28 30 30 29 30 46 56 63 72 81 76 86 90 75 73 72 68 63 58 56 56 57 62 68 64 62 65 67 71 71 68 70 62
15 16 13 10 10 12 13 13 12 14 17 23 27 28 31 32 31 33 38 38 38 51 65 69 84 89 77 86 82 69 73 64 62 51 55 54 53 51 56 64 64 64 66 69 64 65 66 67 63
13 15 12 10 10 11 9 10 12 13 17 20 22 26 30 30 31 38 40 45 48 54 69 77 80 84 73 71 66 60 57 59 52 56 56 53 54 52 51 61 62 65 65 64 66 67 70 67 66
14 16 19 13 10 8 21 12 14 12 15 16 19 19 23 27 36 40 44 50 55 69 72 70 70 70 66 62 51 52 51 57 53 56 56 55 53 51 53 56 60 63 63 65 68 66 67 71 66
21 20 18 20 17 19 19 32 49 36 17 16 19 21 23 24 32 38 44 50 75 72 74 65 63 58 52 53 54 56 51 54 58 59 59 54 52 50 43 45 54 61 66 68 69 53 70 68 70
30 21 22 16 16 32 33 34 33 36 33 24 25 27 27 27 32 40 44 58 61 63 65 60 54 49 48 49 55 57 59 60 58 58 51 46 48 42 39 44 56 59 62 66 69 71 68 68 70
20 22 20 16 18 60 28 43 30 32 34 58 23 26 28 31 36 38 43 48 50 54 58 59 47 43 48 53 59 62 61 55 51 50 50 44 44 44 47 46 56 59 62 64 69 68 66 70 79
14 18 34 59 67 55 16 19 36 26 46 66 62 27 30 36 40 43 45 45 48 54 56 52 43 46 52 55 53 55 50 52 54 50 47 44 46 48 51 52 57 60 63 64 68 72 70 77 84
38 17 42 83 89 38 20 23 16 20 19 28 27 30 36 41 43 39 42 44 46 50 49 46 43 46 46 48 46 47 47 50 49 48 42 46 47 50 49 54 55 57 59 64 67 74 76 80 84
18 24 18 38 44 46 22 12 11 17 18 16 29 33 40 40 37 35 36 41 44 47 51 52 45 42 42 44 50 53 52 51 52 46 45 50 48 37 50 54 55 56 59 63 64 82 82 83 83
19 15 32 29 50 46 22 17 19 24 20 20 27 34 38 37 33 32 32 41 42 46 51 55 48 41 41 45 54 49 49 50 49 48 47 44 48 48 52 53 54 55 57 59 64 71 68 72 80
24 24 20 19 38 63 57 25 17 17 17 22 26 32 36 37 33 32 32 37 41 45 47 51 43 37 41 46 50 54 50 48 46 48 46 45 48 48 48 49 51 52 54 56 60 64 65 69 75
19 25 21 65 46 57 70 37 16 18 16 22 23 23 31 33 32 31 33 38 41 44 46 47 43 38 44 44 45 47 48 42 48 46 44 46 47 49 48 49 49 50 51 58 65 68 63 66 69

GFSSGP_sfc_rhum_027.txt.gz
RH
70 56 42 34 28 30 34 24 25 53 52 49 37 50 68 72 80 91 83 83 83 89 86 84 89 88 88 88 86 85 82 79 79 80 80 78 76 75 74 72 68 66 59 56 55 55 55 58 63
39 27 32 33 23 32 28 26 56 51 46 40 37 46 58 74 77 93 85 75 77 83 84 84 89 89 89 87 85 82 78 77 80 79 76 74 72 71 74 75 71 68 61 60 61 62 64 67 71
39 27 31 18 21 25 23 37 54 46 39 39 42 44 49 75 78 83 82 78 74 75 77 84 90 89 87 86 86 84 82 81 78 76 72 70 69 69 71 74 71 68 63 62 63 64 67 71 78
26 22 15 21 26 18 17 44 48 52 60 60 58 51 50 66 66 73 68 70 74 80 84 86 85 83 88 88 87 85 83 81 78 75 72 70 69 71 73 77 73 67 65 64 65 67 70 78 80
29 24 18 23 20 16 22 48 55 62 62 56 63 49 56 69 78 83 84 86 89 89 87 79 84 85 89 88 87 87 85 82 79 77 76 76 71 72 76 80 77 72 69 69 70 72 77 79 79
28 18 23 21 14 23 50 62 60 61 64 53 53 47 57 71 84 92 94 96 90 90 87 84 88 88 92 90 90 89 86 82 79 78 78 78 79 80 80 80 80 79 77 77 76 78 78 78 77
28 25 20 15 14 38 55 54 60 58 65 62 50 67 64 96 92 92 92 94 96 95 94 95 94 94 93 91 90 89 88 84 82 82 81 80 81 81 80 80 80 80 80 79 78 77 76 74 71
16 20 21 15 14 62 56 55 67 59 50 47 58 76 84 96 86 90 90 91 95 98 97 94 98 92 92 86 90 89 88 85 82 81 81 81 80 80 80 79 78 76 74 74 75 71 72 73 73
19 22 18 14 39 57 60 56 58 59 54 49 62 76 91 85 80 88 93 95 92 95 95 96 97 95 88 86 84 86 85 82 79 79 79 82 77 75 76 78 76 73 71 71 71 70 70 76 73
18 22 18 31 48 54 54 52 55 63 47 71 81 82 89 78 81 86 88 93 88 91 96 98 88 92 82 66 82 87 78 81 74 72 76 73 75 75 68 76 80 77 76 75 71 74 74 70 54
16 17 13 34 45 52 51 41 39 46 54 66 75 91 87 89 87 81 76 80 84 87 95 90 92 86 72 70 77 78 79 81 74 68 71 75 73 72 74 79 74 79 78 68 65 64 60 55 57
18 12 11 37 44 41 62 61 38 51 58 65 60 59 77 82 86 88 87 84 86 87 85 86 81 78 66 71 73 68 70 78 82 80 84 87 91 89 86 83 79 79 81 70 70 65 57 56 53
15 13 12 30 39 54 48 48 41 37 46 59 65 66 73 70 88 81 80 76 82 83 81 80 77 66 66 73 81 86 93 97 97 96 92 92 93 91 85 87 78 80 74 72 69 63 59 56 52
13 13 16 25 40 42 48 45 44 42 40 48 55 62 63 61 66 77 77 78 78 80 81 80 74 66 76 86 88 93 92 95 93 96 95 94 96 91 90 83 82 74 70 66 66 62 64 58 55
18 18 17 20 25 36 31 51 50 39 40 42 53 48 51 38 45 60 65 71 74 73 73 79 70 78 83 83 83 88 89 90 97 97 94 94 93 88 82 83 80 73 72 65 62 65 66 66 59
20 22 26 16 22 27 21 37 45 46 44 49 42 37 38 37 38 44 48 63 66 66 69 68 61 84 84 88 94 96 94 96 97 97 96 92 86 78 81 80 75 72 73 70 71 74 71 72 71
28 29 25 20 18 22 24 31 44 47 42 41 40 38 37 38 38 39 41 54 58 58 61 67 86 88 91 94 97 96 94 97 97 94 89 83 75 72 76 78 71 68 73 78 72 73 77 75 74
25 24 25 23 22 23 26 25 23 31 32 37 41 41 44 39 38 37 40 46 53 60 68 77 83 91 94 97 97 96 92 89 88 84 74 64 64 62 73 71 66 69 74 75 72 71 69 78 69
24 24 22 17 15 24 26 23 23 22 37 45 52 51 42 43 43 39 39 46 54 68 74 84 86 92 93 97 98 95 91 84 76 67 63 62 59 59 68 71 72 72 71 70 68 72 70 70 74
25 24 22 16 15 19 20 20 20 21 26 44 46 46 46 46 44 46 49 58 65 71 90 88 89 89 90 92 89 84 81 77 67 66 62 61 60 60 60 66 68 64 65 65 70 70 74 77 74
29 35 28 23 16 15 24 29 32 24 22 32 40 38 38 42 49 52 53 65 82 87 93 92 88 84 83 84 78 71 64 68 69 68 67 63 59 56 58 60 63 64 67 70 72 74 74 76 70
25 24 27 22 28 26 28 42 44 36 24 24 28 36 38 41 47 51 58 69 89 90 91 91 87 83 80 81 62 53 55 62 73 74 69 64 62 52 46 53 58 62 71 72 78 66 75 76 76
30 27 28 31 32 38 39 41 41 34 24 30 43 37 38 44 49 55 61 84 85 83 85 76 84 79 65 56 53 69 67 69 71 68 58 45 46 44 44 54 57 60 69 70 73 76 78 76 78
24 29 33 37 40 62 34 42 48 51 31 42 41 33 34 46 53 58 72 72 76 79 87 82 60 54 64 66 68 68 67 57 53 52 51 44 47 54 51 47 57 60 66 70 75 80 76 84 87
31 37 56 63 80 75 39 44 44 38 35 34 32 29 46 54 57 69 71 71 67 68 57 50 58 66 60 57 54 56 51 50 49 51 51 45 49 53 52 52 59 61 66 69 75 75 78 83 86
30 38 69 78 86 67 38 46 34 27 27 29 33 40 46 58 62 63 64 68 70 64 59 58 60 60 56 59 50 50 51 58 56 53 50 52 50 52 53 53 57 58 61 66 74 79 81 84 89
30 38 35 68 72 80 49 21 25 31 41 51 49 48 60 63 60 60 60 62 64 64 62 63 61 55 58 53 54 54 54 54 57 50 50 52 52 41 52 53 56 58 60 60 68 80 86 88 90
28 28 46 56 59 62 38 34 48 36 33 44 54 58 59 55 52 54 56 60 59 62 64 66 60 54 54 57 59 54 52 56 54 53 51 49 52 48 51 54 56 58 59 61 65 76 74 76 85
34 35 33 35 62 70 80 48 27 27 32 36 51 52 54 50 46 48 52 54 55 59 63 66 59 53 55 60 58 58 55 56 54 53 51 48 49 49 50 51 54 54 58 63 67 73 68 72 77
26 35 47 70 47 77 81 56 25 22 26 29 30 44 50 47 42 43 47 52 55 58 59 65 54 48 57 59 57 57 57 52 49 52 49 51 51 50 50 52 53 57 60 62 66 69 70 67 68

GFSSGP_sfc_rhum_030.txt.gz
RH
76 59 44 36 34 32 37 26 20 41 62 52 58 70 81 82 81 84 87 88 84 85 90 86 90 89 89 88 84 83 81 76 75 76 78 76 75 74 73 72 69 66 59 59 59 59 60 62 65
50 33 36 36 26 30 25 24 26 62 59 53 50 62 76 90 85 96 93 88 85 86 84 82 89 90 89 87 84 80 75 74 76 74 74 73 73 73 74 73 72 70 62 60 59 58 60 64 72
40 33 43 34 27 26 25 36 62 60 59 50 48 52 64 92 84 82 86 89 90 87 82 86 90 89 88 86 83 82 82 80 78 75 73 71 70 70 72 75 73 70 62 60 59 60 64 72 78
29 25 22 21 24 21 17 20 58 56 50 58 64 61 63 80 79 81 84 85 90 89 85 90 89 88 88 86 85 84 82 79 77 77 76 72 69 70 74 76 74 67 64 63 64 66 71 78 78
34 24 23 25 20 16 58 61 64 67 65 57 55 66 80 88 85 82 80 82 90 92 86 84 89 89 87 85 84 84 83 80 79 79 78 76 74 72 77 79 77 72 68 68 68 70 76 78 78
33 22 25 25 19 59 65 69 63 68 68 63 55 64 91 86 91 92 91 91 91 91 89 84 86 87 87 86 85 85 83 81 82 81 80 79 79 80 80 81 80 79 77 76 75 75 74 74 77
34 31 34 24 22 46 61 62 66 62 66 62 60 80 93 90 93 95 97 94 96 98 98 91 83 87 91 91 89 86 83 82 83 82 80 80 82 81 80 80 80 79 77 74 70 72 71 69 72
26 25 25 21 17 35 61 59 66 62 61 60 68 86 97 96 93 94 95 98 97 97 97 96 93 94 94 87 90 88 84 84 83 82 81 81 81 81 80 80 78 76 73 70 67 69 69 72 75
19 26 27 20 26 61 62 59 56 62 53 88 88 91 92 88 86 93 97 96 96 98 96 91 93 98 91 88 84 85 82 82 81 80 82 83 82 80 79 78 76 74 73 72 64 67 72 70 74
24 27 22 18 45 60 57 63 55 46 80 85 97 93 86 84 86 90 93 97 94 96 95 92 95 96 88 70 88 89 75 78 80 79 80 75 78 79 75 79 80 78 73 69 72 75 71 66 60
24 22 18 22 51 49 58 54 50 54 72 78 87 93 90 88 86 85 86 87 88 87 82 91 97 90 81 76 88 90 86 80 76 74 76 79 78 78 80 80 75 77 74 70 64 61 58 58 63
19 16 14 34 52 51 50 49 38 54 60 69 78 86 84 87 85 84 84 80 85 92 86 92 94 88 82 76 80 80 76 84 86 92 84 90 94 88 87 84 82 81 78 72 70 68 60 56 56
19 15 18 41 44 46 44 52 45 73 67 68 78 83 85 86 78 72 68 70 75 90 88 86 90 82 78 84 82 86 96 98 98 96 92 90 89 92 88 85 81 75 73 71 67 65 59 58 54
21 17 33 44 47 46 40 47 47 61 68 71 69 83 86 77 68 78 78 78 82 84 86 84 82 76 75 88 96 97 95 97 97 96 96 90 92 93 88 84 79 73 69 68 66 67 67 68 64
25 21 27 47 48 49 39 46 42 46 56 64 65 76 79 67 75 76 75 79 80 82 80 86 78 82 88 89 90 94 97 96 97 98 95 94 93 85 87 84 77 75 73 68 72 72 72 72 64
23 25 27 38 42 39 30 40 41 47 51 62 64 68 79 70 73 75 72 74 81 78 82 76 76 85 86 89 93 96 97 97 98 98 97 94 86 85 86 77 74 76 78 78 78 78 75 75 75
30 30 32 30 26 29 29 39 41 47 46 52 58 56 60 77 78 73 73 76 76 74 77 84 86 87 92 92 95 96 95 97 97 96 94 88 81 80 77 75 76 80 81 80 75 77 76 79 69
35 33 30 26 22 26 27 31 42 50 47 50 53 52 47 58 65 66 71 72 71 71 78 88 85 93 91 95 97 98 97 97 94 90 83 68 70 76 78 78 81 77 74 71 71 67 70 75 75
28 28 32 25 17 28 28 29 46 50 48 51 60 54 47 50 50 52 68 69 68 71 83 89 92 93 90 95 98 98 97 94 90 80 69 66 67 69 73 78 73 71 67 68 70 72 71 72 77
34 34 34 26 21 27 29 27 36 36 42 47 48 47 47 49 46 51 62 66 68 75 82 89 88 90 82 90 96 92 92 85 77 73 69 66 68 68 68 72 69 66 65 67 70 73 75 83 75
35 38 35 32 22 18 26 36 37 28 41 43 42 41 42 43 43 48 59 66 73 77 91 90 92 88 82 81 93 84 76 75 73 74 72 69 65 63 65 68 70 73 74 74 74 75 76 76 76
37 29 31 29 33 28 31 47 44 36 32 44 43 50 46 44 42 54 58 73 79 92 93 92 91 88 86 90 89 79 70 63 75 75 73 71 67 56 55 58 62 65 69 68 77 74 81 83 80
37 30 31 35 38 43 38 38 36 44 27 38 37 40 47 48 47 56 74 82 82 93 96 95 92 88 88 91 82 74 72 75 80 79 71 52 53 56 55 57 60 67 74 72 74 79 86 84 83
28 33 38 48 50 61 46 42 43 44 31 28 34 36 39 52 62 66 85 86 94 92 94 95 95 92 85 90 73 69 74 76 70 63 54 56 61 61 55 56 63 64 68 74 78 83 81 86 88
34 38 56 57 75 66 46 46 40 36 36 34 34 36 46 55 70 84 91 94 95 95 94 93 75 70 73 76 76 72 63 56 50 54 55 57 54 55 51 58 58 63 66 69 78 80 82 86 89
36 38 64 61 77 58 45 54 40 31 29 32 36 44 59 69 69 77 84 88 92 90 87 76 64 63 60 57 58 50 49 53 56 55 53 55 55 57 54 55 58 60 61 63 68 80 86 87 91
36 41 39 69 79 80 59 37 30 38 42 47 51 47 66 81 84 79 80 82 83 76 70 66 59 55 56 62 50 56 59 58 57 52 54 58 56 50 55 57 58 57 59 62 69 79 85 90 90
32 28 44 62 65 68 44 42 48 40 37 43 58 52 70 76 76 74 73 73 68 68 73 74 59 56 58 62 62 52 53 56 55 57 54 53 53 51 52 53 53 55 58 63 69 75 75 78 85
38 38 38 43 61 63 75 49 30 33 36 48 54 53 68 67 69 69 68 65 61 60 65 64 59 55 61 54 59 56 55 58 57 55 54 52 52 50 52 55 53 54 58 63 70 74 72 71 79
36 38 47 68 45 82 82 53 33 29 33 47 50 53 64 58 61 62 63 64 64 63 67 63 59 52 49 54 60 60 60 60 55 55 52 57 53 55 56 57 54 55 57 62 70 76 70 65 67

GFSSGP_sfc_rhum_033.txt.gz
RH
75 59 44 37 33 34 42 28 23 26 58 66 68 71 80 96 81 82 88 91 90 88 90 89 90 90 88 86 85 83 79 72 71 73 75 75 74 75 72 71 70 68 61 58 57 57 58 63 74
54 37 37 30 30 32 27 24 23 29 60 69 62 77 86 94 84 95 92 89 86 85 88 86 90 89 86 85 83 80 74 71 74 72 70 73 70 72 74 75 73 69 64 57 57 58 62 65 75
40 35 47 36 33 28 26 25 72 63 63 64 62 59 77 90 88 86 86 83 85 87 83 86 90 88 86 84 81 79 79 78 77 75 71 70 69 68 71 76 73 69 61 58 58 60 63 73 78
32 30 23 22 22 20 20 19 30 63 59 64 70 71 84 85 80 84 85 87 92 88 87 92 90 87 85 84 84 83 81 80 79 78 75 72 69 68 74 76 73 69 63 62 61 64 73 73 75
36 25 25 25 20 20 66 69 69 74 78 72 66 88 90 90 86 90 89 90 93 95 92 91 91 88 86 85 84 83 82 82 81 79 77 76 74 73 79 79 77 74 68 65 65 72 76 74 71
36 24 25 27 20 40 68 75 67 73 71 69 60 82 93 88 86 88 92 95 94 95 95 88 87 87 85 84 85 84 84 84 82 81 80 79 80 81 81 81 80 78 77 75 73 73 75 75 73
38 37 33 26 25 21 67 65 69 69 65 70 67 89 93 94 96 95 96 95 96 96 94 95 96 84 91 91 89 87 86 86 85 84 83 83 84 83 81 80 79 78 76 74 72 70 72 75 74
33 29 29 23 22 25 60 60 65 63 66 61 71 94 93 96 93 96 94 95 95 96 97 98 96 91 90 82 87 86 85 88 87 84 85 84 83 82 81 80 78 75 72 71 71 72 76 78 74
22 32 29 24 28 52 61 60 69 71 86 86 90 88 90 96 89 92 97 97 96 97 97 97 96 94 92 89 83 82 83 85 85 84 82 86 87 85 81 80 77 71 70 70 72 75 72 68 77
28 30 24 20 35 59 60 68 60 76 89 91 93 91 91 92 90 93 92 97 89 89 92 88 93 98 92 75 90 87 78 86 86 84 83 82 83 84 78 82 77 76 73 72 73 74 69 65 64
27 26 22 18 47 53 57 64 55 75 86 89 88 90 88 91 92 93 89 90 92 89 94 91 89 98 92 84 93 92 86 85 82 80 79 80 79 84 82 81 79 80 74 65 63 62 63 62 61
27 19 17 23 54 52 53 49 47 62 69 80 86 86 89 91 88 91 92 92 94 90 90 85 96 95 92 87 90 89 80 82 80 77 78 92 96 92 84 84 87 77 77 71 69 68 61 60 57
21 18 17 27 50 51 48 49 64 83 80 84 86 82 79 82 85 83 82 82 91 91 83 87 96 96 87 83 86 86 89 92 97 97 91 91 88 92 87 84 80 78 73 71 70 65 64 64 62
25 26 47 50 49 46 50 58 57 73 88 88 82 79 66 70 78 78 79 80 87 91 91 91 93 93 84 88 90 97 98 98 97 97 94 86 92 93 87 82 79 76 72 70 71 71 73 72 66
27 32 45 51 54 50 42 48 64 67 82 87 83 78 74 69 73 78 74 74 78 85 87 94 94 86 89 93 96 98 98 98 98 98 94 92 93 90 86 84 80 79 73 75 75 76 75 75 63
25 26 38 48 52 43 34 50 51 68 76 87 89 87 83 77 69 75 72 72 76 82 92 92 79 90 96 96 97 98 98 98 98 98 97 94 88 88 84 78 80 82 80 79 80 76 75 79 67
32 31 33 45 39 44 37 39 47 63 70 79 88 92 81 75 70 76 72 76 80 88 89 86 92 95 95 95 97 96 95 97 98 97 97 93 87 82 78 79 84 80 78 78 71 76 75 73 70
40 36 43 32 24 40 49 41 49 54 67 71 74 80 86 70 69 73 73 75 79 91 89 93 91 95 92 96 97 98 97 97 96 95 90 78 83 78 78 82 81 76 73 73 72 66 74 78 79
36 39 42 33 24 29 35 33 47 54 59 66 67 69 82 78 67 72 74 74 83 88 93 94 94 96 90 95 97 98 97 97 95 90 72 73 79 76 77 79 76 75 70 72 69 74 72 78 77
35 38 33 32 24 26 32 29 46 56 52 55 59 59 59 77 74 74 78 81 85 83 89 93 91 95 85 89 97 96 97 95 90 82 74 72 74 74 73 74 74 72 73 73 76 75 79 85 77
39 41 39 35 28 28 31 35 32 32 48 49 53 48 50 58 70 70 78 83 82 82 87 89 91 92 84 88 96 95 84 82 78 78 77 73 72 69 72 74 77 77 77 78 81 81 78 77 76
42 35 37 34 35 26 30 42 43 36 42 49 48 58 48 50 55 59 71 81 80 79 83 86 89 91 85 90 92 90 90 84 78 79 77 76 71 67 60 62 67 71 74 73 76 76 85 86 83
37 41 35 38 42 44 42 40 38 47 39 46 49 50 50 45 47 55 66 72 73 83 93 93 94 91 86 87 91 95 90 80 83 82 80 59 65 62 58 62 65 67 76 76 77 83 86 91 87
34 38 42 53 52 61 50 45 44 44 34 34 44 42 46 59 60 69 65 73 78 95 96 97 96 94 94 92 95 94 87 82 78 80 66 66 68 64 64 58 64 64 68 67 79 83 82 86 89
35 40 52 53 72 64 49 49 43 32 34 34 41 42 43 46 66 86 89 86 92 97 96 97 94 96 96 96 92 85 80 76 70 65 61 65 64 61 60 58 62 64 60 60 69 81 82 86 91
46 39 60 58 72 51 52 62 40 34 36 36 36 39 49 63 61 82 88 92 94 95 95 95 96 89 85 93 87 82 81 87 83 75 60 55 57 58 57 59 60 57 56 58 67 75 79 89 93
40 45 42 69 83 78 60 45 30 35 40 54 54 55 68 80 80 88 91 93 96 95 96 95 86 78 76 78 70 70 72 69 70 66 54 56 60 54 58 58 57 58 58 62 69 80 81 92 92
38 35 46 62 61 68 54 47 46 38 33 43 59 54 74 87 92 93 93 96 96 95 90 87 71 65 65 63 61 59 54 53 52 52 54 53 55 58 58 58 56 58 58 62 70 76 76 76 84
41 41 44 46 64 63 73 54 35 37 36 34 41 52 64 89 89 86 84 86 86 80 78 74 64 59 62 60 59 64 62 64 56 49 49 49 54 54 54 56 59 58 60 62 69 72 76 78 80
40 44 45 69 50 84 83 56 33 29 33 40 43 48 66 81 81 80 81 81 75 75 74 69 62 56 59 68 72 69 63 58 53 52 52 57 51 56 59 61 61 61 61 62 69 73 73 77 74

GFSSGP_sfc_rhum_036.txt.gz
RH
75 55 45 33 31 33 42 28 26 24 50 80 73 80 86 93 84 83 89 92 86 88 91 91 90 86 85 84 84 81 79 76 74 74 76 77 76 73 72 71 69 68 65 59 61 68 73 77 77
50 37 37 30 32 34 27 26 27 50 70 69 63 77 92 88 84 94 90 94 83 86 91 90 90 86 84 84 82 78 74 75 75 74 74 76 74 74 75 73 70 68 66 58 58 63 69 76 84
40 37 45 32 34 30 27 22 61 76 68 69 67 72 90 92 84 90 89 89 87 87 89 90 90 86 85 83 80 77 77 77 76 75 72 72 71 71 74 74 70 68 65 58 57 61 66 75 80
34 35 22 24 23 21 21 22 76 69 67 68 72 88 91 88 85 88 86 90 91 89 91 95 90 86 84 82 80 80 80 79 78 76 74 73 72 70 76 75 72 69 67 60 59 61 71 81 78
33 30 30 33 25 18 38 73 77 80 74 72 76 87 93 91 92 90 94 93 96 95 96 91 91 86 84 83 82 82 83 82 80 78 76 76 75 76 80 79 77 74 71 69 68 71 72 78 76
36 27 30 31 22 18 74 78 68 76 74 71 82 85 92 88 92 97 95 97 97 98 97 94 90 88 86 84 84 86 86 84 82 81 79 80 82 82 81 80 79 76 75 76 76 75 72 76 76
38 39 37 30 27 22 65 69 73 71 74 76 71 90 96 96 96 93 96 96 98 97 97 97 92 81 90 91 89 90 88 87 86 85 84 86 85 84 80 79 78 77 75 75 77 78 74 75 80
37 32 43 30 22 23 62 65 75 73 79 74 85 89 97 97 94 90 94 96 97 98 98 96 96 91 94 88 88 90 90 89 87 88 86 84 82 81 80 80 78 76 74 74 76 80 77 75 79
28 37 34 28 29 27 67 67 72 86 92 83 88 90 92 96 90 94 97 96 97 98 97 94 94 94 91 85 83 86 87 87 87 85 84 87 87 86 78 79 76 73 73 74 78 77 78 78 77
32 35 29 23 21 54 68 65 64 84 86 87 94 95 94 94 93 96 96 97 95 95 97 97 94 96 91 77 85 86 83 89 87 87 85 86 87 85 80 81 77 79 76 80 77 75 71 65 67
32 30 24 20 23 54 67 64 59 89 94 83 91 94 96 95 94 92 87 89 87 86 89 94 91 95 92 90 90 92 92 91 90 87 82 85 88 86 81 80 79 76 70 65 62 62 61 61 64
32 23 20 20 53 57 57 52 60 75 79 79 82 86 90 91 94 92 85 88 92 88 90 92 90 95 93 92 91 89 83 85 87 84 81 88 91 87 86 89 80 77 76 71 70 68 67 66 62
26 20 22 28 52 55 50 58 70 96 92 82 85 82 85 86 85 85 86 80 85 93 88 82 90 98 92 90 90 86 83 89 90 86 86 89 91 93 87 86 81 78 75 72 71 70 68 67 61
28 31 46 54 54 50 65 68 68 87 93 94 92 93 91 88 86 87 88 90 91 89 90 76 87 98 90 89 89 92 92 93 97 97 95 87 93 92 85 84 80 77 74 74 74 74 74 71 62
32 43 44 54 52 51 49 53 77 91 90 94 92 85 73 84 81 82 85 88 88 88 84 93 97 96 93 92 93 97 97 98 98 98 93 90 92 89 84 84 82 78 78 77 78 77 77 69 59
26 28 36 48 52 52 44 62 77 92 88 94 93 88 82 76 78 84 79 82 88 89 94 95 88 95 95 95 96 98 98 98 98 98 97 93 91 87 84 82 83 83 81 79 79 76 77 71 68
35 34 36 51 48 47 46 60 68 86 90 95 94 94 91 91 80 83 80 80 85 90 94 95 95 96 96 96 98 98 98 98 98 99 98 94 89 82 80 83 85 82 80 79 71 78 75 70 71
44 42 56 41 33 52 53 50 70 79 82 88 92 96 96 90 81 76 80 81 85 93 94 93 96 96 96 98 98 98 98 98 98 98 98 91 89 79 81 84 81 76 76 76 71 70 77 78 77
38 43 43 39 29 33 44 49 60 75 78 86 91 95 96 83 70 72 80 83 91 95 96 96 97 98 96 98 99 99 98 98 97 96 83 87 81 77 81 82 80 77 74 75 72 77 73 82 78
39 40 39 34 29 32 38 44 56 67 71 75 78 79 81 82 77 72 86 88 89 93 95 96 95 97 92 92 97 96 97 97 96 86 77 83 79 77 75 79 78 75 77 78 79 77 82 86 81
39 43 40 40 35 33 35 41 63 53 61 60 65 64 66 74 81 76 85 85 84 92 94 93 94 96 89 90 97 97 90 89 88 84 80 80 78 76 77 78 80 80 79 79 84 83 79 81 83
45 36 41 40 39 32 36 36 44 50 57 55 54 65 58 62 71 78 80 87 88 90 92 93 95 96 90 93 91 94 92 92 88 84 81 81 78 75 70 68 72 74 78 76 78 77 84 82 85
37 41 44 42 44 45 45 40 36 48 47 52 50 53 56 55 57 72 77 79 86 93 95 95 94 94 88 88 88 94 95 96 95 84 83 72 70 66 65 70 72 75 78 74 73 76 82 88 86
38 40 39 51 53 60 48 48 47 52 37 37 42 47 50 52 57 63 69 80 88 94 95 96 95 93 91 90 94 94 94 93 92 91 76 72 72 71 67 65 69 70 69 70 77 84 83 89 89
40 41 53 52 70 65 50 55 47 33 37 38 38 41 47 50 54 65 71 82 92 94 95 96 95 93 96 94 96 95 91 87 81 80 74 71 70 73 67 63 68 66 64 70 73 78 79 84 89
43 40 61 53 72 50 52 56 36 38 40 45 42 41 55 60 56 59 66 72 86 92 95 95 95 94 97 97 97 96 91 88 86 84 74 73 66 69 61 64 70 76 64 62 63 70 76 83 91
44 47 42 70 84 76 60 47 28 39 52 52 48 55 54 58 62 61 74 81 86 94 94 95 94 92 95 95 98 94 91 93 88 82 76 66 62 59 68 80 73 65 60 60 64 73 75 86 92
40 40 50 62 58 64 57 50 43 35 38 56 56 53 60 79 84 86 92 93 92 93 93 95 94 95 93 95 95 91 88 88 87 77 70 64 62 58 73 68 60 62 60 62 67 72 80 89 88
45 46 51 49 65 62 70 51 40 35 38 40 43 52 56 76 90 93 94 95 94 94 96 97 96 90 85 82 83 85 86 88 84 76 70 60 59 62 66 58 61 61 61 63 70 74 78 80 82
41 43 49 69 54 84 81 60 36 32 32 36 36 44 59 72 88 92 94 96 98 97 96 96 92 82 82 86 86 87 84 79 75 65 51 57 55 62 55 64 62 60 62 66 71 74 70 79 82

GFSSGP_sfc_rhum_039.txt.gz
RH
57 35 28 20 19 21 19 16 17 17 28 65 67 60 65 76 69 63 81 81 79 77 64 72 88 88 87 85 85 84 82 79 76 78 79 77 74 73 73 72 70 69 68 70 71 70 69 70 78
35 28 25 22 19 18 14 17 19 55 50 58 58 71 70 82 77 88 87 82 82 75 64 65 88 86 86 85 83 81 76 75 76 78 77 75 75 74 73 72 71 69 69 69 71 73 73 75 85
30 27 27 23 21 17 16 15 37 57 57 54 56 70 73 83 79 83 82 78 86 75 66 69 87 85 84 82 80 78 78 77 78 77 75 76 76 75 73 73 70 68 66 64 67 75 79 84 85
25 24 16 17 18 16 16 16 54 53 52 55 56 77 80 82 87 82 82 79 88 81 70 87 88 86 82 80 80 79 79 78 78 76 76 76 75 75 74 73 71 69 66 62 64 70 77 82 83
20 20 22 19 18 14 14 46 59 61 58 62 61 76 81 82 91 92 90 84 94 89 86 87 90 85 82 82 81 82 81 80 79 77 77 77 77 78 78 76 74 73 71 68 69 74 77 80 81
23 18 20 19 17 14 33 54 56 60 58 62 62 69 84 86 94 96 96 97 94 95 93 90 88 87 84 83 84 86 85 82 80 80 80 81 82 81 81 80 78 78 77 74 74 77 76 78 78
26 24 23 21 20 18 41 56 59 58 55 57 64 80 92 95 95 95 96 96 98 98 97 96 94 87 90 91 90 90 87 86 85 85 85 86 84 83 80 78 76 77 78 78 74 76 79 79 80
24 22 23 21 17 17 43 56 57 57 63 69 73 73 91 96 94 93 94 96 98 98 96 93 89 91 93 83 90 91 90 90 90 88 86 83 82 81 81 78 77 76 77 80 76 77 81 82 79
20 24 24 21 20 19 53 55 66 72 72 75 77 80 84 94 87 92 96 97 96 97 96 91 86 90 92 83 80 86 89 90 86 81 84 78 51 55 56 73 76 76 79 79 82 80 80 78 75
21 26 22 18 17 28 50 50 58 68 74 75 81 93 94 87 86 92 95 97 96 96 94 92 97 88 86 68 74 81 81 74 65 57 60 55 64 56 54 65 79 79 83 80 78 74 70 53 37
23 23 21 17 16 37 52 52 51 64 68 66 78 88 88 94 91 90 93 89 87 83 85 86 90 94 88 83 82 78 73 68 62 68 62 67 64 64 58 58 56 62 62 44 47 45 38 46 39
23 20 19 17 40 49 51 49 66 60 67 69 72 83 91 92 89 91 91 90 87 80 81 89 86 87 89 89 75 74 66 62 62 61 71 70 66 65 62 58 55 58 52 53 47 46 52 49 45
22 18 20 31 44 46 44 52 63 75 80 74 76 81 85 87 86 84 84 77 77 76 75 77 83 80 86 84 78 72 70 66 75 66 71 74 70 77 66 65 56 52 48 48 49 48 44 46 44
23 26 40 49 45 46 53 61 55 78 79 81 77 73 73 82 86 89 90 81 74 67 72 74 73 74 79 77 76 71 70 68 69 67 75 76 72 74 67 63 56 53 48 49 48 48 45 43 42
25 32 36 45 44 47 41 40 60 77 77 82 82 78 80 78 81 90 72 79 72 69 69 72 75 79 84 74 71 68 69 68 67 73 80 76 75 72 67 68 56 55 56 58 55 53 48 43 39
21 23 27 39 43 45 29 40 64 80 76 76 78 72 70 80 79 74 74 71 70 65 66 67 68 79 85 78 75 77 78 81 78 82 82 75 74 70 69 60 58 59 57 54 53 50 46 44 40
29 25 32 42 39 44 35 43 56 74 72 68 70 68 72 70 72 69 70 70 71 70 68 70 74 79 87 80 80 80 80 77 82 85 82 82 75 68 61 58 62 63 56 56 50 51 47 43 40
33 30 30 29 26 40 45 36 65 75 70 64 63 67 72 70 62 64 65 63 64 69 73 72 78 82 84 82 80 77 76 77 83 84 82 77 70 67 63 62 66 58 53 51 48 52 50 47 45
30 31 32 28 24 34 41 40 55 72 76 74 68 68 71 69 61 60 63 64 63 68 72 73 79 83 80 85 85 80 85 87 88 84 81 76 66 63 64 59 59 55 52 53 55 53 53 49 52
31 31 31 29 23 28 27 31 43 65 68 63 64 68 67 66 66 62 64 67 67 64 71 78 78 80 76 74 73 69 74 79 76 79 72 71 67 61 60 60 56 55 54 59 58 55 52 52 54
31 31 34 33 30 26 30 28 39 50 59 58 58 59 60 63 65 62 65 67 67 67 71 76 77 78 76 73 73 75 72 72 79 72 64 66 63 58 59 60 57 58 55 52 55 55 56 48 56
32 28 32 34 31 27 28 27 29 42 50 53 53 56 56 55 58 59 61 66 70 68 72 74 78 77 76 78 73 75 72 71 72 66 58 60 62 60 55 57 60 56 51 54 53 52 54 56 50
31 33 34 33 34 35 34 27 25 38 42 46 48 48 51 52 53 57 58 58 62 71 79 78 76 76 75 78 75 84 78 78 80 67 68 66 64 60 55 54 55 54 49 56 59 66 68 68 71
32 32 33 40 40 44 38 33 30 32 30 33 38 43 43 45 49 50 54 57 59 72 79 82 79 78 79 84 82 81 79 81 79 71 67 63 58 55 54 49 51 52 52 57 71 84 87 78 58
31 34 41 39 53 46 43 41 33 27 28 29 30 34 38 40 44 47 51 58 62 76 80 81 78 88 90 87 85 86 85 78 75 72 73 74 64 58 58 52 56 51 52 66 82 81 71 62 58
36 34 48 45 51 36 43 40 23 27 26 34 38 36 32 40 44 44 45 50 62 72 76 79 78 83 93 90 87 84 80 82 78 77 78 71 59 58 54 53 52 54 57 59 71 67 59 59 60
35 37 35 59 70 58 42 34 24 27 30 34 38 40 36 39 44 44 44 51 59 71 78 80 77 76 90 93 88 86 84 82 81 82 78 72 63 56 58 57 59 61 67 61 60 57 56 61 65
33 34 44 50 56 56 40 39 27 25 26 30 33 36 38 44 44 50 50 55 60 67 72 81 76 73 76 84 87 90 85 80 81 83 76 68 64 58 58 62 66 60 53 67 53 51 54 59 62
37 39 43 39 49 49 50 36 33 26 26 31 32 33 40 42 48 53 57 65 66 69 73 76 73 71 76 80 84 86 85 85 85 87 77 72 66 55 52 62 62 63 49 49 50 54 54 58 58
34 39 42 56 48 60 61 42 27 30 27 28 28 31 39 41 44 55 64 70 77 76 76 79 81 80 78 79 84 84 83 86 86 85 80 71 63 53 51 58 61 61 49 49 51 53 62 58 58

GFSSGP_sfc_rhum_042.txt.gz
RH
45 19 12 13 13 11 12 10 9 11 18 34 40 42 41 54 55 57 63 69 58 54 45 63 90 90 89 88 87 85 83 81 78 78 78 76 75 75 74 73 73 73 69 68 67 70 72 69 74
14 14 13 10 11 12 10 9 11 21 25 42 44 50 43 59 61 75 86 78 56 55 47 47 92 88 87 86 84 82 78 78 79 78 76 75 76 75 75 75 76 77 75 69 67 71 74 74 80
20 17 13 12 11 10 10 10 16 24 33 33 39 45 55 61 56 66 60 72 61 54 46 53 90 88 86 85 83 79 78 79 79 77 76 77 75 75 75 76 75 76 76 73 70 76 79 82 84
14 14 11 11 11 9 10 9 18 22 32 35 33 46 55 68 64 55 55 77 71 62 56 82 90 88 86 83 81 79 79 80 78 78 78 76 75 75 76 76 72 72 74 73 75 77 78 82 82
11 12 13 12 10 10 8 9 25 29 36 39 38 51 57 88 70 60 68 78 78 77 71 76 89 86 83 82 80 80 81 79 78 78 78 77 76 77 78 77 74 73 74 74 75 74 79 81 82
13 11 12 10 10 8 9 20 28 38 39 42 42 44 65 90 84 92 69 82 87 86 82 88 85 85 84 82 82 83 82 81 81 80 79 80 82 82 82 80 78 76 77 79 77 77 79 80 78
15 12 12 12 12 15 24 34 39 38 36 38 42 48 80 88 95 95 95 85 91 95 92 91 85 82 88 90 89 87 85 85 84 84 84 84 84 82 80 80 79 77 75 77 79 80 80 78 78
13 12 12 12 16 18 22 37 40 40 38 46 48 46 75 93 92 96 96 97 98 98 97 94 90 87 84 81 92 91 89 89 88 88 85 84 81 81 80 79 80 80 77 77 81 83 81 76 75
13 14 12 14 14 14 28 28 44 45 42 49 56 56 66 88 80 88 95 97 97 98 97 96 94 89 79 74 76 87 90 90 87 82 82 71 38 38 43 72 80 82 83 82 83 84 80 79 75
14 14 13 11 12 13 18 27 37 46 45 46 68 90 86 84 79 92 93 96 96 97 96 91 87 87 83 78 75 64 60 47 56 56 50 34 43 37 38 60 84 84 84 81 78 73 68 57 30
15 15 14 12 12 13 22 34 37 38 38 40 58 93 92 85 82 90 86 80 92 91 90 92 94 93 88 92 82 68 61 65 53 55 44 47 43 45 40 46 46 48 57 37 40 39 31 36 32
17 14 14 14 20 23 33 39 44 42 56 52 63 82 90 90 87 82 92 92 88 87 90 88 87 75 82 90 72 61 48 47 43 44 48 50 43 46 44 40 44 46 40 43 40 38 44 41 38
18 15 16 22 24 32 35 35 46 65 62 60 70 82 91 90 87 86 79 78 78 80 86 83 83 81 81 80 82 66 58 51 45 47 46 41 40 49 44 46 42 42 42 41 40 40 38 40 38
17 18 27 30 32 30 33 38 40 60 52 54 58 70 83 88 88 82 80 73 74 76 78 86 78 68 76 58 59 65 60 50 50 42 48 53 44 51 48 51 46 42 39 39 39 38 37 36 36
17 21 26 28 32 32 31 31 45 50 48 54 52 59 79 77 69 78 71 72 56 53 58 58 62 58 56 56 54 46 46 44 43 45 60 58 55 57 55 51 47 44 44 46 45 43 39 34 31
17 18 20 20 30 31 32 29 46 45 45 49 49 45 60 80 66 64 63 58 44 46 52 56 50 57 68 62 53 42 44 44 41 49 58 64 61 59 58 51 48 47 47 42 42 39 36 35 31
18 17 19 19 27 29 29 25 35 45 41 39 42 42 47 67 67 54 51 49 46 43 49 58 59 60 70 64 54 53 52 45 43 54 56 64 62 61 54 49 49 53 46 46 42 40 38 34 28
18 18 19 21 23 29 27 26 30 40 39 35 36 38 42 53 64 60 50 46 46 45 48 52 55 65 69 66 57 45 42 43 52 58 56 62 56 59 53 48 54 49 45 46 41 44 35 31 29
18 17 18 17 17 22 21 21 23 35 42 39 35 37 42 39 40 48 50 50 48 50 50 52 59 61 60 70 58 48 45 47 58 64 65 65 56 56 55 49 54 48 46 45 48 42 43 35 32
22 20 20 20 19 20 16 18 19 28 40 37 35 36 37 38 39 41 46 49 51 50 54 56 53 56 58 55 53 44 46 45 49 58 65 64 61 55 54 53 51 48 46 50 48 44 37 32 36
23 23 23 22 22 19 21 19 23 28 35 37 36 31 32 35 37 41 42 45 49 49 51 51 51 53 56 53 50 45 48 54 59 67 70 65 62 54 53 54 49 50 46 46 47 42 37 38 41
24 20 22 25 24 20 21 20 20 21 31 35 34 36 30 33 35 35 39 40 43 46 46 48 49 51 52 55 52 56 48 49 54 61 59 55 61 56 49 50 51 52 45 45 42 35 41 47 51
22 23 24 25 22 24 21 18 17 21 19 22 28 31 31 26 30 33 35 35 37 42 47 50 50 54 53 57 57 58 57 48 49 58 57 59 60 57 52 52 52 51 43 44 41 48 50 59 68
24 25 25 27 25 32 21 21 17 15 14 14 17 23 28 30 30 29 30 34 36 40 47 52 52 52 57 64 69 69 69 61 71 64 58 57 58 56 58 51 53 49 42 45 46 51 61 66 54
23 26 34 34 36 36 28 26 18 15 16 18 18 17 22 27 29 30 30 31 35 42 51 55 52 51 68 78 86 82 77 73 78 70 63 60 62 67 65 57 53 45 45 45 50 67 61 61 49
24 24 34 39 38 27 30 26 17 17 18 19 21 22 23 20 25 27 30 31 33 40 48 58 59 62 68 76 89 80 77 87 84 72 68 64 70 67 64 59 53 45 45 55 65 68 69 51 49
28 30 23 35 47 36 21 19 15 16 17 18 19 23 23 22 20 23 26 30 33 39 48 56 57 60 61 74 87 81 79 82 76 73 65 67 71 64 63 58 53 52 57 66 67 60 55 45 48
26 22 33 30 42 38 24 23 15 16 15 16 15 17 21 25 24 26 27 29 33 36 46 56 56 51 56 70 80 82 76 76 75 75 73 72 66 59 56 52 51 56 61 60 72 65 45 44 47
30 29 28 26 31 38 36 24 16 16 15 18 18 18 20 22 26 30 31 34 37 39 44 51 52 49 52 60 64 77 75 75 78 77 74 70 69 68 61 54 53 63 62 60 57 52 44 51 65
19 22 25 37 33 38 46 29 14 16 18 18 17 18 21 25 24 28 35 41 44 46 46 50 50 49 50 54 60 68 75 79 85 84 79 74 73 66 59 51 59 54 46 50 57 58 48 72 62

GFSSGP_sfc_rhum_045.txt.gz
RH
49 25 12 9 12 10 10 8 6 10 11 15 21 22 28 30 33 82 78 53 41 46 48 67 90 90 90 90 89 88 85 82 81 80 79 78 77 76 77 76 75 74 73 70 65 65 67 70 72
14 10 10 10 12 10 9 6 8 8 16 20 26 28 25 35 42 66 78 57 58 54 47 63 92 90 89 88 87 85 80 79 80 79 77 77 77 77 78 80 79 76 74 70 67 66 69 72 75
17 11 12 12 11 10 8 8 7 12 16 16 20 26 30 41 44 54 58 60 74 71 46 68 93 90 88 87 85 81 80 80 79 78 78 78 77 77 79 83 81 77 75 71 68 69 73 77 83
11 11 10 10 10 8 7 8 8 11 12 16 16 26 41 48 53 43 58 72 77 82 66 87 92 90 87 85 82 81 81 80 79 79 78 77 77 77 78 82 81 78 76 74 70 72 74 82 83
9 9 11 12 9 7 6 6 7 15 16 21 21 25 37 63 58 52 62 62 75 77 80 80 91 88 85 83 82 82 82 81 81 79 78 77 77 79 79 79 80 81 80 76 73 72 77 82 82
11 9 11 11 8 7 6 8 13 15 21 26 27 26 65 68 69 84 64 66 68 76 87 91 88 86 85 83 84 85 83 83 82 81 80 79 82 82 80 80 82 82 82 80 79 80 79 78 76
12 11 11 9 9 13 18 21 27 23 22 25 30 34 58 70 92 93 76 76 87 95 95 94 85 86 88 89 89 87 86 85 84 85 87 87 85 83 80 78 80 82 80 79 79 80 80 75 77
9 10 10 9 18 27 17 18 25 27 35 31 32 36 51 76 95 95 96 97 98 98 98 97 95 86 86 85 91 91 91 90 89 88 87 84 81 81 82 79 78 79 80 81 81 81 79 77 77
8 12 12 11 12 14 13 19 22 27 30 35 40 51 65 78 89 92 96 97 98 98 94 95 97 91 85 86 88 88 90 89 87 81 83 73 50 41 52 74 83 82 84 84 83 81 80 79 74
11 12 11 9 10 11 13 18 24 35 24 30 60 65 70 80 82 86 95 97 97 98 97 91 87 83 81 71 75 71 64 60 59 55 62 44 53 43 42 69 86 86 85 85 83 78 76 66 31
11 13 11 10 13 13 15 20 25 28 40 85 50 87 84 85 85 86 89 90 96 95 92 92 86 84 84 85 88 73 56 55 58 60 60 51 49 52 44 51 47 53 60 39 45 44 36 37 32
14 11 11 11 12 16 23 22 29 27 46 49 57 80 86 89 90 87 91 92 93 94 92 92 93 92 91 92 89 83 58 60 60 60 59 62 44 51 46 41 42 45 41 42 39 37 44 41 39
13 12 13 16 17 21 25 25 36 48 50 58 78 84 87 89 88 85 86 87 90 89 91 91 90 88 89 91 86 72 54 56 52 49 48 53 48 52 43 42 41 41 40 41 40 42 39 41 39
13 13 18 18 20 21 24 26 30 43 38 53 58 77 85 88 87 84 83 84 88 83 83 86 89 88 80 74 82 83 80 64 58 49 53 56 44 51 42 46 41 42 40 39 39 39 40 38 35
12 15 17 19 19 21 24 55 29 36 36 38 47 64 66 73 84 79 72 76 87 84 85 89 88 79 66 64 61 55 72 56 58 51 61 53 53 56 50 48 46 43 42 43 41 44 40 36 30
12 13 26 16 18 20 38 85 30 31 34 36 33 48 58 58 71 62 61 56 69 80 72 65 47 50 67 58 49 44 47 46 40 41 48 56 50 50 54 49 48 46 47 44 44 43 40 34 32
14 18 24 22 15 25 21 51 29 27 28 34 30 38 51 46 58 58 55 50 48 52 52 56 61 65 73 65 49 48 47 42 36 40 42 55 55 56 54 49 49 53 46 46 44 43 40 36 30
14 15 14 24 57 17 19 24 25 28 25 31 29 34 45 42 50 52 47 42 40 45 51 53 53 60 69 70 49 43 38 42 36 37 41 52 52 57 57 48 52 53 47 47 46 46 39 32 31
13 14 16 18 13 15 17 15 26 25 28 26 30 31 37 46 46 49 48 46 46 47 49 48 54 55 64 63 48 42 41 38 37 39 44 49 52 56 56 47 53 54 48 49 50 47 45 37 33
15 15 14 13 13 15 15 18 13 21 25 25 24 28 29 31 42 48 46 40 45 43 44 46 47 49 58 60 49 40 38 34 36 40 54 61 56 54 54 53 52 55 48 52 54 49 42 37 36
17 18 21 17 17 14 15 15 14 16 21 23 22 24 27 29 31 40 42 41 40 41 43 42 43 47 48 45 44 41 37 37 38 41 47 63 59 52 54 54 52 53 50 52 54 49 46 39 42
20 14 16 18 18 22 19 29 33 16 21 25 24 23 23 25 26 29 34 41 42 42 41 42 42 42 52 47 48 46 39 41 43 51 57 58 64 58 51 51 54 55 52 52 52 43 44 43 49
18 18 18 19 20 20 17 15 21 13 16 19 22 23 21 22 24 27 29 29 34 41 42 45 42 41 42 45 46 50 47 42 41 45 58 64 57 60 55 54 58 60 53 52 52 46 47 46 56
16 20 20 20 21 33 18 16 28 14 12 11 16 19 21 20 22 24 26 27 28 32 42 47 44 42 42 44 48 52 54 53 55 66 60 54 56 60 59 53 60 63 60 54 48 48 64 60 60
19 24 34 35 35 36 25 18 18 32 11 12 13 13 17 20 21 22 23 26 29 32 39 43 42 40 43 51 63 62 65 70 81 81 73 66 66 66 64 61 66 67 67 59 50 69 69 74 69
22 22 34 66 38 28 22 21 16 13 12 12 13 14 14 17 21 22 20 22 26 31 35 42 41 43 41 58 73 81 73 81 84 91 91 84 82 80 69 71 73 69 65 66 72 67 66 76 71
21 26 20 35 29 32 20 15 12 11 11 12 13 16 17 17 16 19 20 21 23 28 36 45 46 43 43 60 89 89 73 74 78 83 81 86 83 72 71 76 70 67 65 66 63 65 62 61 65
20 18 30 27 42 47 20 19 17 15 13 12 12 13 15 18 17 17 18 21 23 26 33 45 46 46 51 72 71 70 72 71 73 78 81 81 72 69 71 69 65 58 54 63 66 59 52 62 70
22 26 24 22 30 45 38 22 16 13 13 13 14 13 13 14 21 22 22 21 22 25 29 37 44 44 54 60 64 62 61 68 79 83 84 79 76 71 63 60 60 64 67 68 64 60 57 58 71
18 22 22 36 32 32 39 29 14 13 12 14 14 13 14 15 16 20 25 28 30 32 32 38 44 45 42 65 67 66 66 64 83 85 84 82 78 69 61 63 64 69 65 67 64 61 55 59 82

GFSSGP_sfc_rhum_048.txt.gz
RH
52 33 23 19 17 15 14 10 7 7 14 32 33 59 68 44 43 59 75 76 93 94 77 80 91 90 90 90 90 88 86 83 83 82 80 79 80 81 80 79 80 78 70 65 65 65 63 62 67
24 19 14 13 18 18 11 7 7 12 28 23 24 55 54 49 48 60 79 65 75 91 69 81 92 90 90 89 88 86 82 82 82 80 78 79 80 80 80 79 80 77 72 65 65 65 65 67 74
28 14 14 16 17 15 11 10 10 9 16 18 21 18 29 88 80 61 62 71 73 66 64 81 91 88 90 89 86 84 83 82 80 78 79 80 80 81 82 81 79 77 72 66 66 67 69 75 80
16 13 13 16 11 8 8 10 9 8 10 14 21 15 52 61 64 47 59 72 74 66 71 95 94 87 87 86 85 84 83 82 80 80 80 80 82 84 84 83 79 78 74 67 67 70 74 82 78
12 11 15 14 12 10 6 7 7 8 12 33 36 29 68 73 74 67 65 66 76 89 90 91 98 92 87 85 84 84 83 82 82 81 80 80 82 85 85 83 81 81 76 72 70 73 78 80 76
15 12 15 13 11 10 24 31 31 12 11 33 45 56 71 81 80 91 70 77 78 90 90 92 93 91 86 85 86 86 85 85 84 83 82 83 83 84 86 86 86 83 80 80 80 81 80 79 76
14 13 14 12 15 18 32 35 50 41 44 67 57 64 76 79 88 94 83 91 92 95 93 91 93 92 94 92 89 88 87 87 86 86 87 87 84 84 86 87 86 83 82 81 81 81 81 79 75
10 10 12 11 13 22 17 23 37 20 61 63 60 51 76 93 96 95 97 98 98 96 95 95 94 91 84 88 91 90 91 92 91 88 86 85 83 83 84 85 82 81 81 81 82 83 82 78 74
8 13 15 15 17 14 12 14 17 50 29 59 59 76 85 90 88 93 97 98 98 98 96 96 97 92 92 90 88 89 91 90 86 82 82 74 60 60 63 82 84 84 84 83 82 81 79 74 67
10 14 16 10 10 12 12 14 40 77 46 62 64 58 78 73 85 93 96 98 98 98 98 96 92 87 82 86 87 86 79 77 74 68 68 58 65 63 64 82 86 88 86 84 80 78 76 69 52
10 13 12 10 12 12 12 16 17 27 59 63 66 90 80 84 88 90 93 97 98 95 93 93 92 86 83 86 87 86 89 74 74 75 67 70 66 68 74 80 73 83 78 64 67 72 60 54 57
12 10 11 10 12 13 14 20 26 40 74 61 74 80 87 90 88 91 96 96 96 96 91 88 87 84 85 85 86 88 82 72 73 72 72 77 74 68 66 65 69 70 66 63 63 64 64 58 54
12 10 11 13 15 14 16 33 49 50 65 68 76 80 86 89 91 87 90 92 93 96 96 94 93 93 89 87 93 89 78 70 69 68 68 68 72 73 67 67 62 61 61 63 66 65 59 58 53
10 12 11 15 15 18 48 67 66 50 44 59 64 76 84 86 90 90 90 91 88 90 94 93 94 94 92 94 88 92 78 72 64 62 72 68 74 72 69 68 66 65 64 64 63 63 62 61 55
11 13 12 16 17 19 32 46 63 42 36 49 62 68 79 81 80 84 83 87 81 86 88 93 95 93 92 87 93 89 75 68 75 72 71 71 70 69 72 72 71 68 66 65 64 61 63 57 50
14 13 16 15 21 34 35 62 44 36 34 36 58 62 70 64 75 72 83 80 78 81 88 85 83 89 92 93 92 71 62 72 70 72 78 71 70 70 74 75 72 71 71 68 69 66 65 64 56
15 17 18 17 19 23 50 78 66 48 30 31 46 50 59 70 67 65 71 73 78 73 83 85 83 80 82 72 45 52 60 69 63 65 66 73 71 70 75 76 75 74 72 74 68 71 68 63 55
17 16 14 24 24 21 25 56 71 67 26 31 36 47 52 56 56 58 57 64 65 67 69 68 64 65 72 72 50 48 57 57 60 55 54 65 71 73 79 80 77 80 74 74 72 70 65 62 58
11 13 19 20 18 26 16 18 52 58 39 30 33 43 45 51 54 55 52 60 60 60 61 58 58 63 76 77 66 66 60 60 58 55 54 66 65 73 79 81 78 82 75 74 74 72 66 60 55
13 14 15 12 16 15 13 15 38 61 43 26 31 38 42 46 57 52 52 52 56 58 59 62 63 65 69 74 67 60 57 53 52 55 56 68 72 70 73 78 75 79 77 75 76 73 72 70 65
15 16 17 23 17 15 16 15 21 25 21 22 25 29 36 41 53 56 53 53 53 60 62 61 58 58 61 69 62 58 54 56 52 54 70 74 73 72 71 75 78 79 78 80 80 77 73 70 69
18 13 14 17 19 21 18 28 19 17 31 23 23 28 32 32 47 52 54 54 56 54 55 54 53 53 54 63 66 62 52 52 51 59 64 69 76 76 69 70 76 77 82 79 80 70 74 72 75
17 18 19 18 19 21 22 28 18 17 23 23 24 26 30 31 32 47 46 45 45 48 52 53 51 50 52 55 62 64 62 58 59 55 73 75 80 79 77 76 79 83 83 82 79 76 76 74 76
14 18 21 21 23 37 22 20 33 28 32 20 21 24 25 27 29 32 37 40 41 44 50 53 50 48 51 58 60 73 72 64 68 77 82 84 82 80 83 74 81 83 83 82 78 71 70 79 75
17 23 38 41 43 45 19 22 26 24 23 17 19 21 24 24 27 29 32 33 39 46 52 53 53 50 52 62 62 65 73 74 74 77 88 96 99 98 88 81 83 87 82 80 74 76 84 79 82
22 23 43 68 72 53 32 27 18 17 13 12 12 14 20 23 26 27 29 33 33 40 49 54 52 53 50 57 69 70 67 80 80 80 96 94 93 91 88 90 86 88 79 78 83 85 87 86 87
22 28 22 51 48 58 40 30 19 14 12 12 13 14 19 18 24 25 26 31 34 36 43 52 49 49 49 57 72 77 77 82 86 92 91 94 92 92 90 92 85 80 76 78 82 87 83 83 83
19 18 33 30 56 59 24 19 20 18 14 12 12 16 19 21 22 23 24 28 29 34 40 49 50 47 48 53 75 71 72 82 84 88 91 90 91 89 87 84 80 77 73 78 83 85 81 74 74
21 24 31 28 31 55 55 33 41 23 16 15 17 15 21 22 25 26 25 26 27 29 35 46 48 47 53 57 75 79 77 77 84 89 89 90 91 81 80 78 76 72 72 82 83 76 70 69 79
19 23 26 42 42 45 71 39 18 22 16 16 16 15 18 21 20 26 28 30 30 32 35 47 50 50 68 70 76 77 78 79 90 93 94 94 84 79 75 74 73 72 81 81 79 70 63 83 90

GFSSGP_sfc_rhum_051.txt.gz
RH
70 47 55 38 44 35 32 22 16 15 15 37 43 40 46 51 50 80 85 85 86 81 86 83 89 91 90 90 90 87 85 84 82 81 82 84 84 84 83 77 74 73 70 62 58 60 62 64 69
44 31 39 37 34 40 28 17 16 26 28 43 42 46 46 54 63 82 85 84 77 78 71 88 89 90 90 90 88 85 83 83 81 80 83 84 83 83 83 76 75 74 71 61 57 59 65 70 75
45 31 33 31 37 34 26 15 12 24 22 26 27 35 55 74 61 70 77 71 79 80 78 84 90 89 90 89 86 84 84 82 80 81 82 82 81 82 83 78 76 74 70 61 58 63 69 74 77
32 29 28 31 30 22 22 32 37 16 14 30 34 66 75 76 75 64 71 70 91 86 82 91 92 85 90 88 86 86 84 82 81 81 82 82 82 82 83 80 76 75 70 62 61 66 71 77 76
36 32 34 36 28 19 34 35 33 35 28 55 43 66 81 70 76 91 87 83 96 96 96 93 92 88 94 92 86 85 84 84 83 83 84 84 84 84 84 82 78 76 73 68 67 69 75 76 73
30 28 36 31 22 25 36 43 28 26 51 53 64 66 68 66 88 92 93 93 95 97 96 96 95 90 97 97 89 86 86 86 85 86 87 88 87 86 86 85 80 80 79 80 78 78 76 73 70
29 31 30 24 16 23 30 39 30 33 69 72 59 68 72 76 91 96 90 97 97 96 96 97 97 96 98 95 92 90 88 88 89 88 88 90 91 90 89 86 84 84 83 82 80 79 76 71 69
23 24 23 19 19 27 24 25 32 48 73 62 63 88 93 89 94 98 98 98 98 98 97 96 96 95 94 94 94 94 92 92 90 88 88 89 91 91 89 87 84 83 82 81 80 80 74 68 63
21 24 25 20 20 18 17 28 47 45 64 71 62 71 85 90 89 96 98 98 98 98 98 95 94 92 92 88 92 91 90 89 86 84 84 83 82 82 79 84 85 84 83 82 81 78 72 68 60
22 27 20 14 19 19 17 20 51 56 52 57 63 69 88 91 89 96 98 98 98 98 99 96 94 92 88 86 92 92 85 83 79 74 70 64 74 77 78 85 87 85 83 81 80 77 72 66 55
17 20 15 14 18 17 20 53 55 70 74 64 72 87 88 92 93 96 98 97 97 98 97 95 93 92 86 90 87 88 92 80 73 72 70 73 75 79 83 84 87 90 84 78 78 76 64 59 63
19 14 13 14 20 19 48 54 68 73 87 79 91 88 89 94 95 95 97 97 97 96 96 91 90 90 91 69 76 87 89 77 79 75 75 77 84 72 78 76 78 76 80 69 69 70 68 64 54
18 15 15 14 20 33 44 57 68 63 76 78 79 87 92 92 94 92 95 95 94 95 91 89 89 92 92 92 92 91 92 76 76 86 80 70 74 76 70 73 71 69 75 68 72 72 65 59 55
18 16 15 14 24 35 45 60 50 64 68 73 72 85 88 91 92 96 94 96 95 95 97 93 93 92 89 92 83 88 90 70 76 74 72 75 77 86 75 75 71 77 68 71 73 68 64 62 56
19 22 17 15 22 46 46 51 52 63 52 72 83 77 85 88 87 92 89 92 93 93 92 91 89 86 85 88 86 87 91 74 77 67 71 72 72 73 77 89 86 88 78 72 68 70 68 67 59
23 23 27 16 26 42 39 61 42 49 54 78 80 83 88 89 83 86 82 83 87 88 90 86 80 89 87 88 91 79 72 77 73 73 77 70 71 75 79 86 85 91 77 73 73 74 73 68 63
31 31 26 19 36 46 53 76 44 54 51 68 79 82 79 82 83 85 79 82 83 82 84 87 88 87 86 82 75 69 74 77 75 73 74 72 72 74 77 83 84 80 78 78 73 73 72 74 65
33 28 22 32 28 39 64 66 54 54 59 64 71 82 83 86 86 86 84 82 77 78 82 85 84 81 82 83 66 72 70 75 77 75 72 78 74 76 84 87 90 89 81 79 82 77 76 70 61
23 21 19 19 24 28 54 57 56 60 67 64 64 78 78 75 73 81 79 82 82 86 83 82 82 74 76 81 67 62 61 68 72 74 64 72 77 81 83 92 86 92 83 81 79 79 71 64 60
23 24 21 22 21 32 50 60 59 62 68 51 59 67 67 68 71 69 76 79 78 81 78 76 73 71 69 84 50 50 61 70 66 65 67 68 77 79 87 90 90 90 90 86 84 76 76 69 65
23 23 24 29 25 23 27 65 63 52 54 53 50 54 59 67 71 67 74 73 70 74 71 64 61 62 63 77 69 59 63 69 71 73 66 67 76 82 85 87 92 93 95 92 87 81 71 73 75
23 18 24 26 30 34 28 42 56 51 60 59 42 51 53 68 62 60 66 71 66 66 65 61 56 55 59 70 72 66 72 66 60 64 72 85 80 82 82 84 87 91 94 92 92 83 80 72 68
22 24 29 30 33 38 33 41 33 46 60 62 46 49 47 63 63 59 56 61 61 61 62 63 59 58 60 68 68 78 81 63 64 58 77 82 92 90 89 91 94 91 89 93 91 85 79 81 80
21 29 30 33 38 56 33 36 43 34 32 40 36 39 44 47 61 58 53 52 54 58 64 64 64 64 62 65 66 74 83 79 68 76 73 91 95 96 93 94 95 92 96 94 90 83 81 84 82
24 34 56 74 68 66 37 37 41 31 30 29 31 35 37 42 53 59 59 58 55 56 59 61 62 63 60 63 63 72 84 79 71 88 80 93 94 98 97 96 96 96 94 89 86 83 85 86 89
30 33 67 80 90 71 45 46 33 26 26 24 23 27 31 36 43 56 54 54 54 54 53 57 58 58 57 62 66 66 71 81 84 86 94 90 91 93 93 95 93 92 91 86 85 89 90 91 94
32 40 33 66 74 80 58 43 27 24 21 19 18 19 31 33 34 41 46 48 46 49 50 56 54 53 55 61 69 70 73 73 83 92 95 93 96 96 96 96 94 90 84 83 87 89 91 89 92
23 27 43 60 82 97 50 49 42 36 21 17 19 23 27 30 32 34 36 40 41 44 47 54 54 56 54 63 73 68 68 92 94 96 97 96 96 96 96 96 93 84 81 83 85 87 86 86 89
32 31 36 45 62 69 67 53 45 30 28 20 20 21 26 30 29 40 36 38 35 36 46 56 62 70 64 61 61 72 80 93 94 95 96 96 96 96 96 93 85 82 82 84 84 83 82 84 90
23 30 35 70 59 71 81 60 27 27 24 24 20 20 21 32 31 32 36 42 46 41 60 65 68 81 73 69 75 80 88 93 96 97 95 96 97 94 90 85 82 79 81 85 83 82 74 82 91

GFSSGP_sfc_rhum_054.txt.gz
RH
69 57 52 39 40 41 44 28 24 21 20 36 45 46 45 63 73 83 88 84 84 87 84 88 95 92 91 89 88 86 84 83 82 83 86 86 82 79 79 77 74 70 67 64 65 66 67 70 73
47 36 40 44 41 46 37 25 22 17 18 43 42 46 58 74 67 87 80 75 87 85 84 86 93 92 90 89 87 85 82 82 83 84 86 86 81 79 78 77 74 69 66 65 63 67 67 67 74
39 30 36 43 44 43 36 24 23 28 33 35 35 69 72 76 63 70 74 81 84 83 81 88 90 92 93 89 86 84 82 82 84 85 85 86 80 79 79 78 74 69 66 64 66 66 66 72 76
35 33 34 36 37 29 26 20 27 33 38 50 44 72 82 72 81 76 72 83 84 85 86 82 87 91 92 89 86 84 83 84 85 84 84 85 80 80 80 78 74 69 66 64 66 66 68 73 76
41 37 38 46 35 27 21 33 30 56 56 57 56 60 75 77 83 87 90 86 90 94 92 91 90 86 88 92 88 85 85 85 85 84 84 85 82 81 80 78 75 72 70 66 66 67 74 74 78
36 38 45 48 34 21 22 33 44 59 54 56 63 71 65 74 93 95 94 97 95 97 95 93 89 82 96 96 94 90 87 86 86 85 84 85 85 82 82 81 79 79 80 77 75 75 74 73 74
36 36 40 34 25 20 26 37 49 68 71 68 63 74 72 74 94 93 97 98 98 98 97 93 93 94 96 95 95 92 90 90 89 88 87 88 89 87 84 84 84 83 81 78 76 75 72 72 72
30 31 38 30 25 22 23 33 50 55 76 63 63 74 84 94 94 97 96 98 99 98 96 96 96 97 93 94 91 87 93 92 93 94 94 94 92 89 87 85 84 82 80 77 75 72 70 71 71
23 35 36 28 19 21 32 36 53 57 70 70 64 71 77 94 91 97 98 99 99 99 98 97 96 95 94 92 89 82 90 90 91 92 93 92 91 88 79 84 84 82 81 77 75 74 74 68 72
27 34 28 20 18 33 61 60 62 60 61 63 66 77 92 93 91 96 95 96 98 98 99 97 93 92 90 85 86 90 87 84 83 82 83 83 88 83 81 85 85 83 80 78 75 74 70 64 62
25 26 17 16 15 29 59 70 64 57 65 85 97 94 90 92 93 96 98 96 97 98 98 96 96 95 90 88 82 88 85 77 74 71 75 80 84 87 86 83 83 83 81 77 72 68 62 61 61
23 16 16 15 21 40 53 60 73 70 82 86 90 88 90 94 96 93 99 98 98 98 96 94 94 94 92 85 87 86 77 71 72 71 82 82 82 77 80 80 85 78 76 73 73 71 70 63 56
24 20 18 18 42 52 49 58 66 84 90 88 86 88 92 92 94 94 97 96 97 97 95 91 91 92 90 86 95 91 82 69 78 85 81 70 73 78 75 77 81 77 76 72 72 74 70 60 57
26 24 23 18 44 42 48 59 54 61 77 81 90 95 90 92 93 96 96 97 95 94 92 92 91 94 89 90 90 92 87 75 81 78 74 79 74 81 76 81 76 77 76 71 74 73 68 62 55
23 26 23 22 39 48 51 58 58 66 78 84 91 95 92 88 88 93 93 96 95 94 91 93 94 91 87 88 89 91 83 69 70 76 81 81 76 77 84 92 92 89 79 74 76 74 70 66 58
27 32 33 23 42 46 52 54 50 72 82 93 94 92 94 84 84 85 90 93 94 94 92 90 86 88 86 82 80 71 77 83 70 77 80 80 76 78 85 91 94 95 91 82 77 77 76 71 69
40 38 34 28 28 46 48 56 56 58 57 92 94 97 96 93 90 84 82 87 90 90 92 92 89 83 83 84 72 74 74 77 75 69 73 74 76 81 81 89 92 92 89 83 74 80 75 77 73
39 38 43 29 39 51 58 59 56 63 72 86 95 95 95 96 96 91 80 82 83 78 80 80 86 79 82 80 71 72 76 74 77 70 75 76 77 76 85 88 94 93 90 85 81 77 84 77 73
31 32 33 25 24 43 52 54 51 62 69 90 95 92 94 96 92 89 81 82 82 84 84 80 83 84 83 79 73 72 73 71 73 76 73 73 81 77 82 93 95 95 93 89 84 83 80 72 69
32 34 33 23 25 27 55 53 62 62 68 70 82 93 92 91 95 89 91 85 86 87 85 80 79 79 77 78 67 65 64 73 78 74 74 76 81 83 87 92 94 92 93 87 89 83 82 75 68
33 36 31 25 26 31 47 54 71 59 59 55 64 79 80 83 91 91 88 90 86 87 90 86 82 74 74 83 70 66 70 80 80 81 79 76 80 83 87 91 94 95 94 91 93 88 80 75 72
37 26 24 27 33 36 30 43 62 62 60 59 61 72 72 78 76 82 85 86 86 86 80 78 77 72 70 75 76 57 54 57 61 76 73 74 82 85 84 87 94 96 95 94 93 92 89 81 77
32 28 27 30 38 43 38 43 38 57 63 60 59 63 67 70 73 76 79 78 77 77 77 73 70 69 64 64 76 70 69 64 69 78 77 74 91 86 84 88 95 96 95 93 95 94 92 88 84
24 31 35 41 44 57 41 41 48 67 50 53 48 53 61 68 69 68 68 68 72 72 72 68 66 66 62 61 73 77 76 77 78 81 82 84 84 94 92 88 94 96 95 95 96 96 94 88 83
29 36 56 60 71 65 42 50 44 41 41 46 46 50 52 65 68 67 67 69 68 68 69 69 63 62 60 60 67 71 75 76 82 82 80 82 88 97 94 91 94 94 96 95 95 94 93 87 90
33 36 61 65 87 70 52 53 34 29 31 37 40 39 44 52 65 64 62 62 64 64 64 66 66 60 58 61 68 68 66 74 82 83 84 83 85 88 93 94 95 97 97 96 95 94 91 90 93
34 40 38 66 77 80 63 48 33 30 27 28 38 36 41 49 54 63 60 58 58 62 66 66 64 62 61 64 70 72 73 72 83 84 89 90 88 95 96 95 97 96 95 93 89 89 90 89 93
28 29 49 65 75 78 67 54 45 36 25 22 27 33 38 40 46 53 59 61 56 56 63 70 64 65 63 66 68 70 70 75 76 91 90 92 96 97 96 97 97 96 94 91 87 89 90 89 91
35 37 43 49 66 71 73 52 46 38 31 25 21 26 34 38 40 46 53 56 55 55 62 66 70 66 66 66 66 70 73 78 95 92 94 97 97 98 97 96 96 95 92 92 87 87 87 87 93
30 33 39 60 62 70 79 53 34 32 26 25 23 24 33 35 36 36 41 49 52 54 58 61 64 67 65 64 64 75 78 91 95 98 98 97 97 96 96 95 95 92 90 89 87 85 85 89 91

GFSSGP_sfc_rhum_057.txt.gz
RH
71 70 56 38 35 46 57 34 30 24 22 32 50 47 55 77 82 74 88 89 91 94 91 87 88 88 87 86 85 85 83 84 84 85 83 82 82 81 77 74 74 74 73 69 70 70 70 73 76
48 43 38 40 44 46 36 29 25 23 32 50 46 57 64 74 69 90 92 84 87 85 88 85 88 85 86 90 87 84 82 84 85 84 82 82 81 79 76 74 74 75 73 68 67 68 70 74 78
40 30 34 47 48 44 38 28 23 22 44 45 48 78 75 69 69 81 77 80 90 87 91 85 83 82 84 89 87 84 82 85 85 84 81 81 80 78 75 73 74 73 72 66 64 64 70 80 80
37 33 35 42 43 34 29 23 23 44 39 52 58 80 87 73 82 80 77 81 88 89 92 90 87 80 88 82 86 86 85 86 86 84 81 80 80 78 75 72 73 74 72 64 61 67 76 80 81
43 40 42 48 40 30 26 25 34 57 58 55 60 61 80 84 78 89 87 84 88 91 87 91 90 86 84 88 87 88 88 88 87 85 81 81 80 79 76 73 74 75 73 67 65 75 80 81 80
37 39 47 51 38 26 22 34 49 58 55 55 65 71 68 82 92 93 94 95 92 91 94 91 90 87 87 87 91 87 89 88 88 86 82 82 82 81 79 78 78 78 76 74 72 79 80 80 78
38 41 48 43 33 26 24 43 56 63 71 68 70 79 76 80 96 92 96 96 98 97 97 95 90 90 94 94 92 90 87 87 86 86 84 85 85 84 82 82 80 76 73 72 71 74 77 78 77
33 36 52 37 30 25 26 42 56 64 67 67 67 71 88 95 94 96 98 96 98 98 98 97 97 96 95 96 92 89 88 88 85 86 92 91 89 87 85 82 78 75 74 73 72 75 80 81 80
28 38 44 35 28 22 44 43 58 64 74 74 69 77 91 93 90 97 98 98 99 99 98 98 98 96 95 92 85 83 86 96 92 95 95 92 88 87 82 81 80 78 79 78 75 73 78 80 79
31 39 32 25 21 23 59 60 54 62 64 67 74 89 96 93 91 94 94 99 99 99 99 98 97 96 92 85 82 82 86 92 92 91 93 91 92 83 81 83 82 80 80 78 77 75 70 66 76
30 28 22 17 18 35 65 73 65 68 68 80 87 92 97 96 95 95 94 96 98 98 98 98 94 90 85 83 92 78 91 95 96 94 91 91 90 85 82 81 81 81 77 69 65 66 66 56 64
26 20 18 18 20 53 59 63 70 70 80 88 92 90 96 97 92 94 98 98 98 98 98 96 93 95 89 79 78 79 86 84 93 92 87 90 88 80 82 83 88 79 76 71 69 73 66 61 57
24 25 24 23 40 51 54 56 65 97 96 94 95 96 96 97 94 96 97 98 98 98 98 98 95 94 90 85 86 94 85 81 85 92 88 81 75 79 86 85 83 76 75 70 70 73 66 64 56
27 27 26 24 48 51 48 60 65 79 92 98 97 92 95 92 95 97 97 98 98 97 96 97 97 95 92 93 95 94 90 85 86 84 79 76 75 80 77 81 76 78 72 71 74 76 68 64 53
28 29 27 31 48 44 52 55 64 68 88 95 98 98 84 91 90 93 93 97 96 95 97 94 95 90 91 94 95 93 86 75 76 73 78 76 75 74 79 90 90 88 80 72 79 77 72 67 55
30 37 37 29 43 43 48 52 52 85 92 96 97 99 85 79 88 91 89 92 95 96 93 93 93 88 90 90 91 76 80 77 74 76 79 83 79 74 83 89 91 91 89 81 84 82 79 72 67
43 36 39 30 32 48 53 54 58 92 89 97 98 98 97 97 95 93 87 90 94 93 95 96 94 87 81 82 78 77 78 78 79 85 83 82 76 78 80 87 92 93 95 91 85 85 81 78 75
38 42 55 35 35 58 68 57 58 69 69 94 98 99 99 98 97 94 84 86 89 91 91 94 92 94 85 84 89 86 76 76 78 77 79 85 84 85 88 92 94 94 96 96 88 82 84 80 76
36 39 39 32 26 43 50 56 53 73 89 97 97 99 98 98 95 95 81 84 85 83 85 86 93 93 91 72 86 80 77 73 73 77 71 77 83 84 90 94 95 95 93 90 85 86 85 84 78
37 40 40 33 27 41 40 42 55 68 76 91 94 97 95 97 98 96 81 85 88 85 84 83 83 86 84 73 60 65 67 69 72 71 72 72 79 82 86 92 96 95 94 91 93 88 89 85 75
38 42 41 40 31 41 52 42 70 56 64 68 83 90 90 92 98 94 85 88 87 89 85 83 80 76 73 72 72 70 64 68 75 74 78 76 76 80 87 91 95 96 95 92 93 92 88 90 81
42 33 34 32 36 41 36 47 37 64 60 67 69 90 93 91 92 96 88 92 91 85 84 81 82 80 79 80 77 69 60 56 71 78 78 76 80 82 87 90 94 95 95 95 92 92 92 92 86
39 37 36 35 40 45 44 46 38 70 62 53 63 76 87 84 88 95 94 94 87 84 95 89 84 78 74 81 82 78 77 69 69 79 82 84 86 88 89 92 94 95 96 95 96 98 95 94 94
29 37 43 51 48 60 43 44 50 70 56 43 53 64 74 77 82 83 86 86 88 90 93 91 87 82 74 76 85 87 77 78 80 84 92 90 90 92 92 92 93 94 96 97 98 97 96 96 97
36 41 58 58 69 66 47 55 46 38 43 38 45 55 65 68 77 79 86 87 83 88 89 85 83 82 76 73 72 82 85 78 76 78 87 90 93 94 92 93 96 94 94 96 96 96 96 98 96
37 40 63 61 78 60 57 60 42 33 29 37 41 44 54 66 67 74 74 77 77 78 81 81 77 77 73 74 71 70 76 79 75 75 83 92 89 88 92 95 94 93 97 98 98 98 98 96 95
38 47 38 65 82 85 65 51 38 31 31 45 53 50 53 62 66 68 70 69 70 73 75 77 73 70 68 70 71 68 70 72 74 78 82 88 92 90 94 94 94 96 97 98 98 98 97 96 94
31 34 53 66 80 81 64 62 52 41 31 32 39 53 49 49 61 66 65 68 67 66 70 73 69 65 62 63 64 62 65 71 66 73 83 92 92 97 98 98 97 97 98 98 98 97 95 93 95
39 42 47 52 67 68 73 60 48 41 37 30 26 32 46 47 52 60 64 62 63 64 70 74 71 68 66 63 60 61 65 71 74 78 81 94 95 94 97 97 97 98 99 98 96 95 92 90 92
31 39 42 61 61 75 80 49 35 38 38 34 28 24 36 45 44 48 55 61 62 62 67 72 77 74 70 64 62 66 68 72 78 81 89 94 96 93 93 94 97 98 98 97 96 94 86 88 93

GFSSGP_sfc_rhum_060.txt.gz
RH
72 73 55 36 32 44 57 40 35 28 26 25 44 51 49 65 64 64 94 90 94 93 91 90 90 88 88 88 86 86 85 85 84 84 84 83 82 78 77 77 76 75 73 68 68 70 70 72 74
53 49 40 41 40 45 36 34 28 24 24 49 54 63 65 73 71 93 94 86 91 91 90 88 89 88 87 88 86 86 85 85 84 84 83 82 79 77 78 77 76 75 74 69 67 71 73 75 77
41 32 35 43 50 44 39 29 24 24 28 53 60 81 85 69 71 88 81 83 93 92 89 87 85 82 83 86 86 86 86 86 84 84 82 80 77 77 78 78 77 76 73 69 71 73 76 78 81
38 34 35 45 58 36 30 26 25 29 46 56 64 72 90 81 82 83 87 82 92 96 90 89 87 85 80 79 86 86 87 86 84 84 82 80 77 77 78 77 76 74 72 69 72 77 79 82 80
42 40 44 53 44 35 30 26 27 49 56 58 65 63 85 84 80 89 94 85 90 93 95 94 90 88 85 84 83 85 87 86 84 83 82 79 76 77 77 78 75 72 70 70 77 77 81 81 80
37 40 47 48 39 30 27 24 39 56 57 60 70 68 64 87 89 93 93 93 92 95 95 96 85 88 86 83 80 80 82 84 84 83 82 79 76 77 78 78 76 74 78 80 82 82 80 80 79
37 42 50 48 38 31 22 50 54 62 75 66 70 76 73 77 92 93 94 97 96 96 97 97 91 88 91 85 84 84 86 83 84 84 83 82 83 81 81 81 76 76 82 82 82 80 79 79 78
36 38 60 44 36 28 26 44 62 66 60 68 72 77 82 92 93 96 96 95 97 98 97 97 96 92 94 95 89 87 86 85 86 87 88 91 88 84 81 76 74 74 76 80 81 80 78 79 80
32 40 47 40 32 23 32 42 58 66 75 78 71 79 94 90 86 91 96 97 97 99 98 98 97 94 93 88 88 87 86 78 87 88 92 92 89 89 82 75 76 77 77 80 82 82 81 80 80
33 41 34 29 26 22 22 56 56 66 70 71 77 91 94 94 91 92 95 97 98 99 99 99 98 98 96 93 89 81 79 74 76 88 90 92 94 88 79 80 79 76 77 78 84 85 84 82 88
33 30 25 21 22 22 32 76 66 72 66 66 75 84 91 91 96 94 94 93 98 99 98 98 97 97 97 96 91 78 71 86 79 92 93 91 92 89 88 81 80 74 74 61 64 66 67 78 82
30 24 22 19 25 43 60 65 70 60 58 81 91 90 94 92 88 94 95 95 98 98 98 97 98 98 95 78 79 76 66 77 95 94 91 88 88 89 92 84 88 80 76 72 71 66 69 73 74
25 25 26 24 29 48 56 60 67 86 91 94 97 95 97 90 94 95 96 98 98 98 98 98 96 92 86 78 74 86 79 86 94 94 90 80 81 83 87 82 77 79 75 75 72 67 63 65 66
29 28 29 27 37 50 54 62 68 62 93 99 93 90 84 90 91 96 97 98 98 98 98 97 93 94 90 82 93 97 90 92 96 96 94 82 78 84 74 79 78 78 74 72 72 66 68 61 55
32 34 29 27 44 50 55 58 69 66 96 99 98 98 88 86 91 94 94 98 95 98 97 98 97 93 89 85 97 92 84 89 96 96 93 83 83 82 82 85 88 87 75 77 79 73 69 64 52
35 37 39 28 49 51 51 53 50 89 97 98 98 91 81 83 80 90 93 94 94 95 96 96 97 96 96 94 96 88 86 89 89 93 86 81 79 79 85 89 87 91 85 83 84 79 74 68 61
41 42 38 30 38 55 58 54 61 93 96 96 98 98 86 92 98 89 90 90 95 93 95 98 95 95 95 95 92 90 85 82 89 85 79 83 76 81 79 84 89 91 92 87 84 87 79 75 72
45 46 54 39 38 54 66 59 61 95 98 95 96 98 94 98 96 92 90 90 93 95 96 96 95 94 92 92 91 88 82 86 85 85 80 83 76 80 82 91 91 93 94 94 91 88 87 80 76
34 42 43 35 31 39 38 51 41 66 95 90 94 97 98 98 96 94 90 87 92 93 94 92 94 96 90 85 88 92 90 79 80 79 83 84 87 88 90 93 94 96 95 93 89 88 86 84 78
39 45 41 35 32 37 41 44 47 72 83 86 89 95 98 99 95 90 79 87 88 91 88 89 85 90 93 88 72 83 85 76 74 76 76 79 86 88 92 94 94 95 96 93 92 88 94 89 82
42 45 44 40 38 38 54 48 47 55 68 83 91 91 94 95 92 88 82 85 89 88 89 86 84 85 87 86 84 70 69 86 74 75 74 75 75 83 88 92 96 96 95 94 95 91 88 92 90
43 36 36 39 42 49 46 61 38 44 60 73 76 94 94 94 96 86 82 84 86 86 83 82 80 77 74 79 80 71 64 78 71 71 71 74 77 82 82 90 93 95 97 95 94 93 92 92 92
33 37 40 42 48 50 47 50 41 70 50 52 66 77 90 93 94 96 91 84 81 84 83 81 85 76 72 77 70 78 82 70 74 76 76 76 85 86 88 91 93 95 97 96 95 96 96 95 95
32 39 45 55 53 66 47 47 53 45 44 44 50 60 77 92 93 94 93 93 95 95 93 85 91 83 80 84 82 80 80 78 75 78 88 88 90 91 91 92 94 95 96 96 96 97 98 97 93
39 45 62 62 73 70 48 55 43 38 36 42 40 52 67 83 90 95 98 98 96 98 97 96 91 90 82 85 84 84 85 83 78 81 86 90 92 94 93 93 95 97 95 95 96 97 97 97 96
44 42 66 64 73 58 60 66 44 38 35 34 40 44 71 83 82 87 90 93 92 92 96 93 94 91 86 83 84 85 86 82 78 81 90 94 93 93 90 93 94 95 94 95 96 97 97 98 97
41 50 40 67 85 85 65 50 38 31 31 35 51 55 66 80 78 80 82 84 85 86 90 92 88 86 85 85 83 81 82 87 87 87 88 87 94 94 92 93 94 95 96 97 98 98 99 99 99
35 38 57 68 78 84 66 68 47 36 33 33 41 58 59 69 75 74 76 80 78 76 80 86 83 81 79 80 80 77 76 79 79 84 84 81 79 94 94 94 95 96 97 98 98 99 99 99 99
41 45 52 55 68 65 68 63 51 39 38 40 34 36 54 61 68 71 71 72 71 72 78 82 83 80 79 77 74 75 77 77 79 79 79 82 83 92 93 94 95 96 97 98 98 99 98 97 98
36 44 44 62 61 76 77 47 36 38 38 40 38 30 29 50 57 63 70 72 74 71 75 79 80 79 76 73 69 73 75 74 75 77 76 82 85 91 89 89 92 95 97 98 98 98 97 96 97

GFSSGP_sfc_rhum_063.txt.gz
RH
52 46 32 23 20 23 24 23 23 20 19 17 39 35 37 47 42 46 75 87 78 77 71 75 90 90 89 89 89 88 87 86 85 85 87 85 83 80 79 77 75 74 71 66 66 67 69 72 74
38 35 26 25 21 22 19 22 21 17 16 35 45 50 46 43 62 71 88 83 76 75 70 74 91 89 88 88 88 87 86 85 85 85 85 83 80 80 78 77 76 74 72 66 66 67 70 76 78
29 24 22 24 27 22 21 20 17 17 16 29 38 60 50 47 57 74 68 78 88 76 74 78 90 89 88 88 88 86 86 86 85 85 83 81 80 80 79 78 76 75 73 68 68 69 73 79 82
25 22 24 26 25 24 21 17 19 18 31 40 46 56 66 69 61 64 69 83 94 90 82 90 90 85 88 88 87 87 86 86 85 84 81 80 80 80 79 78 76 74 71 72 70 72 77 82 81
26 24 26 27 26 25 22 20 20 22 38 44 47 40 59 70 67 72 78 85 92 89 79 80 91 89 84 87 88 88 86 86 84 82 80 80 81 81 80 79 78 76 76 76 74 73 78 81 80
24 26 27 24 23 22 20 19 23 34 40 44 49 46 46 66 64 72 76 82 92 88 82 79 82 88 86 82 82 89 87 86 84 82 80 81 81 81 80 78 76 76 81 82 80 79 79 79 79
26 25 24 27 26 24 18 30 38 35 44 41 51 52 56 55 70 79 80 81 89 91 92 90 83 88 89 87 77 85 87 86 85 83 80 81 80 81 80 77 79 80 84 83 80 81 80 79 79
24 24 31 28 25 20 16 29 37 36 36 58 57 52 57 74 75 82 87 86 86 92 92 87 90 88 90 84 90 86 85 88 86 84 82 83 81 83 83 81 84 84 85 82 80 81 80 80 81
22 26 27 26 26 18 17 27 42 49 49 59 57 61 67 75 76 82 88 92 94 98 90 93 96 92 89 85 87 87 83 85 87 87 88 84 71 71 63 70 85 85 83 80 80 81 82 82 82
22 27 24 21 20 17 16 21 24 46 53 55 60 64 77 78 80 82 83 91 93 96 98 98 97 97 94 89 88 89 86 85 84 85 81 76 79 69 52 70 84 84 84 82 81 82 83 65 50
25 23 22 18 18 17 18 35 40 46 45 48 54 61 75 83 81 88 87 84 94 96 98 98 98 98 97 95 96 95 97 94 86 88 81 77 70 71 61 61 59 68 74 60 64 64 50 56 52
23 20 18 15 18 23 24 39 52 52 46 62 64 69 78 83 80 89 90 89 92 97 96 98 96 96 97 97 95 91 74 88 92 91 78 73 71 68 68 55 56 56 55 64 61 55 60 59 55
22 18 19 17 21 25 42 40 43 54 59 76 78 82 83 81 82 86 90 94 94 96 97 97 95 96 97 95 94 96 78 84 91 88 77 68 66 70 62 61 51 49 53 54 58 56 55 57 57
22 20 20 22 21 31 39 40 47 42 70 85 84 80 76 80 84 84 87 96 97 97 98 98 96 94 90 90 89 88 84 86 93 88 79 70 70 72 65 59 54 53 49 47 50 52 53 50 52
24 26 23 21 21 29 41 38 48 46 74 88 83 82 77 73 81 83 81 92 96 97 97 98 97 89 86 81 91 93 88 82 91 85 79 72 71 71 63 59 57 62 62 56 52 53 50 46 44
25 28 28 19 36 40 38 29 30 56 73 90 87 86 75 72 74 79 80 87 88 96 96 97 92 91 84 92 96 88 89 84 86 94 78 72 68 67 69 65 66 67 66 54 52 51 47 44 40
33 28 28 22 27 39 39 31 35 72 72 70 79 85 79 72 70 78 80 79 90 94 96 97 92 91 86 93 95 93 91 86 88 84 86 74 69 69 65 61 72 70 72 67 58 58 54 50 46
33 33 32 28 29 35 38 36 28 59 72 64 69 80 84 81 76 77 77 80 89 95 95 95 93 91 88 96 91 94 94 84 91 84 76 69 67 71 70 68 75 72 71 74 65 69 63 57 54
28 29 28 25 22 26 30 31 26 36 69 70 70 74 86 85 77 78 75 80 91 97 95 93 96 97 93 97 94 95 95 78 80 84 78 72 70 70 72 74 75 75 74 75 78 77 72 67 65
29 30 30 27 27 27 27 28 24 38 46 58 59 65 77 85 84 81 74 83 88 91 91 91 90 92 92 90 82 78 82 75 78 78 74 69 76 70 69 72 78 75 79 80 78 77 76 67 66
33 33 34 28 30 28 33 30 26 30 47 56 57 53 64 80 86 82 78 79 83 84 87 86 86 88 90 86 86 85 80 84 74 76 70 73 74 73 75 77 85 86 85 87 83 80 78 77 73
37 31 30 31 29 34 30 37 30 24 31 47 48 62 65 72 74 73 74 76 80 78 78 79 81 84 88 86 85 82 69 76 73 73 66 74 76 75 74 81 89 88 86 86 87 83 79 76 73
26 32 33 32 34 39 35 34 28 34 29 24 31 50 59 68 73 73 72 71 71 72 76 77 79 74 82 80 75 73 75 69 76 75 72 70 75 74 72 80 79 84 80 82 82 83 82 78 76
28 31 38 43 42 52 36 34 29 29 26 26 27 37 52 63 72 70 68 69 72 74 75 76 77 72 75 79 76 75 75 75 76 78 78 79 77 82 77 74 79 80 80 81 81 81 82 82 81
30 35 45 53 59 51 39 40 29 27 24 27 27 26 44 58 69 74 81 77 78 80 77 76 73 72 72 76 74 73 69 70 70 72 71 74 73 75 76 74 79 78 76 77 77 81 83 84 89
36 32 50 54 56 43 45 44 26 28 26 28 27 29 36 58 64 71 74 75 78 84 76 76 75 75 72 73 69 67 66 64 62 64 64 67 66 64 66 69 70 71 73 76 79 81 82 85 97
40 42 33 54 66 58 44 41 30 24 23 24 24 37 43 56 61 65 69 72 72 75 79 80 76 75 73 74 74 71 69 67 64 66 69 68 68 68 69 68 68 69 73 76 77 81 83 91 94
32 32 42 51 54 59 48 48 33 28 24 25 28 28 40 50 59 62 66 71 69 68 73 79 75 73 72 72 72 69 69 70 67 68 71 67 67 66 67 68 68 67 70 73 78 82 86 91 94
34 37 42 40 51 49 48 41 42 32 30 30 33 30 29 42 53 58 60 63 65 64 69 76 74 72 72 71 71 72 71 72 72 73 73 72 72 68 68 66 66 66 68 78 86 92 95 96 94
29 34 38 50 54 60 60 39 30 32 32 35 31 30 27 24 38 51 56 60 62 65 66 70 72 72 73 71 71 75 75 73 75 74 72 73 72 69 68 68 70 80 84 88 97 96 97 98 98

GFSSGP_sfc_rhum_066.txt.gz
RH
40 24 18 17 16 12 12 12 12 13 14 14 21 24 21 23 22 28 52 62 62 56 51 65 91 92 88 87 88 89 88 86 85 85 85 85 86 84 82 80 78 76 74 69 66 66 71 75 76
19 24 18 13 15 12 10 12 14 12 12 14 25 30 31 27 32 38 53 62 62 55 54 61 92 91 90 88 88 88 86 85 84 85 85 84 83 82 80 78 76 74 73 67 66 66 70 76 78
21 19 14 14 13 12 11 12 12 12 12 13 24 29 29 26 41 50 53 64 71 53 49 58 91 89 91 89 88 88 86 85 86 85 84 82 81 80 79 77 76 74 71 65 65 71 74 78 82
14 14 14 16 14 14 14 13 13 13 17 19 21 26 37 47 45 48 52 62 90 56 48 78 91 88 87 89 88 87 86 86 86 85 83 82 81 80 79 78 76 74 71 66 68 74 78 82 82
15 13 12 14 13 15 14 13 14 16 20 26 28 21 28 48 49 54 58 64 89 70 66 67 89 84 90 78 88 88 88 87 86 83 82 81 81 80 80 78 76 76 73 71 72 76 79 81 81
15 14 13 10 13 14 13 13 14 17 17 20 28 24 27 44 47 54 60 66 80 86 72 66 78 85 87 78 85 89 88 87 85 83 83 82 82 81 81 79 80 79 79 78 79 80 78 79 79
15 12 10 10 13 14 13 16 17 15 14 17 26 32 28 38 48 56 55 60 76 89 82 74 65 73 88 74 89 91 88 87 84 84 83 83 84 84 83 83 83 84 82 80 81 81 81 79 79
12 12 12 11 13 14 12 14 15 16 16 39 30 23 29 49 51 57 60 63 74 82 88 76 78 76 66 70 92 86 86 88 85 85 85 86 84 83 83 82 86 86 83 81 82 82 82 80 81
13 14 12 11 12 13 12 16 13 20 20 31 34 36 38 48 50 54 60 73 84 83 74 78 76 77 76 54 72 85 80 84 88 86 87 84 66 63 65 70 87 85 82 81 82 83 83 83 83
14 13 11 10 10 12 12 13 14 22 17 25 33 39 46 50 53 56 59 77 81 90 89 85 87 82 84 86 74 74 82 88 87 83 78 69 73 61 48 72 87 86 82 83 83 84 83 65 42
12 13 9 12 11 11 13 13 17 18 16 18 26 35 45 55 58 64 66 75 78 80 87 86 92 96 94 89 96 94 97 94 89 83 78 76 76 51 53 63 64 59 69 48 56 58 38 38 36
15 12 10 10 11 12 14 14 19 20 22 33 29 38 49 60 59 57 64 82 77 81 88 93 95 98 97 99 96 95 96 96 94 82 82 76 65 61 61 49 48 50 44 48 46 41 42 42 38
16 10 10 11 11 13 14 18 17 20 20 35 42 49 55 59 57 56 62 72 68 76 89 87 98 97 95 97 98 95 92 90 92 89 77 63 61 65 58 50 45 44 43 45 44 42 42 42 40
11 12 10 10 12 13 19 14 28 16 20 39 45 44 56 60 56 56 63 76 75 84 87 92 97 97 95 96 95 96 97 90 94 91 75 70 61 66 51 50 44 42 44 42 40 41 39 37 38
13 16 13 13 13 13 17 17 19 15 35 39 42 46 51 53 51 57 60 76 82 88 95 94 96 95 97 95 95 96 96 89 92 87 72 64 57 59 57 46 46 42 39 43 39 42 37 35 35
17 16 16 11 11 14 22 17 10 24 34 38 39 49 52 51 50 50 66 75 89 91 96 96 91 89 92 95 94 88 88 88 89 91 67 60 58 60 60 52 42 41 43 41 41 40 39 38 36
20 17 17 13 12 16 24 17 21 31 31 30 41 46 50 47 48 50 61 73 88 81 91 94 88 94 94 94 91 88 84 84 90 89 56 54 60 61 59 53 50 56 45 43 41 41 42 41 37
19 20 15 16 15 18 17 20 14 18 29 34 32 40 46 48 46 50 61 69 81 94 89 89 88 91 86 86 94 92 89 87 86 91 58 51 45 51 48 46 55 55 52 48 45 50 48 45 41
14 16 15 12 13 16 15 14 14 14 23 32 31 36 45 48 47 50 59 70 80 95 97 90 94 90 80 81 93 93 91 85 85 79 75 63 56 60 57 52 60 58 53 54 56 57 60 55 52
17 18 16 13 16 18 12 15 14 13 17 20 28 32 38 48 52 54 59 64 75 88 88 93 85 78 76 76 77 59 79 70 76 71 78 68 61 69 69 60 58 54 52 60 64 62 61 57 59
19 19 18 17 19 16 19 20 16 12 19 24 27 26 32 42 50 56 58 63 75 85 88 87 89 82 74 76 78 73 77 79 79 80 74 68 68 69 69 67 59 58 57 59 62 63 61 63 62
23 16 18 19 22 16 21 22 16 14 14 17 19 30 31 38 44 48 52 57 62 77 79 77 82 88 83 81 83 73 73 71 56 60 71 68 69 70 65 64 62 70 75 73 67 62 64 75 64
22 16 21 21 22 20 17 24 15 16 17 13 13 19 30 36 43 47 49 48 51 60 71 71 74 81 85 82 81 81 75 65 66 68 66 73 78 72 71 72 70 77 79 74 78 77 73 62 69
19 22 23 23 21 32 22 24 18 14 17 14 14 16 24 33 41 42 45 46 47 55 62 65 65 71 82 84 84 80 70 68 66 76 78 76 80 76 81 77 79 78 77 71 74 67 74 65 67
22 24 34 36 39 34 21 26 22 15 14 15 17 15 21 30 40 43 46 47 47 54 61 66 62 63 74 83 77 74 72 75 74 76 76 75 78 80 77 69 66 68 64 67 73 70 62 63 66
26 24 31 40 40 31 26 30 20 14 14 16 16 16 19 28 37 41 42 46 46 52 55 62 58 56 64 71 70 62 64 66 60 68 69 74 69 64 69 73 67 68 60 56 57 63 57 63 66
28 32 22 34 42 35 27 24 20 15 14 14 15 18 22 25 32 38 41 46 47 50 55 59 54 52 56 63 70 69 59 59 53 57 59 61 64 58 63 65 71 68 55 53 56 58 59 61 70
26 22 35 33 45 47 29 29 25 19 16 14 17 18 22 28 31 35 39 47 47 48 52 56 54 50 52 56 60 59 56 57 53 53 54 54 51 51 52 55 54 52 51 52 55 55 55 59 65
28 30 30 26 29 40 41 30 24 20 17 18 18 18 20 25 32 35 37 41 46 47 48 52 53 50 52 54 56 59 57 59 58 56 55 53 54 52 52 52 51 50 50 50 54 57 56 61 72
20 26 27 37 39 36 40 30 22 23 19 21 18 17 19 17 22 29 35 39 44 47 47 49 53 52 52 52 54 59 61 58 60 59 58 59 58 55 52 52 49 48 48 52 55 58 59 70 88

GFSSGP_sfc_rhum_069.txt.gz
RH
37 17 13 13 15 11 10 9 8 8 10 10 12 14 15 16 15 25 40 45 50 41 51 64 90 90 89 89 89 89 89 87 86 85 85 86 84 84 84 83 80 78 74 68 72 73 75 78 80
13 14 14 14 12 11 8 8 10 8 9 10 13 15 16 17 16 18 32 48 50 45 51 51 91 89 90 89 89 89 87 86 86 86 86 86 85 84 82 82 80 77 74 68 71 73 76 78 80
21 13 15 12 12 11 10 8 8 9 9 10 13 13 16 19 26 32 40 49 56 50 50 59 90 91 90 89 89 88 87 86 86 86 87 86 84 82 81 79 78 76 72 66 69 74 77 80 83
13 12 12 12 11 10 11 9 10 10 9 11 11 14 18 33 32 34 39 50 59 51 51 85 91 91 86 89 89 88 87 86 87 86 86 85 83 81 80 79 77 75 73 71 69 77 80 84 83
11 11 13 12 10 9 10 9 10 11 12 14 15 15 16 33 38 40 44 49 60 61 60 72 90 90 90 90 79 82 87 87 87 86 85 83 82 80 79 78 76 74 74 76 75 79 80 83 81
13 10 13 11 8 8 10 9 10 11 10 11 16 16 17 34 32 41 48 52 64 67 59 59 81 90 87 86 85 91 88 88 87 85 84 83 82 81 80 78 77 77 78 80 81 81 80 81 79
14 12 12 9 8 9 10 10 12 11 10 10 13 20 18 28 35 44 43 48 60 72 76 70 67 72 90 87 89 92 96 88 87 86 84 84 83 82 81 81 81 80 82 82 82 82 82 79 78
11 11 11 9 9 8 9 9 9 10 11 17 14 17 19 40 40 45 47 51 59 72 82 73 69 64 64 75 89 97 93 89 88 86 86 86 85 85 85 85 83 83 84 83 82 83 83 80 80
9 13 12 9 9 8 8 11 9 9 12 10 18 23 25 35 36 42 47 54 62 74 75 78 72 74 66 56 68 85 97 84 88 87 91 88 68 67 68 77 85 83 84 84 84 84 84 84 82
12 12 10 7 7 8 8 9 9 11 11 11 14 21 27 33 35 39 40 50 64 69 74 78 81 73 70 74 65 72 85 88 86 80 81 70 74 67 63 81 86 85 85 85 86 86 85 67 42
11 12 8 7 7 7 8 9 8 11 13 12 18 18 26 34 38 44 44 51 52 64 81 79 78 77 81 79 84 89 90 92 92 90 80 83 83 76 71 77 63 64 69 53 57 61 42 37 35
11 9 9 8 7 8 10 9 10 11 14 13 18 22 27 40 40 37 45 50 58 74 65 72 78 86 92 92 93 94 89 95 96 94 89 90 94 79 69 67 56 55 47 52 46 42 39 38 35
11 9 8 8 7 8 9 10 12 11 9 10 20 32 33 37 38 37 42 56 57 65 64 79 90 90 90 96 97 96 98 95 94 93 90 90 91 73 62 63 54 48 45 46 43 38 38 38 36
10 9 10 8 8 8 10 11 11 11 10 12 21 29 32 39 37 37 45 57 65 62 70 82 89 96 95 89 97 97 97 98 95 92 92 88 88 70 59 64 50 44 41 40 38 38 38 36 36
10 11 10 10 8 8 8 11 12 9 9 14 20 27 31 34 36 39 41 61 68 68 75 86 95 94 96 96 94 97 96 95 95 95 90 84 71 67 62 54 52 44 47 45 41 41 36 34 33
14 13 15 10 9 9 10 17 10 9 13 17 22 24 30 34 35 34 43 54 67 77 83 85 89 90 97 97 96 96 97 95 92 90 88 81 65 59 59 51 47 56 47 43 40 38 35 34 34
17 17 16 13 9 10 12 15 10 15 15 18 19 23 30 32 35 35 41 48 74 84 87 89 87 90 94 97 95 95 94 96 92 89 78 72 60 57 53 50 50 53 45 44 41 40 39 38 35
19 16 15 15 11 11 11 15 11 13 16 18 18 22 28 33 32 34 41 48 72 77 85 89 88 93 95 93 93 95 95 97 95 92 74 64 58 62 58 54 62 54 51 47 46 47 42 41 39
15 14 14 13 10 13 14 12 11 10 12 16 19 20 26 31 29 34 43 50 71 90 93 92 93 95 93 91 94 95 96 94 95 88 77 59 52 54 56 52 63 66 60 59 59 54 58 50 45
17 16 16 13 10 13 12 10 9 9 10 12 16 18 21 30 31 38 44 52 66 85 88 86 84 85 91 74 73 76 81 79 73 77 82 53 49 47 48 53 56 60 59 63 62 64 65 56 58
20 21 18 16 12 14 14 14 12 10 10 10 13 13 16 25 33 38 43 49 61 76 76 85 81 77 78 74 70 74 78 81 77 76 82 71 58 54 54 54 62 64 56 60 67 66 64 72 62
24 16 16 15 17 20 13 16 14 11 11 12 13 16 16 22 31 34 41 45 55 71 79 77 78 75 71 71 65 72 65 78 73 70 72 69 70 62 57 59 67 69 56 60 64 60 64 76 81
24 17 16 17 19 20 18 16 14 11 11 11 10 12 18 20 29 34 39 39 43 62 76 77 81 77 73 70 67 73 76 57 68 64 69 74 70 69 59 74 79 77 70 71 73 74 76 80 79
16 19 19 20 22 31 22 19 17 13 12 12 10 11 16 20 26 31 34 36 37 50 67 75 82 84 79 73 75 73 71 62 69 77 63 74 76 68 67 76 81 77 79 78 78 80 79 79 76
18 23 32 37 36 37 18 19 18 12 11 12 12 11 15 19 26 31 33 36 36 45 56 63 71 78 84 84 77 68 70 70 67 70 69 70 81 78 66 77 75 71 68 68 70 84 74 70 73
22 23 33 46 45 30 18 24 18 12 11 12 12 13 13 18 27 30 31 35 35 42 49 54 58 64 76 85 80 70 65 61 58 57 59 69 72 73 66 68 69 62 64 64 64 67 67 68 80
25 27 19 28 35 37 23 20 16 15 13 11 12 14 15 17 24 29 30 34 36 39 47 53 51 49 62 75 82 77 68 68 64 64 66 64 62 61 66 65 63 61 59 58 58 54 61 69 76
29 19 31 26 50 53 30 25 22 18 15 13 14 16 17 18 21 27 29 34 35 37 42 50 50 45 47 63 73 73 67 65 60 60 64 64 65 62 61 64 63 62 62 60 58 53 57 63 66
30 28 27 25 29 41 43 32 18 18 17 15 16 15 18 22 22 25 28 31 34 36 39 45 47 44 44 49 55 65 64 64 62 59 57 57 61 62 60 62 61 59 58 58 57 56 56 59 61
27 27 28 38 38 32 41 39 17 17 17 17 16 14 15 15 22 24 26 30 35 37 39 41 45 45 44 45 49 56 62 60 61 60 57 56 55 56 55 53 54 52 51 53 54 56 52 56 59

GFSSGP_sfc_rhum_075.txt.gz
RH
71 53 37 30 40 41 38 24 17 15 18 18 14 18 21 22 24 60 62 58 75 84 88 90 93 92 91 91 92 92 89 89 90 90 88 86 86 85 83 84 84 82 80 75 72 71 73 79 84
43 27 27 34 42 50 36 19 16 14 14 12 11 14 20 34 51 62 67 61 67 79 85 92 95 93 91 90 90 90 88 89 89 89 87 86 86 86 86 85 84 82 81 74 71 74 77 82 84
39 26 36 40 45 40 35 19 15 13 11 11 14 13 17 40 39 56 62 64 62 76 74 86 94 95 92 90 90 90 89 89 89 88 87 86 86 86 85 85 84 82 78 73 73 74 79 84 85
30 33 29 34 37 26 22 15 14 14 12 12 14 21 34 40 42 53 58 65 67 61 72 91 93 95 93 91 89 89 90 89 89 88 86 86 86 85 84 83 82 80 78 76 76 78 82 84 83
27 31 36 40 30 19 14 12 13 15 17 16 16 19 38 50 49 54 59 66 72 72 90 85 91 94 94 91 89 88 89 88 90 87 86 87 86 85 84 83 82 80 81 79 79 81 81 79 81
30 29 38 37 25 17 13 12 12 15 14 13 16 20 48 48 52 61 63 69 74 79 90 89 91 94 94 90 86 87 96 92 91 94 87 86 86 84 82 81 82 84 83 80 84 83 80 82 78
36 37 35 28 22 17 13 13 14 14 16 17 17 27 53 50 60 59 62 74 77 79 90 94 95 91 94 96 96 96 96 96 93 90 91 86 86 84 82 82 85 86 85 84 85 83 83 78 77
27 34 34 26 22 20 12 14 14 13 14 18 15 20 59 55 56 57 62 68 85 85 87 91 95 96 98 95 93 94 92 91 90 90 92 94 87 86 87 87 87 87 87 86 85 84 81 79 73
26 30 31 25 20 16 12 15 14 12 13 14 15 17 40 51 56 63 73 77 80 90 92 91 94 97 97 95 91 88 87 88 91 90 93 94 83 86 84 87 89 88 87 87 86 84 81 76 74
26 28 25 18 16 15 12 13 14 16 15 16 21 48 49 47 52 61 69 81 85 87 88 94 94 96 94 89 94 97 90 92 92 91 96 94 87 84 87 88 89 89 89 88 86 83 80 71 70
25 26 18 16 15 13 14 12 11 14 17 19 24 46 46 44 48 54 53 66 66 81 90 88 91 97 95 95 97 99 97 99 95 93 94 94 91 94 93 90 89 89 88 82 80 76 70 64 66
28 19 17 15 13 13 13 12 12 16 17 19 15 22 44 47 49 54 58 61 69 81 83 91 91 94 97 98 98 97 97 99 98 100 95 94 94 94 95 90 93 90 86 87 83 76 65 61 60
24 19 15 13 12 12 11 12 13 14 12 12 13 31 34 46 47 47 65 67 76 85 95 95 94 96 96 97 98 96 96 96 96 99 95 92 94 94 89 81 81 86 78 73 69 75 57 57 59
20 19 16 14 12 11 11 12 16 13 14 12 12 38 40 40 46 48 69 72 80 89 96 95 94 94 96 99 98 98 97 98 95 99 94 92 93 90 88 72 72 81 74 63 63 68 64 60 62
20 24 19 16 14 13 11 15 14 13 11 12 13 24 40 41 45 50 60 76 84 93 96 96 96 96 96 97 99 99 98 96 97 97 96 91 89 85 84 70 67 70 69 58 64 68 62 66 62
30 24 28 19 16 14 16 20 15 12 12 12 13 17 37 43 45 48 70 78 87 96 97 96 91 98 98 98 99 98 98 96 95 95 94 88 83 84 81 68 66 69 65 63 66 66 63 66 65
36 38 32 22 14 14 15 16 13 12 12 16 19 23 37 45 49 51 69 77 86 91 94 98 98 98 99 99 99 97 96 96 94 95 93 87 80 80 79 78 78 73 63 75 66 68 64 64 67
45 38 30 24 17 15 16 15 12 15 17 18 20 22 38 42 46 52 68 75 91 94 92 96 97 97 96 98 99 98 98 96 95 94 90 87 80 78 75 88 86 86 78 90 62 62 70 63 61
35 34 34 23 16 18 18 16 14 14 16 24 24 22 35 41 45 53 74 80 95 95 94 94 98 97 96 96 98 98 98 98 96 94 87 85 82 78 77 81 90 94 88 86 69 70 69 73 66
35 35 34 26 21 21 22 25 16 16 17 17 22 26 30 44 50 58 85 85 95 94 92 93 94 95 93 91 87 89 94 94 90 87 85 79 76 76 74 76 82 91 94 92 87 77 85 80 74
38 38 31 29 23 23 21 22 19 16 16 14 20 20 25 41 55 60 81 89 94 96 93 91 87 93 89 88 87 89 87 93 94 90 84 76 74 75 71 72 78 83 82 84 83 80 75 83 80
52 38 31 27 32 60 35 37 25 18 17 16 14 22 26 40 51 57 71 90 91 89 88 88 87 88 85 87 87 92 94 95 86 86 78 75 80 79 74 75 81 77 72 76 88 85 81 88 89
45 42 42 49 64 62 52 36 27 22 20 18 15 22 25 39 50 58 64 82 83 83 89 91 88 86 83 86 84 88 90 85 81 77 78 82 80 77 72 77 80 86 89 91 91 91 89 91 93
49 57 49 60 64 85 58 42 33 25 22 20 14 19 22 40 47 52 60 69 81 85 79 85 87 85 84 86 84 84 84 84 82 79 77 82 80 85 76 84 84 86 91 92 89 93 90 94 91
54 67 89 91 94 90 39 38 29 25 19 17 20 21 26 41 45 53 62 69 80 83 78 84 82 90 83 86 84 80 81 81 76 70 70 76 84 94 90 89 90 90 83 92 88 88 90 95 94
54 86 84 92 89 58 31 40 28 20 16 15 15 23 28 42 43 51 55 63 79 82 79 77 83 84 82 83 82 78 75 79 78 72 66 68 77 80 82 80 86 86 90 85 91 94 91 92 96
74 95 62 82 61 91 59 28 22 19 17 19 17 19 32 41 43 49 51 56 76 84 85 87 82 72 83 82 83 80 80 76 78 72 67 67 72 74 80 84 81 84 81 85 88 86 87 84 89
69 55 82 98 93 93 61 54 35 26 22 20 20 24 24 35 41 47 48 52 68 76 84 85 86 84 83 85 83 79 78 76 73 75 71 67 64 71 77 81 81 80 78 78 80 81 81 85 84
84 92 90 86 88 79 92 78 59 44 29 25 30 28 31 36 41 45 46 48 54 70 77 81 86 84 87 88 86 81 79 79 74 74 78 74 68 67 73 76 80 79 77 72 73 72 76 78 76
60 87 84 98 82 65 71 81 49 39 27 26 26 24 26 30 40 42 44 47 52 57 69 74 75 81 82 85 86 86 81 78 79 74 72 77 78 71 74 76 74 78 78 74 72 70 63 73 73

GFSSGP_sfc_rhum_081.txt.gz
RH
80 54 36 35 43 50 57 37 28 23 21 19 20 23 23 27 23 32 60 78 89 95 96 94 95 94 94 91 92 91 90 90 90 90 89 88 87 86 86 86 85 81 78 78 78 79 80 78 87
54 36 35 44 52 56 38 37 29 23 17 18 22 36 42 50 66 72 76 86 90 95 96 96 96 95 94 93 92 92 89 89 90 89 88 87 86 86 86 86 84 82 81 79 76 77 79 85 88
39 33 40 48 61 55 34 31 24 20 16 19 16 20 40 55 67 73 68 86 90 97 91 94 96 95 93 93 93 92 90 90 89 88 87 86 85 85 86 86 84 82 80 79 76 80 83 88 88
33 38 43 51 53 48 34 27 29 20 15 16 17 41 47 53 68 66 71 85 92 97 91 96 96 95 93 93 93 92 92 91 90 88 86 85 86 86 86 85 84 81 80 72 79 83 88 87 87
35 44 59 61 49 40 31 27 22 20 20 18 19 27 49 58 65 72 80 86 94 97 98 95 97 96 93 93 93 93 93 91 90 86 86 86 85 86 88 86 83 79 73 76 84 87 88 87 86
34 41 56 61 44 30 25 24 20 19 18 16 22 53 63 67 76 81 82 88 92 95 97 96 96 96 94 94 93 94 94 90 86 87 90 83 85 87 85 85 84 83 81 84 86 87 86 83 85
34 46 53 49 37 29 24 20 22 20 20 19 24 60 66 73 74 82 84 90 92 96 97 98 93 94 95 96 95 94 91 90 88 88 84 90 87 90 85 85 85 84 86 87 88 86 81 84 85
38 43 60 43 36 32 23 21 20 18 18 20 38 64 72 67 74 81 89 94 96 97 97 98 99 98 96 97 95 93 92 92 93 93 94 84 88 91 93 83 84 88 88 87 85 81 83 86 85
38 51 58 43 36 27 23 23 20 18 17 16 28 54 48 59 75 87 92 94 97 98 97 98 99 98 99 98 95 94 91 90 90 92 91 94 94 92 93 83 88 90 90 86 84 81 83 84 84
49 58 43 34 24 26 26 29 21 19 19 19 29 59 71 65 75 81 90 95 96 97 98 98 99 99 99 98 97 96 95 97 97 94 93 92 94 94 93 86 91 91 90 88 84 84 84 80 78
47 38 35 30 26 28 28 26 21 22 21 20 22 42 74 70 72 77 83 90 91 93 96 98 99 99 99 99 99 99 99 98 99 97 94 94 95 94 94 94 94 93 90 81 77 82 74 73 74
52 40 31 33 30 30 27 25 23 22 20 18 17 40 72 71 70 73 82 87 90 93 94 97 99 98 98 99 99 98 99 98 98 97 97 97 97 97 96 92 91 94 95 97 79 72 70 71 69
41 40 34 31 30 28 25 26 24 22 18 15 17 55 69 66 65 68 73 84 90 93 95 97 98 97 97 98 98 98 97 97 95 96 95 94 95 95 95 88 90 93 94 86 83 76 68 70 73
31 31 31 29 30 28 27 26 26 21 17 15 17 30 62 64 63 71 73 86 92 94 97 98 98 99 96 97 97 97 97 94 94 95 94 96 93 96 93 87 92 91 84 80 74 69 72 71 73
35 41 37 33 32 31 25 27 26 19 17 16 16 28 48 58 60 61 63 78 86 93 97 98 98 99 97 96 96 97 97 97 98 95 94 91 94 95 89 89 94 90 82 76 80 74 74 76 68
43 44 51 36 30 28 25 35 23 20 19 18 17 19 42 54 56 55 70 75 92 97 97 96 95 99 99 99 98 98 96 96 95 95 96 92 96 91 90 91 88 82 79 75 74 73 77 77 74
57 51 49 42 27 28 26 29 24 21 18 19 18 17 22 44 56 68 71 85 95 96 98 99 98 99 99 99 99 98 95 96 95 98 97 92 95 90 84 80 81 76 71 71 72 79 72 80 84
62 58 60 53 33 34 36 38 32 27 24 22 20 18 20 46 48 57 81 96 98 97 98 98 98 94 99 98 99 99 99 95 96 98 96 94 94 84 75 74 83 73 65 79 78 68 80 75 78
51 52 53 49 38 38 36 37 31 28 28 30 25 22 21 40 50 80 94 97 99 98 99 96 91 96 97 98 98 99 99 98 98 97 95 93 87 74 68 74 80 76 69 75 72 77 74 84 77
43 50 51 43 36 36 43 41 32 28 27 26 27 24 21 62 90 93 94 90 95 97 98 98 92 94 89 96 94 96 98 99 97 98 96 94 88 69 66 72 67 72 74 82 83 78 84 87 80
52 64 53 50 44 39 41 42 32 26 30 31 29 21 23 57 83 95 90 91 88 92 94 91 98 95 94 92 93 97 98 99 99 98 98 96 91 83 65 72 69 74 72 80 78 76 70 84 85
78 56 52 44 60 68 58 71 50 41 35 30 28 25 34 55 66 87 91 89 90 89 90 86 97 93 91 91 94 95 95 97 98 97 95 94 88 87 81 76 86 76 75 81 86 78 68 85 78
69 62 55 61 72 74 64 77 59 40 39 33 30 24 31 46 65 85 94 85 84 88 91 88 96 95 88 89 90 91 95 91 98 99 98 96 96 94 90 91 90 89 83 87 87 90 89 89 88
60 60 63 65 75 90 63 65 61 44 36 28 25 24 26 46 60 77 89 84 87 88 90 98 97 88 94 91 87 86 90 93 96 98 98 97 98 98 97 94 91 89 89 88 88 87 91 90 86
69 78 96 95 95 81 51 58 48 36 33 30 28 23 28 46 66 87 97 94 92 92 92 97 96 95 93 94 95 82 79 86 95 93 94 96 96 96 96 94 91 88 87 88 88 91 93 93 93
83 84 94 90 95 85 44 62 45 33 28 26 27 26 27 42 64 86 93 94 93 88 90 95 94 92 92 92 92 92 80 80 84 91 87 87 86 84 82 85 85 85 84 84 89 94 96 94 94
78 94 76 99 88 97 80 64 38 57 31 44 43 34 39 48 66 81 86 88 96 90 88 93 92 90 88 92 86 92 92 89 88 84 83 84 82 82 80 85 86 87 87 83 86 88 90 93 90
75 80 99 93 96 93 76 66 82 87 72 55 43 39 43 58 67 78 81 88 90 93 89 93 92 91 89 88 88 92 92 91 86 91 89 88 89 88 95 89 89 86 85 86 88 87 85 87 86
85 84 97 95 91 96 96 91 76 86 73 69 56 51 60 60 65 73 76 84 88 91 94 95 93 89 87 86 86 86 86 87 83 86 89 86 86 87 93 91 88 90 86 82 85 83 84 87 81
79 79 88 99 99 94 92 84 78 78 67 63 58 58 61 61 61 69 77 84 90 91 92 91 87 85 84 85 87 87 86 84 85 87 88 86 82 86 88 87 88 86 90 89 85 85 82 92 89

GFSSGP_sfc_rhum_084.txt.gz
RH
81 50 38 37 37 51 60 39 34 27 22 21 22 25 24 24 25 29 56 84 88 95 97 95 90 91 92 91 92 93 92 92 91 90 89 89 88 87 88 88 86 83 77 73 80 79 77 82 87
64 35 38 46 46 49 37 41 33 26 21 20 26 43 42 30 65 69 73 82 90 95 96 96 94 93 86 92 91 92 87 90 90 90 89 89 87 87 88 88 84 80 80 80 79 77 80 86 89
41 36 38 50 65 44 29 30 29 26 21 20 18 28 38 41 69 71 73 87 96 98 97 94 96 94 85 93 92 92 90 87 90 90 88 88 87 87 88 88 85 83 82 80 75 78 85 90 90
38 38 44 54 56 49 30 28 33 25 20 18 20 25 46 56 68 70 73 93 97 98 97 97 98 95 87 91 92 92 93 92 91 89 87 87 86 86 88 88 85 82 80 78 79 85 89 90 90
37 48 60 74 54 46 39 34 27 25 25 22 21 22 46 56 72 75 92 91 96 97 90 90 96 96 87 88 92 93 94 93 91 89 85 86 81 84 87 85 82 83 82 81 84 88 90 90 89
34 45 64 69 51 36 30 27 25 22 23 19 23 28 46 73 78 87 94 96 95 98 93 89 96 96 90 90 94 95 94 92 90 87 82 81 86 85 84 83 84 84 80 85 88 89 89 88 88
29 48 59 55 44 32 27 23 23 23 23 20 29 42 56 74 78 87 91 94 96 97 99 94 92 96 95 95 96 96 94 92 91 89 89 88 86 84 84 84 83 82 83 86 89 89 88 87 88
38 39 59 47 38 32 22 24 21 22 21 22 42 47 43 68 86 90 92 94 96 98 98 95 95 95 97 97 96 92 91 90 91 92 91 90 87 87 90 87 83 84 86 89 88 86 88 87 88
42 46 58 42 38 25 28 28 26 22 21 23 23 40 49 65 87 94 95 97 99 99 99 99 94 94 97 99 96 93 90 89 90 91 91 93 93 93 89 93 89 81 87 90 85 88 89 88 88
47 58 42 35 29 28 28 42 28 26 26 24 24 35 71 79 88 93 96 97 99 99 100 99 99 97 95 97 96 95 93 93 92 93 92 94 94 91 85 92 94 87 90 87 86 90 89 87 86
55 45 36 34 30 30 30 32 26 27 28 25 25 27 72 82 87 89 92 92 93 97 99 99 99 98 96 96 97 98 97 96 96 97 95 96 95 93 92 93 94 94 91 85 85 88 83 86 84
57 47 35 34 28 34 31 31 29 28 27 23 22 23 58 80 85 84 85 92 95 96 97 99 98 97 98 96 98 96 97 98 98 98 97 97 98 96 96 96 95 90 90 86 88 86 87 87 84
47 46 40 36 34 34 32 32 30 30 24 22 22 22 39 73 74 73 75 86 93 95 95 98 98 98 98 97 98 97 97 98 97 98 94 95 96 96 96 95 95 95 93 86 79 77 79 83 84
31 34 32 32 32 33 33 31 37 32 25 23 21 20 32 59 70 72 82 84 90 92 94 97 99 98 98 98 98 99 99 97 97 97 96 91 94 95 94 97 95 94 88 80 78 75 74 77 79
36 46 42 40 37 36 32 34 34 27 25 24 21 20 21 50 64 72 65 68 76 90 94 98 98 97 96 96 97 98 98 96 97 96 97 91 93 95 95 96 97 94 89 80 78 79 82 81 80
43 48 56 38 38 33 32 35 28 26 26 25 24 21 22 34 62 64 60 67 90 96 96 98 98 98 95 96 98 97 98 96 96 96 95 96 91 90 96 96 96 91 85 77 72 73 80 83 84
54 54 55 44 34 34 35 37 32 26 25 24 23 22 22 23 53 65 61 80 94 95 97 98 98 98 98 95 96 97 95 97 94 97 95 94 93 92 92 92 93 89 82 77 75 80 78 81 85
52 57 70 63 41 44 45 42 35 33 30 32 31 28 27 24 25 34 68 93 96 97 97 96 98 98 96 99 99 99 98 96 96 96 94 91 95 96 93 90 90 85 80 79 73 73 82 80 83
48 55 55 50 41 44 38 37 34 33 35 35 33 32 32 30 22 42 91 97 98 99 98 95 98 98 96 99 99 99 98 98 98 96 96 95 93 96 91 85 88 79 77 76 74 71 82 89 89
42 46 49 45 39 41 48 46 37 36 34 30 31 30 32 32 67 89 97 96 97 96 95 94 88 94 94 98 92 96 99 98 96 95 98 96 96 89 80 81 79 73 77 79 75 69 88 88 82
53 60 65 64 56 45 51 49 38 30 30 27 32 31 32 28 50 94 97 96 96 96 97 92 89 85 88 94 94 98 99 99 99 99 98 97 95 86 76 79 73 70 69 74 72 72 75 80 86
81 62 64 63 66 77 61 81 41 41 42 40 37 37 33 29 49 85 94 95 92 93 91 90 89 84 88 95 94 95 98 98 99 99 97 97 92 84 80 72 68 69 69 71 79 69 72 82 84
73 69 73 72 78 75 69 83 57 44 41 41 38 35 32 28 57 82 93 91 84 87 90 87 92 89 92 95 92 94 95 96 98 99 98 98 95 88 86 86 76 76 77 82 86 89 88 85 83
62 70 69 66 62 89 64 66 68 53 45 39 34 32 28 27 62 80 94 87 83 84 85 89 94 86 88 92 94 92 94 98 98 99 98 98 97 96 92 91 90 90 90 91 89 89 88 89 85
73 86 92 94 91 88 55 68 58 42 36 33 35 32 30 27 66 90 97 94 87 91 89 91 88 87 91 95 90 90 91 95 95 96 98 98 97 97 97 92 92 94 94 92 89 90 89 90 89
86 86 81 93 92 87 67 68 53 67 59 58 54 44 37 35 59 79 92 92 85 88 90 88 87 85 88 94 91 86 85 91 92 91 94 97 96 95 96 96 95 90 94 96 90 90 92 93 93
80 92 80 94 85 93 83 68 61 67 70 66 65 57 57 45 60 73 91 90 85 87 88 87 88 86 88 91 92 90 86 84 89 91 90 92 96 95 96 95 96 96 94 89 94 91 90 93 96
74 83 99 98 99 96 77 81 79 85 77 72 74 69 68 60 46 83 95 89 87 84 87 89 94 94 86 94 92 92 91 85 83 87 96 95 90 86 90 94 93 90 90 90 84 88 88 91 94
90 90 96 95 98 98 98 87 76 78 75 69 71 73 80 66 74 85 91 94 88 83 85 93 96 97 97 89 93 88 92 94 96 94 95 95 94 92 89 89 92 89 89 90 88 87 87 87 87
80 80 72 99 95 95 96 88 79 76 70 59 62 72 82 71 76 84 92 92 89 87 85 88 98 97 96 97 95 92 93 92 89 88 90 94 92 94 95 92 90 90 89 88 90 92 90 92 91

GFSSGP_sfc_rhum_087.txt.gz
RH
66 35 24 24 22 27 25 20 22 18 17 15 16 16 16 17 30 22 44 59 71 73 76 77 86 87 92 93 93 94 90 89 90 90 90 90 90 89 88 88 86 83 81 81 81 82 80 82 87
42 26 27 29 21 15 13 24 22 18 17 17 16 26 23 18 34 40 44 64 67 77 76 74 85 82 92 94 94 87 91 90 90 90 90 90 88 88 89 88 86 83 82 82 79 79 82 87 89
29 25 25 28 29 12 12 18 17 18 18 17 12 19 20 22 48 43 44 64 71 74 74 78 83 85 87 93 94 86 85 91 91 90 89 89 88 88 89 89 84 80 81 80 77 80 87 90 89
27 27 30 30 27 24 15 17 21 20 15 14 13 14 23 33 48 47 49 64 70 76 75 86 87 86 90 93 94 87 88 90 92 90 90 88 88 88 82 83 85 83 82 80 79 84 90 91 91
27 29 29 37 32 26 26 22 22 20 19 17 15 15 22 37 50 56 64 68 71 80 80 85 94 90 92 90 92 93 90 92 90 91 90 88 87 83 81 80 78 82 81 79 83 88 92 91 90
25 29 30 24 30 21 23 20 17 16 15 15 16 17 21 49 55 62 72 73 78 83 82 84 93 92 92 91 93 96 94 92 92 91 90 85 82 78 83 81 80 83 84 84 85 91 91 90 90
21 30 21 28 29 24 16 19 18 14 14 15 19 25 29 42 56 70 72 74 81 90 87 86 89 86 94 95 95 96 95 93 93 92 88 85 84 84 84 82 81 82 86 87 89 91 90 90 89
21 23 32 32 24 18 14 19 16 16 14 15 24 24 19 37 64 74 77 77 82 88 92 88 90 91 89 92 98 96 96 94 91 92 92 90 88 88 86 85 83 82 88 89 90 91 90 90 90
28 25 29 24 25 17 20 20 17 16 16 16 16 22 25 51 70 74 80 85 86 91 93 91 93 90 87 93 95 95 94 92 89 90 90 90 80 80 85 88 86 86 90 91 89 90 90 90 88
30 33 28 24 18 17 17 17 17 18 18 17 18 19 32 60 69 71 72 76 90 94 94 93 94 93 92 95 94 91 90 84 87 85 82 85 86 85 86 89 93 94 95 92 88 91 91 80 64
36 33 27 24 22 21 18 20 17 17 20 20 19 20 32 38 57 70 66 65 71 85 92 94 93 93 95 96 98 98 95 93 90 91 90 88 89 92 90 92 94 95 95 96 89 82 65 67 62
38 40 28 22 22 24 24 16 20 22 21 19 18 19 20 29 40 56 69 63 68 80 88 92 92 95 95 96 97 98 98 95 95 92 94 95 97 97 93 84 86 92 96 94 83 70 69 69 65
42 38 33 31 28 27 25 27 27 27 21 19 19 21 22 21 28 40 49 56 68 73 79 92 91 94 94 95 96 97 97 96 93 94 94 94 92 96 92 85 91 97 96 94 81 69 68 68 66
24 26 27 26 26 25 28 26 25 22 22 22 22 20 20 19 22 29 56 60 67 68 72 84 92 96 92 94 94 96 95 96 96 95 93 92 93 93 92 87 90 91 93 88 76 67 65 63 62
26 29 31 33 28 29 27 25 28 22 21 23 21 19 20 17 17 31 34 51 60 64 70 83 94 94 94 92 94 96 96 97 98 97 94 92 91 90 88 93 91 93 90 76 68 67 63 65 63
29 33 33 29 32 30 27 28 20 18 21 21 21 20 20 18 17 21 33 43 50 61 72 80 88 91 94 92 96 96 97 98 97 96 95 92 91 87 91 95 94 95 92 68 67 63 65 64 62
37 28 42 33 29 29 29 29 26 25 25 25 22 20 19 19 18 20 32 42 55 62 70 82 89 92 94 88 91 95 95 97 96 96 96 91 90 89 92 95 96 94 91 71 63 64 64 65 62
28 37 42 37 33 29 28 28 23 25 25 26 25 23 25 23 20 19 23 36 56 66 71 77 87 91 88 88 91 94 96 97 95 95 92 88 89 92 93 93 97 95 87 71 61 68 65 66 63
37 42 42 36 28 29 28 28 27 26 24 26 25 24 24 24 20 21 26 50 68 75 78 80 88 90 92 95 98 98 98 97 98 95 91 90 94 94 95 94 94 92 81 68 70 70 74 68 64
33 34 36 36 32 38 41 40 31 28 26 24 25 25 24 23 21 24 44 66 72 75 77 83 78 87 84 82 88 90 97 96 94 94 90 92 93 96 96 94 91 86 80 74 72 72 70 67 69
39 41 46 46 46 42 43 37 30 26 25 24 24 24 22 22 22 23 53 69 74 78 83 84 75 76 82 81 82 88 93 97 98 98 98 95 93 94 95 91 89 80 78 73 70 70 69 75 70
54 44 46 57 58 49 45 44 28 30 30 28 28 28 27 24 24 25 46 67 74 78 84 80 76 74 74 77 76 83 84 91 97 95 97 98 96 97 92 90 84 78 77 74 71 65 69 74 74
56 56 56 56 60 62 56 62 40 32 28 28 28 28 29 28 26 26 50 62 71 82 85 83 78 74 75 88 85 85 85 90 92 99 98 97 96 92 87 84 77 75 74 77 77 78 76 73 71
54 54 56 58 58 73 52 51 39 34 36 46 46 40 32 28 27 36 60 70 70 79 86 86 89 78 82 86 86 84 86 89 97 99 98 98 97 94 85 80 80 76 75 78 77 78 79 82 75
56 64 72 77 77 59 48 55 43 38 59 61 61 54 48 41 32 62 73 72 75 85 85 91 88 77 82 87 87 86 86 85 90 98 97 97 97 97 94 88 85 85 84 86 83 81 79 83 80
67 65 63 64 73 63 58 58 39 61 56 54 55 56 57 58 51 57 68 73 75 80 86 87 84 75 83 85 86 86 85 88 89 91 98 96 95 94 92 91 89 92 92 92 91 84 81 84 83
75 79 63 82 73 73 50 47 45 53 51 51 53 56 64 66 62 49 66 74 76 79 87 85 82 75 84 84 86 85 84 88 90 89 93 98 96 96 94 92 91 89 86 85 89 90 86 86 83
64 66 92 89 90 87 53 51 45 64 63 56 58 61 68 72 65 49 59 75 75 73 84 86 80 77 80 83 84 83 83 81 85 89 92 94 98 96 96 94 92 93 90 81 80 85 87 78 82
77 81 85 92 94 82 75 52 63 65 55 61 62 64 78 80 72 71 70 72 71 79 86 87 84 79 87 85 78 87 85 87 82 82 83 89 94 95 96 95 95 94 92 83 83 78 86 91 86
66 67 65 89 89 94 87 64 59 46 50 57 67 70 79 80 80 78 78 79 80 85 88 89 86 82 82 79 79 83 90 89 88 83 82 84 80 80 85 92 95 95 95 93 91 83 75 86 88

GFSSGP_sfc_rhum_090.txt.gz
RH
46 24 12 15 14 10 7 7 8 11 12 10 11 9 10 11 16 16 28 34 37 43 48 70 89 90 93 93 94 93 91 90 90 91 90 90 91 91 90 89 86 84 82 79 79 79 79 80 89
19 16 12 12 11 8 6 7 9 8 11 12 12 12 14 12 13 19 31 40 40 40 47 55 90 90 94 94 95 93 91 90 91 91 90 90 90 90 88 88 87 84 83 82 78 78 81 87 90
20 13 11 11 10 8 6 6 6 10 11 12 11 12 12 13 21 18 24 40 42 42 43 53 88 87 93 94 94 93 91 91 92 91 90 90 89 89 89 88 86 84 83 81 78 80 87 91 91
16 13 13 13 9 9 6 6 8 12 10 10 10 11 10 15 23 20 25 39 41 40 42 78 88 89 93 94 93 86 93 94 93 92 90 89 89 88 88 87 86 84 82 81 80 85 91 92 92
15 11 11 12 8 7 11 8 13 14 13 10 10 11 12 17 24 33 30 37 39 45 48 64 89 91 90 93 92 84 93 94 92 92 91 89 88 88 86 86 85 84 82 79 85 91 93 93 92
15 12 11 9 8 9 8 9 9 10 9 8 9 11 13 24 30 35 37 42 43 51 58 64 84 91 90 94 94 88 90 94 94 92 92 90 88 83 83 84 84 83 83 84 90 92 93 92 92
16 12 10 8 8 8 8 8 11 8 6 6 9 14 15 19 31 44 44 43 52 58 62 76 78 76 94 94 96 95 91 92 93 92 91 86 84 84 84 82 85 84 83 88 91 92 92 92 91
14 12 13 10 11 11 6 8 8 8 8 11 11 12 17 18 31 48 50 50 58 69 69 76 82 74 71 73 96 96 95 94 93 95 92 90 89 85 86 86 85 86 88 92 92 92 92 91 91
15 17 15 12 13 11 9 11 8 8 9 10 11 12 14 22 31 44 55 59 60 67 75 75 81 76 75 69 76 94 96 95 94 90 93 90 70 71 71 84 91 90 92 92 93 93 92 91 90
18 19 17 12 12 11 9 9 8 12 10 11 11 10 11 15 24 29 41 51 56 63 73 83 77 75 80 67 75 76 71 68 71 69 71 71 67 66 67 81 90 93 97 93 94 94 93 81 62
20 19 15 15 14 12 11 11 9 11 12 11 12 12 11 17 16 22 26 35 40 49 73 87 80 80 82 85 82 75 71 65 67 72 69 71 74 74 66 77 89 93 96 93 96 95 81 64 59
26 19 17 15 14 14 15 12 12 12 14 11 9 10 12 14 16 15 21 23 32 41 58 82 84 86 88 83 89 82 88 78 85 71 81 88 81 83 76 83 90 92 93 95 97 94 77 62 57
24 17 15 17 16 16 15 15 15 14 12 12 12 13 15 15 14 12 13 17 24 38 52 72 86 87 87 88 93 94 90 91 81 82 74 78 86 79 81 85 90 81 96 96 96 88 74 64 59
15 18 16 17 17 18 19 18 17 16 14 14 14 14 14 14 14 12 13 19 22 31 44 61 82 88 88 88 88 94 90 88 89 88 86 78 88 85 69 89 88 88 90 93 91 91 76 63 52
23 26 21 19 18 20 18 21 18 13 13 14 13 14 13 13 12 12 13 16 24 29 39 56 80 88 91 89 86 89 86 90 92 91 92 86 90 89 86 89 92 89 81 95 94 82 69 58 48
22 20 24 14 17 18 20 20 10 12 13 14 14 14 14 14 12 11 12 13 15 25 35 48 69 84 89 90 90 87 87 90 94 93 94 93 92 88 78 92 93 91 89 94 95 83 70 61 50
19 20 16 16 21 20 22 17 14 16 17 17 16 14 14 14 13 12 13 13 16 22 34 48 64 83 88 88 90 88 83 86 94 96 96 94 91 89 90 89 93 92 92 93 91 87 65 59 51
16 16 18 20 14 21 19 18 14 14 13 14 12 13 14 14 14 13 13 13 14 23 36 47 58 79 84 86 82 75 84 86 92 96 94 92 92 90 92 93 97 94 92 94 87 76 63 52 50
17 20 18 18 18 20 18 14 11 13 13 15 14 12 12 13 13 14 15 16 20 30 41 46 59 80 82 84 86 78 87 84 94 94 91 90 93 92 93 94 97 94 93 93 84 72 64 56 54
25 21 18 15 18 24 21 22 19 16 16 15 14 13 13 13 12 14 15 17 31 33 44 48 54 78 75 62 59 63 81 81 86 93 93 88 90 88 94 95 94 94 93 93 78 72 65 59 61
31 29 26 24 23 25 28 24 14 18 16 15 14 15 14 15 15 14 15 17 31 39 47 48 52 70 66 58 56 67 83 90 93 96 97 94 89 91 96 94 94 94 93 93 76 71 63 65 65
32 22 28 29 36 33 30 20 14 14 15 17 20 23 22 20 17 16 15 16 28 39 46 50 53 58 61 60 59 68 62 82 90 94 94 95 94 93 96 94 94 93 88 85 72 64 64 64 65
30 37 37 39 39 35 28 32 15 16 19 22 27 32 31 27 20 19 16 16 21 39 51 58 55 55 57 60 57 64 64 63 63 79 95 94 97 95 96 95 94 92 87 79 69 68 66 60 58
34 46 43 37 35 44 28 27 13 18 28 34 34 34 35 33 30 21 18 18 28 44 67 66 58 56 57 59 59 61 64 68 70 92 97 97 98 98 96 94 94 92 87 80 72 72 68 65 63
39 41 52 56 57 36 30 32 21 26 41 42 40 36 36 37 36 33 31 33 39 58 75 74 60 56 60 63 63 66 68 66 70 93 96 97 98 98 98 96 96 94 86 78 76 70 69 68 66
42 38 39 41 38 29 33 41 27 39 39 35 34 34 34 36 39 37 35 42 44 67 78 81 68 58 63 65 68 68 64 67 71 91 95 94 94 95 93 94 92 90 83 78 76 73 69 73 74
51 63 39 57 44 52 25 26 36 35 36 34 35 36 39 41 44 40 36 42 46 64 79 83 68 57 61 67 74 69 69 71 82 89 95 96 96 94 93 92 88 86 82 81 79 79 80 78 76
46 38 69 60 70 58 29 29 28 50 39 35 37 42 44 48 52 50 36 44 49 59 77 83 68 57 64 66 72 67 69 72 75 83 94 97 96 93 93 95 91 89 86 83 86 90 87 86 84
60 58 62 60 62 70 46 37 48 42 35 35 40 44 50 64 67 62 54 49 52 60 76 84 69 66 67 71 68 69 71 72 78 82 90 96 96 95 93 92 88 84 85 85 83 80 78 85 80
42 46 52 63 81 60 72 44 37 34 24 24 34 47 54 70 75 76 71 64 65 74 82 84 77 71 69 73 71 73 77 70 74 75 83 94 94 93 92 93 90 90 90 89 83 76 70 85 85

GFSSGP_sfc_rhum_093.txt.gz
RH
45 25 12 9 12 10 7 5 3 6 7 7 8 6 8 8 10 18 18 23 24 30 44 66 90 91 92 92 92 92 92 91 91 92 92 92 92 92 92 91 89 86 83 80 80 79 78 80 88
19 14 10 9 12 9 7 4 5 5 6 9 9 9 9 10 9 15 19 28 27 29 42 51 92 93 94 94 94 93 92 90 91 92 91 91 92 91 91 90 90 86 84 81 79 79 81 88 91
28 12 9 9 9 10 6 4 4 4 8 8 9 8 8 10 10 10 19 28 26 26 34 51 91 94 94 94 95 94 93 92 92 92 89 91 90 90 90 90 89 86 84 82 79 80 87 92 92
16 12 10 11 10 6 6 5 4 5 8 7 7 9 9 11 16 12 20 26 26 25 29 83 91 93 94 94 95 95 94 94 93 92 90 90 89 89 90 87 88 85 84 82 81 86 92 93 93
11 9 11 9 9 7 5 5 6 6 8 8 8 9 10 10 14 19 21 24 27 29 34 62 90 91 93 94 93 90 92 95 94 93 92 89 89 84 83 87 87 86 83 81 84 93 93 93 93
13 11 12 12 9 6 5 4 6 8 8 9 8 8 9 14 17 20 22 28 29 34 40 58 84 90 93 94 92 88 92 95 95 93 92 90 88 83 87 88 85 86 85 84 90 93 93 93 92
16 13 13 11 10 7 6 6 6 6 6 8 6 8 9 12 22 28 26 30 34 42 50 60 66 74 94 95 95 91 91 95 95 94 91 92 89 88 88 85 81 81 88 89 94 94 93 92 92
14 14 15 12 11 9 5 6 5 6 7 5 5 8 10 16 21 32 34 34 42 50 56 62 65 66 67 73 97 95 92 93 95 95 95 90 88 87 88 87 86 83 87 88 94 94 94 94 92
13 18 17 14 11 10 7 8 6 6 6 5 7 8 12 14 17 26 42 46 49 55 58 65 66 62 60 58 73 93 94 93 94 92 95 93 66 69 72 79 89 86 88 83 89 95 93 93 92
18 20 17 10 9 9 8 8 7 8 8 8 8 9 8 8 12 20 27 44 49 55 61 63 70 65 60 49 63 66 65 66 69 65 66 70 64 66 57 76 92 92 93 97 96 96 94 85 68
16 22 15 11 10 10 10 9 8 8 9 9 10 10 9 8 11 16 17 23 34 42 47 66 66 66 65 55 54 54 60 59 60 65 59 59 58 72 76 75 77 88 91 93 96 98 90 70 70
17 15 16 13 11 12 13 11 11 11 11 9 8 8 8 10 11 13 15 15 20 31 40 66 74 63 72 57 59 50 48 63 64 66 70 65 67 81 75 68 73 78 94 93 96 97 88 78 66
16 15 14 14 13 14 13 13 13 12 10 9 9 10 11 10 10 10 10 11 14 22 33 52 75 64 67 72 69 67 66 53 59 70 71 69 68 79 66 77 64 84 92 94 95 96 94 92 71
11 11 11 12 13 13 16 16 15 14 11 11 11 12 12 12 13 11 10 11 13 16 25 49 63 68 62 69 80 75 76 80 68 63 73 72 74 72 74 69 73 78 89 95 94 95 94 94 78
16 19 18 16 15 16 15 19 19 13 12 12 12 12 12 11 11 12 11 11 12 14 18 43 62 77 72 74 81 78 67 73 75 70 71 74 72 77 70 83 82 82 90 89 95 96 95 94 77
18 17 17 10 10 11 15 24 13 9 10 12 11 11 11 11 11 10 11 10 9 12 18 28 44 77 79 76 73 77 69 74 77 82 81 82 80 79 76 94 90 94 95 94 95 95 94 89 78
19 19 17 11 9 13 14 17 10 10 12 13 12 12 11 11 10 10 10 9 8 11 16 28 44 74 84 77 75 83 80 81 81 75 78 84 85 78 87 82 92 94 97 96 90 96 93 89 69
15 15 12 13 9 11 18 17 12 10 12 12 10 10 10 10 10 10 11 10 9 10 16 25 39 68 83 81 80 83 80 81 89 91 85 87 86 84 81 90 93 91 96 96 93 96 93 82 60
15 14 14 10 7 14 16 14 10 9 8 9 9 9 9 9 8 9 11 12 12 13 17 27 39 64 80 85 88 85 88 88 89 89 87 88 88 89 88 89 94 93 96 95 91 94 93 87 53
20 19 22 14 9 10 11 15 12 10 10 11 11 10 9 9 8 8 9 12 16 16 20 30 35 48 75 79 71 62 71 70 76 83 90 88 90 91 92 89 94 94 94 96 94 93 93 89 66
22 24 21 16 14 13 17 18 15 11 10 10 10 10 10 12 12 11 10 12 16 19 25 29 34 42 70 69 60 60 69 79 88 87 86 88 86 90 92 91 95 94 94 95 94 91 88 84 74
30 18 19 22 22 25 20 21 14 11 10 12 13 18 22 23 19 18 13 13 15 19 27 31 34 44 70 60 52 61 74 80 76 78 81 92 90 90 91 96 94 95 94 93 93 88 86 75 70
29 20 20 22 29 31 24 23 16 11 10 14 20 24 24 25 24 22 16 14 12 17 26 36 36 41 58 54 49 58 62 54 58 72 81 87 94 92 96 95 96 95 95 94 92 90 81 72 67
19 26 31 33 35 40 27 22 15 13 20 27 28 27 27 27 27 24 19 16 13 15 32 42 42 42 50 52 53 56 58 53 51 69 81 90 96 97 98 96 95 94 93 94 93 88 80 73 68
28 40 53 49 42 37 16 18 17 19 29 31 30 28 29 30 31 29 25 17 16 20 38 48 46 44 49 54 56 55 56 56 59 64 78 90 97 98 98 97 96 96 93 91 90 88 79 72 69
33 35 40 40 38 27 18 28 16 22 27 25 27 28 29 32 37 33 28 28 26 31 54 58 46 45 48 55 54 53 52 57 56 71 82 89 96 94 95 94 94 94 92 92 91 86 77 75 75
36 44 27 42 42 45 33 21 29 25 34 30 27 29 32 36 43 41 36 30 34 47 69 74 49 45 51 55 57 57 59 61 67 74 85 93 94 96 97 97 96 95 93 91 89 81 82 78 79
31 26 53 48 53 43 21 16 42 44 36 26 25 33 36 43 52 61 44 31 36 58 73 79 60 53 53 56 57 60 65 63 68 81 92 94 96 96 96 97 97 96 96 93 89 83 80 77 78
37 53 43 40 36 46 40 40 41 32 25 24 25 32 40 51 64 73 64 44 40 55 70 79 66 57 59 55 62 68 65 66 72 75 90 94 96 95 93 95 96 96 96 95 92 84 82 79 81
29 37 42 56 56 40 54 54 32 29 20 23 28 34 41 51 66 75 79 70 63 68 72 80 70 64 66 58 66 69 65 70 71 77 92 92 94 94 92 94 95 93 92 90 85 85 84 86 89

GFSSGP_sfc_rhum_096.txt.gz
RH
46 29 21 16 15 14 12 8 5 5 5 5 7 8 7 9 17 28 22 26 48 49 70 79 93 92 91 91 93 92 92 92 92 93 93 93 93 93 93 92 90 88 86 82 81 80 80 86 90
22 17 18 14 15 14 10 6 6 4 5 9 8 9 8 10 13 19 26 28 40 47 60 70 93 93 93 93 92 93 92 92 92 93 93 93 93 92 91 92 91 88 85 83 80 79 82 89 92
29 15 17 14 13 13 11 7 5 4 7 8 8 7 8 9 10 17 26 30 35 43 48 67 92 94 95 94 94 94 94 93 94 94 92 91 90 89 91 91 91 87 85 83 79 81 89 93 93
19 21 16 14 13 9 8 7 6 4 6 6 6 7 8 15 16 14 24 27 31 37 42 90 94 94 94 94 94 95 95 95 94 94 92 92 88 88 89 90 90 87 85 83 83 89 93 93 93
14 15 18 15 12 9 7 6 6 6 6 8 7 8 9 10 16 22 28 27 34 40 72 77 94 94 94 94 95 95 96 94 93 94 93 92 89 88 85 87 89 87 85 84 87 94 94 93 92
18 15 18 16 13 9 7 6 6 5 6 7 8 8 12 16 16 25 32 37 42 65 69 78 90 94 95 95 94 95 96 95 95 94 94 91 91 87 86 89 89 88 87 87 87 94 94 93 92
20 18 20 17 15 12 9 7 7 5 6 7 8 10 11 10 24 32 32 40 49 60 72 80 81 86 95 96 94 91 92 92 96 95 94 93 93 90 90 89 86 81 87 89 95 94 94 92 91
19 19 21 17 15 14 9 8 5 6 6 7 5 8 11 25 27 41 46 46 58 69 76 78 79 81 84 91 96 93 92 93 96 95 95 95 94 92 92 90 85 81 85 87 92 95 96 94 91
16 24 24 20 17 15 10 9 7 5 6 5 7 7 11 19 22 38 50 54 61 67 72 79 78 78 79 79 87 96 92 94 96 95 95 98 89 88 85 86 88 88 89 85 87 96 96 96 95
18 27 24 15 13 12 10 8 8 8 8 7 8 9 8 13 16 27 44 56 58 68 73 79 80 77 77 61 85 85 83 86 88 86 89 92 85 81 71 84 93 89 92 92 94 96 96 96 96
17 24 20 15 13 11 11 11 8 9 9 10 11 12 11 12 14 21 25 39 48 56 65 76 80 82 79 70 82 75 75 79 82 83 82 85 78 84 88 93 90 92 91 96 97 98 96 93 92
16 14 15 15 13 13 14 12 12 12 14 12 10 10 11 13 13 15 25 19 24 49 60 70 77 80 81 75 72 71 69 76 77 79 82 84 82 89 88 82 88 91 95 97 97 99 97 89 87
15 13 11 12 12 13 14 14 15 14 11 9 9 10 12 12 12 11 12 17 19 29 53 71 74 76 77 81 74 77 74 73 76 79 81 83 83 88 87 83 80 86 92 94 97 96 93 94 91
12 12 10 10 12 12 15 15 13 15 13 12 12 11 12 12 13 12 15 15 18 22 35 81 78 76 75 78 82 83 83 78 77 80 80 83 87 90 87 86 77 82 90 95 95 96 94 95 93
14 15 13 12 11 11 12 17 16 13 13 14 14 12 12 12 12 14 16 18 18 19 28 78 82 78 76 78 80 81 82 83 84 79 85 83 85 88 84 86 86 90 89 95 96 96 96 97 95
20 19 23 16 14 14 15 24 15 14 15 14 14 13 13 13 12 13 16 16 14 16 22 59 68 78 77 77 79 77 79 82 82 84 82 84 84 84 86 89 92 92 96 95 96 96 98 96 94
24 28 24 18 11 10 10 14 10 10 12 12 10 13 13 13 12 13 14 14 14 13 22 39 69 78 80 82 82 84 81 80 79 82 84 85 85 84 86 89 93 94 96 96 96 98 98 96 95
26 21 18 18 12 11 14 13 11 11 12 13 14 14 13 13 12 13 14 13 13 14 19 36 70 81 83 80 83 86 82 79 78 84 84 82 89 87 89 91 94 94 97 97 97 97 98 94 93
16 17 17 14 9 12 14 15 11 13 13 11 11 12 12 12 11 10 16 22 24 27 29 36 59 83 83 82 88 92 91 86 89 89 86 85 88 87 87 92 94 95 95 96 95 96 96 98 95
17 19 19 15 12 14 13 12 9 9 9 10 10 10 10 11 10 10 12 21 29 27 30 38 48 82 82 80 80 81 86 88 89 93 92 91 90 90 90 90 92 97 96 97 96 95 97 96 95
18 20 19 20 15 13 14 14 14 12 12 11 11 11 11 12 12 15 17 22 27 32 37 36 41 75 77 78 79 78 81 83 92 95 96 92 92 92 91 90 92 93 93 97 96 95 92 96 95
22 15 18 22 23 25 14 24 16 13 13 12 12 13 15 22 24 24 23 25 27 32 39 36 39 43 74 75 79 80 80 86 83 87 88 93 88 90 91 92 93 95 94 95 95 94 92 92 93
22 16 20 23 24 25 24 26 19 15 14 13 21 25 32 30 30 30 29 26 22 27 45 45 41 40 73 75 73 75 76 78 80 84 88 89 90 90 92 92 95 95 95 93 94 96 94 94 91
24 20 24 26 28 42 28 28 24 19 14 19 28 27 30 32 34 31 30 29 24 27 41 48 45 48 72 73 74 70 78 74 74 80 90 92 94 95 94 96 96 96 95 95 94 95 93 92 90
28 37 66 72 57 57 26 24 24 19 29 29 28 30 35 38 44 45 34 29 27 29 43 51 46 47 68 72 69 70 73 73 71 80 87 92 97 97 96 98 98 97 94 94 94 94 93 91 92
45 39 63 65 58 45 25 30 28 19 25 25 31 32 37 43 48 53 62 46 34 37 51 54 50 48 59 65 66 70 76 71 72 78 87 92 94 94 95 98 96 94 95 94 94 95 93 91 93
49 53 45 62 46 70 73 22 32 32 34 28 29 35 44 47 54 62 63 62 38 60 67 66 56 50 56 65 76 73 72 70 76 83 85 91 91 91 96 97 97 96 94 95 95 96 92 90 91
48 37 52 53 93 84 78 55 75 60 38 25 26 40 47 51 60 69 67 71 66 66 72 73 70 61 66 74 75 74 76 73 82 84 88 88 94 95 98 99 97 98 96 94 95 94 93 91 94
32 56 47 52 51 76 58 62 66 62 35 29 35 40 53 58 66 72 74 72 78 68 73 76 73 76 76 71 74 79 76 79 81 84 91 93 96 96 97 97 99 97 97 96 95 95 92 91 92
21 41 56 65 56 42 70 93 76 46 28 37 39 41 52 56 65 72 78 75 77 87 71 77 76 82 79 75 74 81 82 80 82 84 91 95 96 94 95 96 98 99 98 95 95 95 92 92 94

GFSSGP_sfc_rhum_099.txt.gz
RH
71 56 49 34 34 33 34 20 12 10 8 10 12 12 14 16 30 53 55 60 70 81 86 87 92 93 93 92 92 92 93 93 94 93 93 94 93 93 92 92 92 89 86 82 82 81 83 85 90
45 31 36 38 32 35 26 17 13 9 9 14 11 11 11 16 25 39 58 57 69 80 88 89 94 93 94 94 93 93 92 93 94 94 93 94 93 93 92 92 92 90 87 83 81 81 83 88 91
41 28 37 40 35 28 25 14 11 9 10 14 13 12 14 20 28 34 50 56 64 73 78 87 95 95 94 94 95 94 94 94 95 94 93 94 92 92 92 93 92 90 87 83 80 83 88 92 92
31 37 38 36 29 21 16 10 8 8 8 10 11 13 13 22 26 33 46 53 60 62 74 95 95 96 95 94 94 95 95 96 96 95 94 92 91 91 92 93 92 88 85 84 84 89 93 93 92
28 35 44 38 27 18 12 10 9 9 10 11 10 12 15 30 31 35 40 45 56 72 86 89 96 96 95 94 94 96 96 96 96 95 94 93 91 90 91 92 91 88 87 86 88 93 93 92 91
32 32 44 38 27 17 13 10 9 9 8 9 11 12 20 27 34 39 42 52 74 84 86 90 94 95 96 95 95 97 97 95 90 95 95 94 92 90 88 91 90 90 90 90 89 94 93 92 91
43 39 37 34 25 20 15 13 13 10 8 9 11 13 12 38 39 42 44 67 79 84 90 95 96 95 96 96 96 97 97 95 83 92 96 96 94 91 90 90 89 89 90 91 94 94 94 93 91
35 40 40 32 26 23 16 13 12 11 9 10 9 13 18 44 41 44 51 67 82 88 91 94 97 98 99 99 95 94 96 88 90 93 96 96 95 92 92 93 92 88 90 92 95 96 93 92 94
33 40 44 38 30 24 17 17 12 11 8 11 12 15 31 35 40 46 58 73 81 88 89 90 95 96 98 98 94 94 90 79 89 94 95 99 97 95 93 93 91 88 90 92 90 92 95 96 95
32 41 40 28 24 23 17 17 16 15 12 11 15 15 28 31 40 52 58 69 82 88 95 90 93 95 95 85 97 98 94 88 88 92 94 99 97 97 87 94 93 92 90 92 94 96 95 94 97
30 30 25 22 23 21 22 19 16 17 18 14 17 16 15 21 28 49 58 61 71 77 88 90 90 92 93 87 98 99 99 99 94 91 96 98 95 96 98 98 98 96 95 96 94 95 96 95 95
25 22 21 19 17 19 20 17 18 19 20 19 15 15 17 18 22 24 37 57 57 74 82 85 85 87 92 97 94 92 95 96 97 97 96 98 98 97 98 98 98 98 98 97 95 97 97 95 92
17 16 16 16 15 16 16 17 18 18 17 15 14 15 18 19 17 17 20 25 37 60 74 84 82 82 85 94 92 88 90 90 92 93 92 94 96 95 97 97 98 98 98 96 97 97 98 95 91
18 16 14 13 15 14 16 18 20 18 15 13 13 15 17 18 19 16 17 17 24 25 70 80 84 80 77 82 87 86 88 86 88 90 89 93 94 93 94 93 95 96 96 97 95 98 98 98 97
20 26 21 17 17 17 15 16 17 17 16 15 14 14 14 14 14 18 16 19 18 22 39 77 83 82 81 77 87 91 96 87 90 89 91 92 93 93 93 91 90 89 97 96 97 97 97 97 96
27 30 35 24 19 17 20 23 14 17 16 16 16 16 15 14 14 13 17 17 20 20 29 74 73 82 82 80 90 89 97 97 97 95 92 91 93 92 94 95 96 97 96 96 96 96 97 96 96
38 42 37 29 21 20 20 21 16 16 15 16 16 16 15 14 14 14 15 18 15 17 21 69 81 84 85 85 90 90 95 97 97 97 96 93 92 92 93 94 95 95 97 96 96 98 95 96 96
48 45 38 34 24 21 21 18 13 16 14 15 17 17 17 18 14 13 14 14 19 16 17 54 83 83 85 89 93 94 91 93 94 97 96 95 94 92 94 97 97 96 97 97 96 96 96 96 96
25 28 26 20 17 20 19 18 14 14 13 12 16 16 14 18 14 13 16 20 17 18 17 61 84 85 85 90 96 96 94 92 92 90 93 84 93 92 91 94 96 95 96 93 95 96 98 99 97
23 24 23 19 17 18 19 19 18 15 14 12 13 12 11 12 12 12 12 14 26 24 28 66 79 88 82 87 85 90 92 93 90 98 94 84 91 92 94 94 95 95 96 97 97 96 98 97 97
28 25 21 22 20 22 25 24 20 14 12 10 10 8 9 10 12 13 12 13 20 29 29 70 83 88 85 88 89 96 96 95 99 98 98 97 91 89 90 94 95 96 94 96 97 96 94 97 98
20 21 20 19 22 38 28 38 22 16 13 12 11 11 12 15 15 26 32 38 32 29 32 64 86 88 87 86 88 92 92 92 90 89 91 96 96 95 92 94 95 96 95 96 97 95 94 93 95
26 18 28 22 24 39 32 37 26 20 19 17 17 14 13 20 44 54 51 37 34 32 39 53 86 86 86 87 88 87 92 86 86 94 97 95 96 96 96 94 96 96 95 94 94 96 96 94 92
19 23 39 49 41 53 37 37 33 25 20 19 37 48 50 53 57 58 59 63 63 49 41 47 77 83 87 86 89 88 86 92 88 94 96 97 96 95 94 93 93 94 94 94 94 94 93 94 91
36 33 80 84 76 70 33 38 35 23 19 44 60 58 60 63 64 67 69 70 71 72 49 56 57 86 87 87 87 87 87 87 90 93 96 98 97 98 98 96 97 97 94 93 93 94 94 93 94
41 42 89 81 81 61 35 45 31 20 24 78 57 60 67 73 69 73 72 75 77 75 62 55 80 88 89 88 87 90 85 80 79 87 95 96 92 90 88 95 94 94 94 94 93 94 95 93 95
68 74 53 92 67 90 69 52 47 61 63 72 64 69 75 72 72 76 76 76 80 86 88 87 77 83 87 90 90 91 85 85 87 88 92 97 97 97 97 96 95 97 96 95 95 96 96 95 93
58 52 86 94 94 90 80 83 96 93 91 84 72 74 74 72 74 75 75 78 80 87 89 92 90 89 83 87 83 83 84 85 89 87 94 95 96 95 98 98 97 97 96 96 97 97 95 96 93
83 82 78 76 69 96 95 99 97 97 83 80 70 69 72 73 74 73 75 79 80 84 87 88 90 92 92 81 81 84 87 91 91 91 93 94 96 97 98 98 98 98 97 96 97 97 95 96 94
60 73 71 93 75 63 86 98 81 87 80 66 61 62 65 68 71 70 74 76 80 82 79 80 84 90 92 87 85 88 91 88 91 94 96 97 97 97 97 98 99 98 98 97 97 98 96 94 96

GFSSGP_sfc_rhum_102.txt.gz
RH
74 59 50 35 32 37 46 26 20 16 14 10 11 15 15 21 32 39 65 62 77 87 91 92 94 92 92 93 93 93 93 93 92 92 92 93 93 93 94 93 92 88 85 82 82 83 84 86 91
47 37 39 42 38 37 30 24 19 15 12 11 13 13 15 37 40 65 63 71 74 84 91 92 95 93 92 92 93 93 93 93 93 92 93 93 93 92 93 93 93 90 87 83 81 82 84 89 92
43 32 41 48 46 36 28 18 14 14 10 9 12 12 14 23 51 55 61 72 81 85 87 91 96 95 93 92 93 94 94 95 94 94 93 93 93 92 93 94 94 90 87 83 80 81 88 93 93
33 40 44 50 43 30 24 15 15 11 10 9 10 11 20 34 41 51 62 73 81 85 86 97 96 96 94 93 93 94 95 96 96 95 94 93 93 92 92 94 93 90 87 85 84 87 92 93 92
33 45 56 59 45 30 21 15 14 14 12 13 11 11 23 38 46 57 64 64 77 87 95 95 97 96 94 94 94 95 96 96 96 95 95 94 93 93 93 94 93 90 88 87 91 93 93 92 91
33 40 56 52 34 26 21 16 14 13 12 11 13 12 30 41 54 60 61 60 73 88 94 96 96 97 96 95 95 96 96 97 96 96 96 94 94 94 93 94 92 91 91 90 92 93 93 92 90
39 46 51 50 37 29 21 19 18 16 16 13 12 14 34 42 48 53 59 73 83 89 94 97 97 96 97 97 98 98 98 97 97 96 97 96 95 94 93 93 92 91 92 92 95 94 93 91 91
42 50 67 48 38 35 22 18 18 19 16 14 12 16 30 44 47 59 74 82 91 91 94 98 98 98 95 98 98 99 98 94 92 96 97 97 96 94 92 93 93 92 93 94 96 93 90 90 94
38 58 55 52 42 35 25 24 19 17 17 17 12 14 21 44 51 68 90 96 97 93 93 97 98 99 98 96 98 98 97 94 91 88 96 98 97 96 94 94 93 92 94 94 91 92 92 96 96
36 54 54 40 35 32 26 27 23 20 20 18 18 19 39 44 50 64 80 90 95 97 98 97 97 98 99 93 98 98 95 92 84 77 78 97 98 98 92 95 93 93 95 91 89 90 95 90 95
39 38 35 31 27 26 28 28 24 23 23 24 24 24 18 28 49 61 69 80 85 87 92 97 96 97 98 96 93 99 99 86 78 80 86 98 98 98 98 99 99 98 94 98 97 98 97 94 94
40 30 28 26 23 24 23 19 22 23 23 19 20 18 19 19 29 46 67 72 75 92 89 92 91 94 96 98 94 87 92 95 87 78 90 99 99 99 99 99 99 98 97 97 98 99 98 96 91
22 19 18 19 21 21 20 22 22 20 18 18 17 17 20 23 21 22 24 57 68 81 85 91 91 90 92 97 98 98 94 91 95 96 95 98 99 98 98 99 98 98 98 97 97 97 99 97 96
24 22 21 18 17 16 18 18 22 17 18 17 15 16 18 20 22 21 21 24 49 69 78 88 91 87 87 93 96 95 96 97 98 97 97 97 96 96 97 98 98 95 98 97 96 95 98 98 97
22 27 26 24 26 22 21 20 19 17 16 16 17 17 15 18 18 22 20 20 20 38 72 86 88 88 86 86 94 92 92 94 96 95 96 95 94 95 96 98 98 94 97 96 97 98 96 98 98
26 32 44 30 28 25 21 29 18 17 19 19 18 14 14 15 19 18 19 21 20 20 57 81 81 87 89 84 90 88 91 91 92 95 95 94 93 93 96 97 98 97 97 96 95 95 96 96 97
41 32 34 30 29 28 28 30 20 18 19 17 16 16 16 15 15 17 17 16 16 18 34 78 83 91 88 86 88 89 93 93 95 97 95 95 94 93 94 96 97 96 97 96 96 97 94 97 97
44 50 47 42 26 29 30 29 22 19 17 15 15 14 16 17 17 15 15 14 16 15 22 67 81 87 88 90 91 96 98 98 96 97 96 96 95 94 96 97 96 96 96 97 97 96 96 95 95
26 25 26 21 19 23 22 20 19 18 17 17 15 18 20 20 17 18 19 20 19 22 21 49 82 88 92 94 94 96 96 97 98 97 96 96 96 95 96 97 96 95 97 96 96 96 98 98 95
31 31 30 24 21 21 21 20 18 19 16 16 17 17 18 18 14 13 14 17 24 21 24 48 76 89 87 90 88 86 87 96 95 96 93 92 93 93 93 94 96 96 98 98 97 96 98 98 98
32 37 36 33 26 22 23 24 21 19 18 16 14 13 13 12 11 12 13 15 19 26 29 47 63 85 86 85 88 98 96 99 100 98 95 92 95 94 93 94 95 96 96 98 97 96 96 98 98
34 26 27 27 26 40 33 40 23 23 21 18 15 14 12 12 11 29 55 70 70 47 36 41 55 83 83 86 89 93 90 92 90 92 94 95 92 94 96 95 96 96 95 96 97 95 94 94 98
22 32 31 27 33 66 40 48 29 26 24 21 18 43 43 54 74 80 79 78 78 79 74 86 71 83 82 89 86 92 92 90 95 96 97 98 97 96 95 94 96 96 96 95 94 96 96 93 92
33 38 35 37 72 78 55 57 39 31 27 22 68 75 78 78 78 76 77 76 80 80 83 82 94 89 89 88 87 89 93 94 97 96 96 98 98 98 97 96 96 94 95 95 95 94 95 94 93
46 51 71 89 88 72 41 47 37 41 32 27 73 84 82 85 86 84 83 84 82 86 89 69 95 90 90 89 90 90 92 92 94 95 96 97 98 98 98 98 98 97 96 94 93 95 95 94 94
46 74 74 82 83 66 41 55 58 79 74 77 79 89 79 81 82 82 80 81 83 82 86 95 94 92 92 93 94 92 93 92 90 93 96 96 94 95 93 95 94 94 92 93 93 95 96 94 95
69 76 56 74 62 72 73 52 62 69 80 80 84 82 85 76 78 76 75 79 83 84 84 89 90 90 95 94 95 96 95 93 92 93 93 94 95 95 94 94 95 96 96 95 95 96 94 96 94
71 50 85 90 87 83 74 75 99 96 93 91 92 90 81 75 74 72 77 76 79 82 85 87 86 92 94 96 94 94 94 96 96 95 96 97 98 97 96 95 96 95 95 94 95 94 95 95 95
82 92 78 76 88 80 90 99 100 100 97 96 91 80 77 75 76 74 74 77 79 80 82 83 82 89 94 97 97 96 96 94 96 95 96 96 97 97 98 98 98 98 98 97 98 97 94 96 95
63 84 77 91 66 77 94 99 99 99 98 88 77 72 71 70 74 77 74 78 81 81 78 82 83 86 89 93 96 96 93 92 94 95 96 96 97 97 96 98 98 97 98 98 98 98 97 96 96

GFSSGP_sfc_rhum_105.txt.gz
RH
71 56 50 35 34 38 38 28 25 19 15 12 14 17 16 18 32 34 65 71 82 88 91 93 96 95 94 93 92 92 90 89 90 93 93 93 93 93 93 93 92 88 84 80 80 82 83 84 89
46 41 40 42 35 39 26 29 21 16 14 14 11 13 15 25 42 70 67 76 78 87 90 93 96 96 94 93 92 92 91 90 91 92 93 93 94 94 94 94 92 89 87 82 82 82 85 89 92
46 34 42 49 52 31 18 21 19 14 13 12 11 13 14 31 51 58 67 77 83 88 90 93 95 95 94 94 94 93 92 92 92 92 93 93 93 94 94 94 94 90 87 81 78 82 89 93 93
37 41 46 54 55 39 24 19 17 15 13 13 13 13 13 30 52 53 74 80 87 93 92 96 96 95 94 94 94 94 94 94 94 93 93 93 92 93 94 95 94 90 87 82 81 85 92 94 93
37 50 55 70 56 39 26 20 22 21 17 16 14 14 15 35 52 72 78 77 85 94 96 96 96 95 94 94 94 95 96 95 94 94 94 94 93 93 95 95 94 92 88 88 89 93 93 92 92
37 45 63 57 43 31 28 24 21 19 17 16 16 16 16 54 65 71 75 78 81 94 97 96 96 96 95 94 94 96 96 96 96 95 95 95 95 94 95 95 93 93 92 92 94 93 92 91 91
39 48 59 62 43 35 27 23 23 20 21 20 16 18 24 62 68 71 72 83 91 96 97 97 96 96 97 98 97 98 97 97 96 96 96 96 97 96 95 94 93 92 93 95 94 93 93 91 91
48 52 71 46 37 35 25 26 22 26 23 18 15 17 38 46 61 74 82 90 95 97 97 97 93 95 97 97 98 98 98 98 97 97 97 97 96 96 95 96 93 91 94 95 94 93 92 92 91
44 64 74 50 44 39 28 32 27 22 20 21 19 20 24 50 76 90 96 98 98 95 98 98 95 92 90 96 98 99 98 98 98 98 98 98 97 96 95 96 95 94 94 96 93 92 93 94 92
43 71 54 43 41 43 35 38 30 28 28 26 22 20 19 33 54 85 90 90 96 98 98 98 97 93 91 90 97 96 91 97 96 97 98 98 98 98 95 96 95 95 94 93 93 94 96 95 97
44 49 44 41 35 35 36 32 28 29 30 26 25 24 18 21 38 54 78 88 86 89 92 97 98 97 95 97 95 97 96 99 98 94 93 98 99 99 98 99 99 98 96 97 94 97 98 97 98
41 32 35 36 29 29 27 25 24 25 26 23 21 22 20 18 21 25 55 69 92 94 90 94 96 98 98 97 94 93 95 97 92 86 84 96 98 99 98 99 99 98 98 98 98 99 98 97 96
30 24 20 19 19 21 21 23 24 22 19 21 21 22 24 21 20 21 27 54 75 88 92 95 95 94 97 97 92 90 88 86 79 78 85 95 95 95 98 99 99 98 99 97 98 97 98 98 97
31 29 28 27 24 21 20 20 23 21 19 19 22 22 22 25 24 22 23 24 37 64 85 93 94 90 95 97 94 90 85 83 87 84 83 94 95 96 98 99 98 96 98 98 96 94 95 98 98
22 26 20 21 28 28 23 26 25 21 16 17 18 20 19 18 22 24 20 21 24 41 67 93 94 91 94 93 96 96 91 87 86 86 91 93 95 98 98 98 94 90 97 97 97 97 98 97 98
21 25 33 30 25 26 31 35 25 22 21 20 19 16 16 19 18 21 21 21 19 29 51 76 86 92 94 92 96 94 95 96 94 92 90 94 94 97 98 98 94 95 97 98 98 97 97 95 96
34 31 34 27 26 30 35 36 28 22 22 21 20 19 18 17 18 19 20 21 20 20 26 58 86 93 92 92 95 94 95 96 95 97 97 95 96 96 96 98 96 95 96 96 96 96 93 94 97
34 45 47 40 32 20 22 24 18 16 16 16 18 19 17 16 14 14 17 19 21 20 23 28 73 88 90 92 96 97 98 96 96 96 97 97 96 96 96 98 98 96 96 98 96 95 96 94 95
41 44 42 35 27 27 28 26 22 19 18 17 18 18 17 17 14 17 19 23 24 24 25 33 60 87 92 92 97 97 97 97 98 96 95 97 95 96 96 96 97 97 95 95 96 97 97 98 97
41 44 43 34 28 30 31 31 25 21 19 17 17 17 18 18 18 16 16 18 18 21 31 38 59 81 92 86 87 89 92 96 94 96 96 94 96 96 95 95 97 97 96 96 97 96 98 97 97
38 42 41 41 29 27 28 31 26 21 20 17 15 18 20 40 29 15 14 18 31 31 30 40 56 71 86 84 87 98 98 99 99 99 98 96 95 95 95 95 96 97 96 98 97 96 95 98 98
21 22 28 29 40 47 42 50 34 30 26 23 19 66 89 86 85 75 87 89 92 92 92 58 48 72 82 85 88 93 90 92 88 94 95 96 95 95 94 95 95 96 96 97 97 95 95 94 98
19 22 36 44 50 46 40 53 41 32 31 26 49 84 86 79 79 81 85 89 89 90 96 96 59 66 76 87 85 90 89 84 93 95 96 96 98 96 95 95 96 97 96 96 96 97 96 95 93
35 43 38 44 54 66 41 53 46 40 32 34 87 86 82 78 78 76 76 77 80 83 88 93 92 75 81 89 87 90 90 92 97 96 96 96 97 97 96 95 95 96 96 96 96 96 96 96 95
50 62 84 87 75 63 36 45 42 80 81 85 90 90 87 78 83 84 86 85 83 80 81 82 88 96 90 92 89 90 90 94 94 94 93 96 96 96 98 97 98 97 96 95 95 96 96 96 96
49 62 79 71 75 62 51 67 92 85 79 78 78 80 82 86 81 86 85 86 84 82 81 83 84 90 91 92 88 91 94 96 94 94 92 94 93 93 92 97 96 95 96 95 96 96 96 96 96
71 71 50 70 62 82 63 45 74 89 93 85 92 88 88 88 90 88 84 84 86 86 84 85 84 87 92 91 91 94 96 97 96 97 95 95 95 97 97 95 98 97 97 97 97 97 97 97 96
60 52 92 91 96 92 58 71 97 98 96 96 98 98 94 86 94 87 83 82 81 85 86 86 85 86 89 95 96 96 97 96 97 97 98 97 97 97 98 98 96 96 97 96 96 95 92 96 96
81 88 83 80 78 90 83 98 100 99 100 99 95 86 97 87 91 77 74 78 80 82 84 86 85 88 91 92 95 99 99 99 98 97 98 98 98 97 96 96 95 96 97 98 97 95 94 96 95
46 65 99 95 88 76 85 99 100 100 99 96 78 71 74 90 74 72 74 77 83 83 81 84 87 90 90 90 92 98 98 98 98 99 98 98 98 98 98 99 99 99 99 98 98 98 94 95 96

GFSSGP_sfc_rhum_108.txt.gz
RH
70 58 51 32 29 36 38 23 29 20 18 16 16 15 13 16 23 36 69 76 86 91 92 94 95 95 94 92 91 91 91 90 91 93 94 93 92 92 92 93 91 88 84 81 80 80 79 84 89
46 43 41 42 29 26 17 30 23 20 15 15 13 13 16 18 36 61 78 79 86 88 92 95 92 96 94 93 92 91 90 90 90 92 92 92 93 93 93 93 92 88 86 82 80 81 82 88 92
45 36 36 47 45 21 16 15 18 17 14 15 13 14 15 18 39 60 70 84 88 86 90 95 96 96 95 94 93 92 90 91 92 92 92 93 93 93 94 93 93 90 87 83 82 83 88 93 94
40 43 45 48 52 36 16 17 18 18 16 16 15 16 15 20 46 60 81 85 89 92 92 97 97 96 94 94 94 93 92 92 93 93 92 92 92 93 94 94 93 90 86 78 77 87 93 94 95
41 51 50 72 60 43 30 24 22 26 21 19 20 18 18 16 58 78 86 82 89 96 96 97 97 96 95 94 94 95 93 93 93 94 94 93 93 94 95 95 93 90 87 83 80 93 94 94 94
38 49 59 56 51 35 30 29 24 24 21 20 22 21 18 41 68 80 86 88 88 95 98 96 96 96 96 95 96 96 95 94 94 95 95 94 94 95 95 94 93 91 92 91 93 94 93 93 93
35 48 54 59 47 36 30 26 27 24 28 26 21 21 20 37 71 79 85 94 96 98 94 96 96 96 97 97 97 97 96 96 95 96 96 96 96 96 94 94 93 93 95 95 95 94 93 92 92
44 45 69 48 38 35 26 26 27 31 28 22 20 23 25 31 72 86 92 96 98 99 91 88 88 98 98 97 98 98 97 97 96 96 97 98 97 96 95 95 94 94 95 94 94 93 93 92 92
52 60 74 46 39 35 31 37 33 29 26 25 23 22 21 38 80 88 93 96 99 99 93 90 87 92 98 97 98 98 98 98 97 97 97 99 97 97 96 96 94 94 97 94 93 93 93 94 92
51 82 60 42 37 42 40 45 34 32 32 30 29 28 23 42 72 83 92 93 95 97 99 90 87 86 86 86 92 96 96 96 96 96 98 98 99 99 97 96 95 94 96 95 94 94 95 94 98
55 56 48 44 40 41 41 36 32 33 33 33 31 29 25 27 45 68 71 86 92 92 96 96 90 87 87 88 90 90 91 96 99 97 96 92 98 99 99 99 98 98 96 98 96 97 98 98 98
52 39 40 40 33 33 30 30 29 29 28 25 23 25 26 23 25 28 51 68 82 92 94 95 98 88 88 90 88 87 91 88 99 99 98 97 95 99 99 99 99 98 98 98 98 99 99 98 97
36 33 28 24 24 23 22 25 25 24 20 20 24 24 28 28 25 23 23 38 75 86 91 95 98 94 90 96 90 86 87 92 97 97 96 95 96 97 97 99 98 99 99 98 98 98 98 99 98
32 26 26 26 25 28 26 26 26 24 22 20 20 23 24 28 27 26 26 22 30 66 83 93 96 97 97 92 96 94 87 90 95 91 91 88 90 93 94 98 97 99 98 98 97 97 98 98 98
23 25 23 24 34 32 31 35 31 26 23 22 21 21 21 22 22 25 23 23 24 27 50 94 94 94 97 96 97 98 94 90 84 81 91 85 84 93 94 95 97 94 98 98 98 98 98 99 98
28 31 32 32 22 21 34 29 24 26 18 17 21 22 21 21 21 19 22 22 21 26 31 57 88 95 94 95 96 97 97 94 88 81 82 85 82 94 95 95 97 96 98 98 98 97 98 98 99
42 35 40 31 32 26 28 31 30 19 18 19 18 18 20 19 18 20 21 21 20 22 26 35 85 95 95 92 93 96 96 94 90 82 83 88 89 95 96 95 96 96 98 97 97 98 94 96 98
36 37 54 54 34 30 34 32 24 25 23 22 20 19 18 17 17 15 16 21 23 22 27 31 57 91 94 92 94 96 96 95 90 90 86 88 90 94 95 97 96 96 98 98 98 97 96 94 95
38 49 54 46 38 40 38 33 27 25 26 24 23 21 20 19 15 16 18 20 25 29 28 29 32 54 93 94 96 94 92 95 95 92 92 93 92 93 94 96 96 95 96 96 96 96 97 98 97
41 48 51 40 35 34 36 30 23 22 25 26 22 21 20 21 78 75 58 26 24 23 28 32 32 30 83 80 83 86 88 93 92 93 94 95 92 92 92 95 97 96 96 96 97 95 98 96 97
44 47 46 38 30 30 32 31 22 21 21 21 23 22 56 92 94 89 81 91 94 95 94 67 40 37 70 78 84 94 95 98 98 98 96 96 93 91 91 95 95 97 95 98 98 96 96 98 98
25 24 27 25 30 30 40 44 26 26 28 24 21 23 96 93 85 82 80 80 85 89 92 93 93 54 73 86 88 84 86 88 86 87 88 92 94 94 92 94 95 96 96 97 97 96 95 94 97
25 22 24 28 54 59 36 45 26 24 27 42 81 89 87 79 79 79 77 77 74 73 81 87 90 91 63 87 83 88 90 81 85 91 89 90 93 95 94 94 96 97 97 96 96 98 96 95 93
30 44 46 47 60 64 34 36 35 44 99 93 87 80 82 77 75 76 74 74 77 74 75 81 82 92 64 87 87 91 88 86 95 92 95 94 96 96 96 95 95 96 96 96 96 96 96 95 93
47 55 82 82 94 59 33 44 53 98 96 96 96 88 84 82 84 84 84 85 84 83 80 78 78 88 92 92 92 92 87 90 90 91 90 93 96 98 98 96 96 95 95 95 95 96 96 96 96
58 56 69 72 73 64 41 61 95 86 77 87 93 95 88 80 81 84 92 86 87 86 87 85 84 86 88 96 87 92 94 96 95 92 89 90 92 93 93 96 92 93 95 95 96 96 96 96 97
68 70 47 58 51 68 69 62 77 69 74 82 94 93 95 92 87 86 86 90 88 89 88 92 88 86 89 92 96 97 96 96 96 96 93 91 94 96 97 95 94 96 96 97 98 97 98 97 96
58 58 84 86 98 96 74 84 96 93 88 87 94 95 94 93 94 92 89 94 91 89 89 90 88 88 89 92 96 98 98 97 97 97 97 96 96 97 97 96 97 98 98 98 98 98 97 98 98
76 83 75 75 88 95 94 96 100 97 96 95 95 92 98 95 96 97 96 92 99 86 89 87 89 89 92 91 93 98 99 97 98 98 98 98 98 98 98 98 98 98 98 99 99 98 97 98 95
50 66 79 95 94 80 89 98 96 95 97 90 79 75 75 95 94 97 97 87 88 85 83 86 89 91 91 91 94 99 99 98 98 98 98 98 99 98 98 98 98 98 98 99 98 98 97 97 96

GFSSGP_sfc_rhum_111.txt.gz
RH
47 36 30 21 14 18 14 11 16 12 13 11 11 11 10 9 11 21 48 57 65 69 72 80 94 93 92 92 92 92 94 94 93 92 91 90 90 90 91 91 90 88 85 82 80 79 80 85 90
30 30 26 24 13 10 8 14 14 11 10 12 11 10 12 12 15 22 44 64 65 66 70 73 95 93 92 92 92 91 92 94 94 93 92 91 90 91 91 92 91 88 86 84 78 78 83 88 92
30 27 21 23 18 10 8 9 11 12 11 12 11 10 12 13 16 30 49 64 68 66 65 73 94 94 93 92 92 92 91 93 94 93 91 91 91 92 92 92 91 88 86 83 79 81 88 93 94
28 27 28 22 20 18 10 11 13 14 14 13 11 15 12 18 35 47 57 66 67 65 66 88 96 95 94 93 93 92 92 93 94 93 92 91 92 92 92 92 91 89 87 86 84 89 92 95 96
27 28 24 30 29 24 24 19 17 19 18 15 14 15 16 16 39 53 68 68 70 70 72 84 93 96 94 94 93 93 93 94 94 94 93 92 92 93 93 93 92 90 87 82 89 94 94 95 96
21 28 24 23 26 23 20 21 19 17 16 16 16 16 18 18 37 60 69 72 73 75 77 83 91 94 96 95 96 94 93 94 95 95 95 94 94 94 94 94 93 91 89 84 89 94 94 95 95
20 24 26 30 29 23 22 19 20 17 18 19 16 20 18 17 52 66 73 76 80 83 81 86 86 88 98 97 97 96 94 94 95 96 96 96 97 96 95 94 92 92 91 92 95 94 94 94 94
24 22 34 30 25 20 19 21 20 21 22 19 16 20 23 20 58 70 76 79 88 88 83 82 86 86 86 86 98 96 95 95 96 96 97 98 98 96 95 95 93 94 93 94 94 94 94 93 94
34 30 34 25 26 21 25 31 26 23 23 22 19 21 20 18 44 59 70 77 82 90 87 81 82 86 86 83 85 95 96 96 96 94 97 95 79 81 84 88 94 95 95 94 94 94 94 93 94
37 46 35 28 24 26 30 31 28 27 26 25 24 22 20 16 20 26 55 64 76 84 90 84 84 86 86 78 85 84 83 78 77 77 79 80 82 82 77 87 96 96 96 94 94 93 94 89 68
36 24 37 36 30 31 29 27 23 23 24 23 24 21 20 19 21 25 34 58 58 66 74 87 87 87 87 83 82 80 80 85 86 85 84 83 84 82 86 79 79 76 93 77 83 84 76 73 70
34 33 31 29 26 24 25 22 20 21 21 17 16 19 21 21 21 20 30 33 61 68 65 77 83 88 90 84 82 78 76 80 90 88 91 88 87 88 88 77 83 78 82 81 83 84 82 78 74
30 26 22 19 18 19 19 20 20 20 16 16 18 19 21 22 20 19 20 21 38 61 67 74 79 82 84 90 84 80 80 80 88 87 88 86 86 86 85 83 77 75 76 78 84 83 82 79 77
26 19 17 17 16 17 20 20 23 21 18 16 16 15 17 18 18 19 20 20 24 29 50 72 75 78 78 85 90 84 84 82 87 82 82 86 84 85 84 84 82 79 78 81 79 80 81 78 78
17 20 19 15 20 22 25 19 26 20 16 15 15 15 15 15 16 18 18 23 22 23 24 55 79 78 80 82 87 84 82 83 87 79 82 84 82 84 85 87 84 82 87 85 83 82 81 79 80
27 24 22 21 23 19 20 15 23 19 16 16 17 17 16 15 15 16 20 19 18 20 24 29 51 77 83 84 84 82 87 82 81 76 76 81 81 76 87 91 92 90 91 87 84 80 82 80 79
32 21 25 21 23 24 23 23 19 17 18 20 18 17 17 17 15 15 19 16 16 16 24 29 37 64 80 81 81 84 85 84 79 74 74 77 78 84 86 89 93 95 93 93 88 85 80 81 82
21 24 29 28 26 24 27 26 21 20 19 19 18 19 19 18 16 15 18 17 17 20 26 30 32 43 71 77 84 86 88 82 76 76 74 76 80 82 85 90 94 94 96 95 95 92 86 81 80
34 33 34 34 26 34 32 23 17 16 16 18 18 17 17 18 16 18 47 57 48 36 34 28 31 42 53 69 83 86 89 84 81 80 79 79 81 85 88 88 94 94 94 95 95 94 94 94 91
30 32 31 30 28 24 17 17 14 14 18 15 15 17 18 20 28 55 62 66 70 72 72 70 60 37 36 52 65 67 74 81 81 86 86 83 85 84 89 88 92 93 94 96 95 95 97 94 94
31 32 29 23 20 16 18 17 14 12 13 17 32 60 69 72 72 68 65 66 67 68 70 69 68 69 63 38 54 69 76 83 94 94 92 90 86 83 90 88 90 92 91 94 94 94 94 96 97
23 21 20 22 22 21 21 25 18 15 22 62 72 72 72 72 68 65 66 66 66 67 67 67 68 68 65 64 46 69 68 72 75 79 82 90 90 86 86 88 88 92 91 93 93 92 92 92 96
25 21 26 28 30 37 28 34 18 15 43 74 72 69 71 70 71 72 70 69 67 68 71 72 70 69 67 71 60 68 71 66 64 75 83 88 91 87 84 89 90 92 92 93 94 95 94 91 90
33 37 37 40 42 40 25 26 23 67 93 88 74 70 72 71 72 70 68 67 72 69 75 76 76 72 71 75 69 72 74 69 69 76 87 88 92 93 93 89 91 91 92 93 93 93 94 95 91
35 38 52 55 60 40 34 34 34 90 85 81 84 76 72 67 75 79 76 77 80 81 84 82 80 81 78 81 68 73 75 75 76 76 77 83 90 96 94 93 94 92 91 92 92 93 95 94 95
39 39 46 54 48 39 28 31 56 69 63 65 66 68 67 71 74 82 79 81 88 88 89 88 87 86 84 87 88 71 77 78 76 75 74 78 83 89 90 93 94 93 94 92 92 90 95 94 95
49 56 36 48 40 50 35 51 69 60 65 65 77 68 75 80 83 89 81 81 82 87 91 91 89 88 88 91 92 84 80 86 84 80 79 82 81 89 95 91 93 93 94 93 91 94 96 96 95
40 39 70 62 87 76 49 47 75 90 86 78 83 85 82 84 90 93 92 94 85 87 91 89 88 90 89 90 92 93 88 90 89 88 83 81 83 87 92 92 91 94 95 94 95 95 95 97 97
59 60 54 54 54 77 74 86 96 95 92 90 84 82 90 92 95 96 96 96 98 96 92 87 85 87 91 90 91 95 97 94 91 93 86 82 89 91 91 87 88 93 98 97 98 97 97 98 97
47 50 78 87 72 81 85 87 86 93 92 90 70 77 72 92 94 96 97 97 96 95 96 90 87 88 89 90 91 94 95 97 97 98 97 95 94 92 90 92 96 98 98 97 98 98 98 98 94

GFSSGP_sfc_rhum_114.txt.gz
RH
39 16 14 13 11 8 7 5 5 6 7 7 7 6 6 7 9 15 9 35 40 40 52 71 93 92 91 91 93 94 93 92 90 90 91 91 90 91 92 91 90 88 85 81 79 81 80 83 89
14 16 14 10 11 9 7 5 6 5 6 7 7 8 8 10 11 13 18 33 42 41 48 54 94 92 91 91 92 94 93 93 90 90 91 91 90 91 92 92 91 89 86 83 77 78 84 88 91
16 16 13 12 11 11 9 6 6 6 7 8 8 8 9 12 17 20 22 37 47 42 44 52 94 93 92 91 92 94 95 95 93 92 91 90 90 91 91 92 91 89 87 83 78 82 88 92 93
13 12 11 14 13 11 10 8 8 7 8 10 9 10 10 18 20 23 29 43 46 43 41 80 95 94 92 91 91 93 95 96 95 93 91 90 90 90 92 92 91 89 87 84 84 88 92 93 94
13 12 14 15 14 11 10 10 11 11 11 11 10 10 12 14 18 25 32 47 47 45 46 67 96 94 92 90 91 92 94 95 95 94 93 92 92 92 93 93 92 91 88 88 91 93 93 95 95
13 14 16 15 13 12 11 11 12 11 10 10 12 12 13 12 16 29 35 48 52 51 54 62 90 95 94 93 93 93 93 94 95 95 94 94 94 94 94 93 93 92 91 93 94 93 94 95 95
16 15 15 14 14 15 12 13 14 12 11 11 14 15 13 13 15 30 40 50 58 59 62 69 77 80 98 96 94 94 93 94 94 95 95 96 96 95 94 94 93 92 89 88 94 94 95 95 95
12 14 15 16 15 16 11 13 12 12 13 16 14 15 17 17 14 20 26 53 64 67 67 68 77 74 66 71 96 94 94 94 95 95 96 97 97 96 95 95 94 92 90 92 94 95 95 95 95
16 14 15 15 15 14 12 17 13 16 16 14 16 17 16 15 11 13 17 34 58 74 73 75 76 78 69 60 72 92 95 95 96 92 97 92 63 69 75 77 93 94 94 94 94 94 95 95 95
15 14 13 12 12 12 12 14 13 17 16 15 15 14 13 11 12 15 15 18 35 62 73 74 76 79 80 54 63 65 62 61 63 62 68 62 60 60 56 72 96 97 96 95 94 94 95 90 56
14 16 11 17 14 14 14 15 12 13 14 14 15 14 12 14 14 16 15 15 20 40 57 69 74 75 80 62 70 59 58 55 59 63 61 60 60 64 60 62 70 74 89 68 74 75 59 56 48
18 14 13 13 15 16 15 11 12 12 14 12 11 13 15 15 16 14 17 14 16 31 47 59 66 71 75 72 71 70 60 72 72 66 65 59 72 63 62 54 55 61 64 61 62 59 59 58 55
19 12 13 15 15 13 13 14 14 13 10 10 13 13 14 13 12 11 12 13 15 22 33 50 59 64 65 74 69 73 67 56 67 73 76 64 67 73 66 54 53 53 58 62 60 59 64 67 62
16 18 16 13 13 11 12 12 11 13 14 13 11 11 11 11 12 12 13 12 15 15 19 28 49 60 59 63 70 69 66 55 68 72 74 78 65 66 72 59 54 52 58 59 64 60 61 63 61
14 16 11 11 9 12 15 15 15 11 13 12 10 9 10 9 9 10 11 13 13 13 15 23 35 49 62 63 63 63 59 58 60 74 81 86 80 66 74 75 59 53 58 65 68 67 63 64 66
18 17 14 13 15 13 14 12 8 13 12 11 10 9 9 9 9 9 10 11 10 11 14 18 23 35 55 62 59 55 54 57 54 65 62 75 85 78 74 77 76 65 70 71 64 68 69 64 68
18 10 11 11 13 14 13 12 10 10 11 13 12 10 9 10 9 10 10 10 10 12 16 19 24 28 50 58 59 61 60 56 50 53 55 61 72 76 69 70 80 82 84 80 67 65 72 70 69
11 13 12 14 11 14 15 14 10 12 11 13 12 10 10 9 9 11 13 17 25 28 33 32 26 28 32 47 55 50 56 57 53 50 50 57 63 68 70 56 74 85 90 85 81 78 68 67 70
18 18 16 12 13 18 17 14 10 8 7 9 8 10 10 19 29 33 39 39 41 42 45 44 49 48 31 26 44 46 58 58 55 52 53 55 60 68 65 62 70 90 91 88 85 89 86 84 75
19 19 17 15 17 16 12 10 8 7 9 11 10 21 38 41 42 44 44 45 48 49 49 51 49 48 48 33 25 40 44 52 53 51 56 58 62 64 65 66 75 88 90 93 89 90 94 92 86
20 21 20 18 12 10 11 10 7 10 10 21 39 40 40 45 48 47 48 49 50 52 53 52 51 50 50 52 43 27 42 46 53 63 68 64 62 65 71 72 81 90 87 93 91 88 90 94 94
21 14 15 16 16 14 11 17 13 9 15 35 39 43 44 43 42 43 47 50 52 53 54 55 55 54 52 52 51 50 31 43 50 58 65 64 68 69 69 77 82 87 88 90 92 84 84 87 94
18 18 19 20 21 22 17 18 15 9 14 43 52 52 47 45 44 45 46 48 47 50 54 59 59 58 58 58 57 55 46 40 41 52 60 66 78 81 79 82 82 87 84 90 90 90 88 86 82
18 23 20 22 25 30 17 14 14 22 66 70 63 61 50 46 46 46 45 47 48 48 55 60 63 62 64 68 66 65 63 48 43 46 56 61 79 89 86 86 85 86 87 89 91 89 87 86 86
24 27 31 33 40 30 19 24 16 58 61 62 64 58 51 51 53 55 54 52 56 59 63 66 67 72 71 76 75 74 69 60 54 47 52 61 83 89 91 89 89 88 86 87 90 91 88 88 90
29 30 30 26 22 18 23 28 25 51 47 47 51 53 54 56 57 60 64 63 63 67 70 73 77 81 78 80 81 79 71 55 50 49 46 54 77 80 83 88 88 87 84 88 88 92 92 91 92
29 38 23 36 31 39 25 18 44 50 54 51 56 58 65 64 64 66 65 66 66 76 75 81 87 83 84 85 87 88 77 68 56 56 58 61 73 78 85 89 90 90 88 89 92 94 95 94 93
29 27 55 46 70 56 30 28 64 92 78 70 78 75 73 73 76 78 77 82 74 82 83 82 90 85 86 88 89 88 87 85 61 74 78 73 72 71 76 86 86 91 91 92 94 96 92 92 93
38 45 42 43 46 59 59 84 96 97 94 88 72 67 86 81 89 98 98 92 95 91 91 90 90 89 89 88 91 93 93 78 67 81 82 74 76 74 81 82 89 90 93 92 92 93 92 93 88
29 36 43 65 62 50 64 79 77 89 87 76 59 56 58 75 81 96 99 98 99 97 97 97 95 94 88 87 90 94 93 95 88 84 82 84 80 84 85 89 93 92 92 90 92 96 94 91 95

GFSSGP_sfc_rhum_117.txt.gz
RH
41 16 9 9 12 8 8 5 4 4 4 5 6 5 6 6 7 13 10 21 28 30 49 67 92 92 92 93 93 92 90 90 90 92 92 92 92 93 93 92 91 89 86 80 80 80 79 82 90
14 10 10 11 12 10 7 5 5 5 4 6 4 5 6 9 9 12 16 22 30 32 44 52 93 92 92 94 94 92 91 90 91 91 92 92 92 93 93 93 91 89 86 80 80 79 82 88 91
17 10 13 11 12 11 8 6 5 5 6 5 6 6 7 12 15 18 18 31 34 34 38 50 92 92 92 93 94 94 93 92 92 92 92 91 91 92 92 93 92 90 87 81 77 82 88 91 92
12 11 12 14 12 9 8 7 7 6 6 7 6 8 8 15 17 18 20 31 37 34 35 82 94 93 91 92 94 95 95 94 93 92 91 91 91 91 92 92 91 90 88 84 83 88 91 92 93
12 11 14 13 12 9 8 7 8 10 9 9 8 9 9 12 12 20 24 34 40 37 39 63 95 94 91 91 93 95 96 95 94 93 92 91 91 92 93 92 92 91 89 87 90 92 92 93 94
12 11 15 13 11 8 8 8 9 10 9 8 9 9 10 11 13 19 26 35 46 41 42 61 90 94 92 92 93 95 96 96 95 94 93 93 93 94 93 92 92 92 91 92 94 92 93 94 94
14 13 15 13 12 10 10 10 11 10 9 9 10 14 11 11 14 13 17 33 47 50 49 66 70 77 97 95 94 95 95 96 96 95 95 95 95 94 93 93 93 93 93 94 93 93 94 94 94
10 12 14 13 12 13 9 9 10 10 11 12 11 13 14 14 14 12 14 22 46 55 56 62 68 65 65 66 95 94 95 95 96 95 96 97 96 94 94 94 94 92 91 92 93 94 94 94 94
11 13 14 12 12 11 9 11 10 10 14 11 12 14 13 12 10 11 15 18 35 60 67 73 71 68 59 56 68 91 94 94 96 92 97 93 66 71 76 78 92 94 92 92 94 94 95 95 95
13 13 12 9 10 11 10 9 10 11 12 13 12 11 11 10 11 13 14 16 18 34 65 80 83 77 62 46 62 62 59 59 62 62 71 66 59 61 52 67 94 95 95 95 95 95 95 94 61
11 14 10 9 9 11 11 11 10 12 13 11 12 12 11 11 14 14 13 13 14 21 44 69 83 83 78 59 50 52 51 54 57 60 59 61 54 56 54 56 64 70 90 76 80 80 68 63 50
11 10 10 9 8 11 13 11 11 10 11 9 9 10 12 13 13 12 13 12 13 17 34 54 67 76 78 64 50 49 44 50 51 54 65 60 55 62 57 52 58 66 60 65 65 62 62 58 54
8 9 7 6 9 11 10 10 10 9 7 7 7 11 12 11 11 10 10 11 12 15 22 41 57 67 73 76 63 67 60 49 50 51 58 54 51 60 57 50 52 59 51 61 62 65 60 61 54
9 9 10 8 9 8 10 9 8 7 7 9 9 9 9 9 9 9 11 11 13 14 15 20 29 56 66 70 70 70 65 52 58 54 58 63 54 61 52 52 44 46 45 57 57 61 71 67 61
10 11 8 7 6 7 9 11 10 7 8 11 9 8 8 8 7 8 8 10 11 11 13 17 24 31 51 65 61 67 58 56 49 53 68 80 66 62 64 64 48 43 43 65 61 64 69 77 69
11 12 13 8 9 8 11 13 6 8 9 9 8 8 8 7 6 7 8 9 8 9 12 15 15 23 33 45 50 55 55 57 50 50 57 71 79 63 63 74 63 48 47 54 72 69 66 78 75
12 14 14 9 8 9 10 11 7 7 9 9 9 9 8 8 7 8 9 10 10 14 21 24 29 29 30 36 44 52 59 56 51 49 54 62 70 71 61 62 74 65 51 58 64 76 73 70 65
15 12 10 11 8 8 10 10 8 7 7 10 9 8 8 8 9 22 26 30 29 31 34 35 34 39 39 32 38 40 47 51 58 52 49 59 60 69 69 57 70 74 66 68 65 72 74 71 67
14 15 14 10 8 9 12 12 9 7 6 7 6 6 7 14 24 27 31 33 36 38 40 38 42 44 41 38 27 31 47 49 52 58 54 54 55 63 68 60 65 74 78 80 78 70 75 78 74
17 15 13 10 9 11 13 12 7 7 7 6 7 8 22 28 27 29 32 35 40 41 43 45 44 43 43 38 36 30 30 36 44 49 55 56 56 60 62 64 57 73 76 88 85 83 82 73 74
16 15 15 14 12 10 10 11 9 7 7 8 21 26 26 30 33 33 33 35 38 41 45 45 46 46 47 48 43 39 39 35 43 53 54 55 57 60 65 64 61 62 74 78 86 88 86 90 85
17 11 13 14 15 17 12 19 14 11 9 15 25 33 36 36 34 34 36 37 39 40 43 45 47 49 48 50 50 52 44 37 33 47 54 53 60 60 62 66 66 67 74 78 82 82 86 86 92
18 14 16 17 18 20 16 17 14 11 11 22 36 39 39 36 37 38 39 40 38 39 43 48 51 52 51 53 58 58 56 47 42 40 54 59 61 64 63 67 70 73 76 78 81 86 89 84 81
14 17 19 20 21 30 20 18 16 24 45 40 40 41 40 39 39 40 40 43 43 43 47 52 54 53 54 57 61 67 69 61 53 50 47 60 61 63 69 69 75 78 80 80 79 85 87 87 84
20 25 36 37 32 31 17 17 16 37 41 46 46 44 43 44 44 45 47 49 52 53 54 55 56 59 58 61 63 67 70 70 65 59 55 59 63 66 72 76 84 80 80 80 81 89 88 87 88
17 23 34 39 33 24 12 20 26 36 35 39 44 46 49 51 50 53 57 57 60 62 62 64 64 66 63 67 68 70 73 74 65 59 54 59 54 61 70 76 82 83 79 81 85 86 88 89 89
21 25 20 33 30 36 22 15 30 40 46 47 52 51 58 58 62 62 61 64 66 69 71 72 74 73 73 78 81 81 79 80 76 66 60 54 57 56 70 76 85 86 86 85 87 89 90 90 90
26 17 39 38 60 48 25 21 68 91 73 64 68 62 62 64 68 70 72 75 74 82 79 75 79 76 78 82 84 83 84 83 80 73 65 60 58 58 70 77 87 90 90 89 89 90 88 91 90
23 35 31 30 45 57 58 86 92 93 89 84 65 57 73 73 76 94 96 84 93 87 85 82 86 81 84 87 87 89 89 89 87 79 71 64 64 62 64 76 87 89 90 91 91 90 90 92 92
22 27 32 58 48 53 47 70 69 82 79 66 64 63 52 66 69 85 98 98 100 99 99 96 95 91 96 93 88 91 91 91 91 87 68 67 67 64 65 70 76 80 92 93 94 93 93 94 87

GFSSGP_sfc_rhum_120.txt.gz
RH
48 19 12 12 16 13 11 8 5 4 5 5 5 5 6 6 7 21 19 27 35 40 59 75 92 92 92 93 93 92 91 91 92 92 93 92 93 93 93 92 91 90 87 85 83 82 80 84 90
20 14 11 14 18 15 10 6 5 6 6 6 4 5 6 8 12 15 22 29 35 38 60 63 93 92 93 94 94 92 91 91 92 92 92 92 93 93 93 92 91 89 87 82 81 80 84 91 90
31 15 15 17 17 17 11 7 6 6 6 6 6 5 7 15 17 19 22 30 35 37 52 62 93 93 93 94 94 93 92 92 92 93 92 92 93 93 93 92 90 90 87 82 81 83 90 91 91
15 12 14 19 18 12 10 8 7 6 6 7 6 8 8 14 17 19 22 30 40 37 42 91 94 93 93 95 95 94 94 94 93 93 92 92 92 93 93 92 91 91 88 84 83 88 90 91 92
14 14 18 17 15 11 9 7 7 9 9 9 8 9 10 14 14 21 27 34 47 50 70 75 93 93 93 95 95 95 94 94 94 94 94 93 92 93 93 93 92 92 90 88 90 92 91 92 92
16 14 19 18 14 10 8 8 9 9 9 9 9 9 11 13 15 18 23 38 51 56 66 78 91 93 92 94 96 96 96 94 94 94 94 94 94 95 93 92 92 92 91 92 93 92 92 92 93
16 16 18 15 14 12 10 9 10 11 11 11 11 13 14 16 17 19 21 30 54 61 69 81 80 85 95 95 96 97 97 96 95 95 95 95 95 95 93 92 92 93 93 94 93 92 93 93 93
12 14 17 15 14 13 9 9 9 10 11 12 11 14 17 17 17 19 25 34 61 62 67 79 79 78 80 85 95 96 96 97 96 96 96 97 96 94 94 94 94 93 94 94 93 93 93 94 94
11 19 18 14 13 11 9 10 9 9 11 12 12 12 14 13 13 17 26 31 48 67 73 81 80 76 75 70 81 95 94 96 97 95 97 98 86 90 91 89 92 93 94 94 94 93 94 95 95
13 18 16 11 9 10 10 11 10 10 11 12 13 13 12 11 14 20 19 26 29 47 74 84 85 83 76 56 77 80 79 86 88 85 92 86 82 82 73 80 95 95 95 94 94 94 95 97 87
11 15 12 11 10 8 10 11 10 11 13 14 15 15 13 14 18 22 18 17 21 25 64 79 87 89 84 70 76 71 70 74 78 80 83 84 76 79 75 78 85 94 98 92 95 96 91 86 76
11 10 10 9 7 9 10 10 11 11 13 10 9 10 14 16 16 16 21 15 19 25 31 76 83 88 90 84 86 71 66 72 73 74 79 78 77 79 71 73 82 86 86 88 89 88 87 82 76
9 8 7 7 8 7 8 9 10 9 8 7 6 8 17 13 12 13 13 15 19 25 32 59 79 88 87 86 87 87 70 70 70 74 74 74 73 75 74 68 75 76 80 80 88 81 80 78 76
8 8 8 8 8 7 8 8 8 8 6 6 9 10 10 11 12 12 14 15 21 22 28 32 40 75 80 87 85 89 85 84 73 71 72 76 74 76 73 72 71 73 69 74 80 82 78 76 76
10 12 10 9 7 7 7 9 10 8 7 8 10 10 10 10 10 13 15 18 18 18 21 36 37 39 62 80 84 87 87 82 85 71 77 74 75 75 75 72 72 71 67 72 81 81 82 81 76
12 13 16 11 9 7 8 13 10 7 8 9 10 10 10 9 9 10 16 22 26 30 37 42 40 51 57 58 80 83 85 87 73 80 69 76 83 80 79 75 82 76 74 68 80 78 88 84 86
18 20 16 12 8 8 9 13 9 7 7 9 10 9 9 10 10 27 29 34 34 37 43 46 50 51 60 59 53 57 77 82 78 67 70 81 79 77 83 73 76 83 81 75 75 80 85 87 87
19 17 15 15 9 9 9 10 8 8 8 10 8 9 10 10 22 29 31 33 34 38 45 47 48 54 58 55 57 48 47 69 71 69 62 72 78 78 78 78 80 78 82 84 74 83 89 83 86
15 16 16 14 12 12 13 11 9 9 10 10 8 8 10 11 26 27 34 35 37 41 45 46 51 56 53 52 54 52 50 47 65 65 67 68 70 80 81 77 80 80 77 80 80 82 88 88 87
15 17 19 16 11 12 12 12 10 10 10 9 8 12 25 27 29 31 33 36 42 43 46 47 47 51 52 51 51 55 57 55 55 60 66 66 70 72 79 78 75 80 78 79 89 84 86 86 88
17 19 20 16 13 11 13 15 13 10 10 9 16 24 30 34 35 35 36 41 44 46 47 44 47 49 53 57 52 51 52 51 52 52 54 67 66 69 76 78 75 74 80 81 83 87 85 89 90
20 14 14 15 18 21 13 22 16 13 12 12 31 38 37 36 36 36 38 41 44 46 49 50 50 51 50 56 58 64 64 66 61 60 53 60 66 65 68 76 76 73 79 82 85 82 79 86 89
16 14 17 17 20 22 20 21 19 16 17 43 40 39 38 38 40 41 42 43 43 47 50 54 55 52 54 56 61 62 67 66 62 62 62 61 63 69 67 73 76 80 81 82 86 86 84 80 79
14 17 18 19 22 34 23 22 21 31 41 44 40 39 42 43 43 44 44 46 48 50 54 57 58 56 57 60 62 65 67 67 72 72 71 67 71 69 68 68 76 78 83 82 88 88 88 84 80
17 24 40 41 40 40 21 22 50 43 42 44 47 47 47 48 50 52 53 55 56 57 59 59 60 62 61 63 65 65 67 70 71 74 75 74 71 75 69 72 76 78 81 79 85 90 88 86 84
22 22 38 45 47 38 22 27 45 37 40 46 46 48 50 53 56 59 61 60 63 63 62 66 70 71 66 68 68 68 70 72 70 70 74 74 73 69 71 72 69 74 80 82 85 86 88 87 86
25 30 19 34 30 42 29 21 44 51 54 52 52 53 59 60 63 66 64 68 70 70 72 73 78 76 76 77 78 77 76 76 77 76 76 77 74 68 69 74 72 75 83 84 86 88 91 90 87
23 20 43 37 54 53 31 34 86 87 74 66 66 65 62 65 70 74 78 80 78 78 81 85 83 87 87 84 85 82 82 80 79 80 82 82 78 76 71 81 75 76 87 90 93 89 90 91 90
25 34 32 32 36 55 63 76 94 93 87 79 66 60 72 74 80 89 94 87 91 89 93 93 90 94 92 88 87 87 86 86 85 87 87 85 83 80 76 75 87 83 90 87 88 92 91 93 91
18 23 28 62 55 39 49 80 72 81 75 63 62 60 60 72 80 95 99 98 99 99 99 99 97 96 98 96 86 88 88 87 89 91 93 91 86 81 80 74 79 81 85 89 90 91 93 93 93

GFSSGP_sfc_rhum_123.txt.gz
RH
63 38 36 25 28 31 30 18 14 10 10 9 6 7 8 14 21 50 34 40 46 70 78 85 94 94 94 94 93 92 92 92 92 93 92 92 92 92 92 92 92 91 88 84 84 83 79 85 89
56 33 27 26 34 42 30 15 11 9 10 8 7 7 8 24 21 31 41 40 47 66 79 86 93 94 94 94 94 93 92 92 92 93 92 92 92 92 92 91 91 91 90 86 84 81 84 92 89
46 33 28 34 38 38 30 15 11 10 8 9 8 8 12 27 28 32 42 49 50 65 68 82 93 94 94 95 95 94 94 94 94 93 92 92 93 92 92 92 91 91 88 85 82 84 91 92 91
29 27 25 34 35 26 21 15 12 10 10 8 10 12 20 24 27 33 42 49 62 64 63 92 94 93 94 95 95 95 95 95 95 94 93 93 93 93 92 92 92 91 88 86 87 91 91 91 91
33 31 35 42 29 21 16 14 14 15 14 14 11 14 23 23 24 33 47 53 68 82 84 86 94 94 94 95 95 95 95 95 95 95 94 94 94 94 92 92 93 92 90 88 90 91 91 91 91
31 29 38 38 27 19 17 15 14 15 15 16 16 16 28 25 20 22 42 60 69 81 86 88 92 94 94 96 96 96 95 95 94 95 94 94 95 95 93 93 93 93 91 93 93 93 91 92 92
28 32 34 29 24 20 15 16 16 15 15 18 17 19 26 21 20 20 24 65 65 85 86 94 95 92 94 96 98 97 96 95 95 95 95 95 96 96 94 93 93 94 94 95 93 92 92 92 93
23 27 29 28 23 21 14 13 13 14 16 18 15 20 24 25 20 21 23 40 71 75 94 94 96 97 98 98 98 98 97 97 96 96 96 97 97 96 94 94 94 94 95 96 93 92 93 93 93
23 33 37 27 22 18 13 15 14 12 14 14 16 20 17 18 19 20 24 26 78 75 92 95 94 93 95 96 93 97 97 97 97 96 97 99 97 96 94 95 95 96 96 96 94 93 94 94 94
23 35 30 21 18 17 12 15 15 15 15 16 18 19 16 15 21 23 22 25 27 74 90 94 93 92 89 72 94 98 95 98 97 98 95 98 97 97 90 93 95 96 97 96 95 94 95 97 99
18 25 19 15 15 15 15 13 14 16 18 20 19 17 15 19 19 21 20 21 22 36 90 93 93 92 88 81 94 93 97 99 99 98 99 97 91 94 91 92 93 98 97 98 98 98 99 98 97
17 13 14 13 13 11 12 11 13 14 16 13 11 12 18 18 18 19 19 18 20 21 47 93 92 93 93 96 94 85 84 90 95 95 96 96 93 96 90 91 95 98 98 98 99 99 99 97 93
14 14 10 11 11 12 11 12 13 13 11 10 9 10 14 19 18 14 17 14 15 22 30 91 92 94 94 91 97 97 88 90 82 86 89 90 93 92 89 90 90 94 97 96 98 98 96 95 92
14 14 14 12 11 11 11 11 15 12 11 10 9 11 14 17 16 14 13 14 26 42 47 48 56 73 93 94 95 98 97 95 88 80 79 85 82 89 88 84 87 89 90 91 95 95 95 91 91
14 16 14 14 12 13 11 12 11 10 10 10 10 14 14 13 13 34 43 43 44 45 47 50 50 55 62 75 82 94 94 90 98 93 83 78 81 77 85 82 90 84 81 87 89 93 91 93 88
17 19 24 15 13 13 12 18 13 11 13 16 15 14 15 16 40 42 40 40 42 44 46 48 48 54 56 54 71 83 86 95 91 86 94 80 78 79 86 80 81 84 80 83 87 88 93 89 91
23 32 26 21 15 12 14 18 12 12 12 13 13 15 12 14 41 40 40 42 43 44 45 47 50 53 55 54 56 57 73 87 90 91 88 83 87 79 91 82 81 88 85 85 82 88 87 90 93
27 26 23 22 17 18 18 17 14 12 11 14 16 16 15 39 42 38 42 42 44 46 45 45 46 52 53 55 56 56 58 68 77 84 89 82 74 77 79 95 94 88 96 92 81 84 92 89 88
20 23 24 20 18 18 18 16 15 13 15 16 15 20 37 41 38 39 42 44 45 46 47 47 49 52 54 57 61 62 65 61 68 75 68 84 78 77 88 84 96 92 84 89 89 86 93 97 94
26 26 24 20 18 18 18 18 15 15 14 15 21 44 46 44 42 40 43 46 48 49 52 52 52 53 54 54 56 59 60 60 60 59 68 69 73 82 82 88 80 90 85 87 92 85 90 91 93
23 23 23 23 20 19 20 20 18 15 14 38 40 42 43 47 48 46 46 50 50 54 55 55 55 56 56 54 55 57 59 62 67 67 66 66 66 75 82 77 79 82 89 83 81 88 85 92 95
25 20 20 22 26 34 22 35 22 17 27 46 45 49 52 51 49 48 51 54 55 57 56 56 57 58 53 57 60 64 67 72 68 70 68 68 72 71 73 76 79 77 84 88 82 86 87 88 90
25 23 24 25 29 32 24 37 25 20 54 52 50 52 54 53 55 55 56 57 55 56 59 60 60 59 58 59 62 66 69 66 65 67 70 71 70 73 71 79 76 86 89 88 88 80 95 88 82
20 24 28 31 35 46 27 31 45 65 58 57 55 54 55 58 61 62 60 59 63 62 63 64 64 64 62 64 64 68 70 68 68 68 74 74 76 76 73 74 83 78 86 87 86 89 87 91 92
26 32 65 68 66 53 27 31 70 58 59 59 63 60 57 63 67 68 65 67 68 69 69 69 66 66 67 68 68 69 68 68 69 70 73 75 78 82 76 77 78 87 74 80 85 91 92 96 98
31 34 59 64 65 50 28 42 70 56 54 56 57 61 62 68 67 74 74 77 78 76 76 75 77 77 72 75 76 73 71 73 73 72 72 74 75 78 78 80 80 80 83 79 80 88 92 94 95
38 43 31 46 40 50 41 59 69 59 65 63 63 66 78 80 80 86 83 82 83 82 82 84 85 82 80 83 85 83 79 78 79 76 74 75 74 71 78 80 80 80 81 81 78 83 85 90 90
29 27 60 70 72 64 50 48 88 89 86 81 74 78 81 84 90 89 89 88 87 89 85 91 86 85 84 87 92 89 85 81 81 81 81 79 78 79 80 84 83 82 80 81 83 81 76 81 94
37 48 45 51 53 74 82 82 91 94 85 82 71 67 84 90 95 94 93 91 91 92 93 97 96 91 90 95 96 92 88 85 83 84 85 88 88 88 83 82 86 83 86 90 93 93 85 86 93
29 35 45 77 58 56 63 83 82 89 84 69 64 64 68 84 95 95 96 94 94 96 97 99 96 94 98 96 96 96 88 86 87 88 89 89 91 92 90 87 91 88 91 92 90 89 79 79 92

GFSSGP_sfc_rhum_126.txt.gz
RH
65 45 38 26 26 33 39 22 17 13 13 10 7 10 24 26 34 51 38 46 68 78 87 90 94 94 94 92 92 93 93 92 92 91 91 92 92 91 92 93 93 92 89 84 83 82 81 83 88
58 34 28 31 35 43 34 23 13 11 10 9 9 10 21 34 33 39 45 50 64 76 87 91 95 94 95 94 93 93 93 92 93 92 91 91 92 92 92 92 92 92 90 84 82 81 86 89 91
38 37 29 35 46 43 35 19 14 10 11 12 12 11 24 37 37 42 51 66 72 78 79 85 95 95 95 95 94 94 94 94 94 92 91 91 92 92 92 92 93 92 90 86 82 84 90 91 92
33 29 28 36 41 33 27 21 17 11 12 11 11 20 26 29 39 43 59 69 76 76 76 94 95 95 95 96 95 95 95 95 94 93 92 92 92 92 92 92 93 91 90 88 87 91 92 92 92
35 34 38 47 36 27 21 18 16 20 19 18 13 28 28 25 39 55 63 72 82 87 89 90 96 96 95 95 96 96 96 95 95 94 94 94 93 92 92 93 93 92 90 89 91 92 91 92 92
36 34 42 46 34 24 19 17 16 18 19 18 18 30 34 26 20 44 63 80 82 86 90 91 94 96 95 95 96 97 96 96 95 95 94 94 94 93 93 94 94 93 92 92 94 92 91 91 92
32 34 42 39 29 24 19 16 17 17 23 18 17 30 33 23 22 29 64 70 87 90 92 96 96 94 97 97 98 98 97 96 96 95 95 95 96 95 94 94 95 95 94 94 93 92 92 92 92
27 31 42 35 28 26 16 15 15 14 19 17 17 25 32 29 23 25 35 71 87 94 94 96 97 97 97 98 99 98 98 96 96 96 96 97 97 96 95 95 95 95 95 96 94 93 93 93 94
25 33 41 34 29 22 16 15 14 16 16 16 19 19 25 26 23 20 25 44 76 90 96 96 97 97 97 97 96 99 97 98 97 97 97 99 97 96 95 95 96 95 96 96 94 94 94 94 94
24 36 31 25 25 19 16 18 17 16 17 18 16 18 18 23 25 23 24 25 30 43 93 98 97 97 97 82 96 98 97 96 94 97 98 95 97 98 92 95 96 96 97 97 95 94 95 96 99
22 24 21 19 18 19 16 14 16 17 20 21 17 16 15 20 19 23 23 25 24 26 88 97 96 96 96 90 98 99 100 96 92 92 91 91 96 99 98 99 97 98 98 99 98 98 98 99 99
19 15 17 16 14 13 14 12 12 14 16 16 13 14 16 17 19 20 21 20 49 55 71 86 88 94 96 98 98 97 97 99 97 92 92 92 98 98 98 97 98 98 98 98 98 97 96 98 97
16 16 14 13 13 13 13 14 14 14 11 11 11 11 14 16 18 17 46 53 54 57 57 67 72 77 80 84 92 98 98 98 94 98 97 95 95 97 94 94 96 95 95 96 94 93 97 98 98
19 17 15 14 14 16 14 14 16 12 12 10 11 12 12 18 41 51 51 55 53 52 56 58 59 66 72 78 83 90 90 95 98 96 90 97 94 92 95 91 96 97 96 97 95 94 98 98 98
17 17 16 14 15 15 15 17 14 10 13 12 13 12 17 48 47 52 52 52 52 52 53 55 56 57 59 69 79 87 90 88 92 96 94 90 90 92 90 90 92 94 94 97 98 98 98 98 96
20 24 26 16 17 14 15 24 14 13 13 16 16 15 36 46 47 47 48 49 49 49 50 51 52 58 60 61 69 75 86 90 90 92 93 90 92 88 96 92 88 88 91 93 97 96 98 98 97
26 30 27 23 19 17 17 19 14 13 13 13 18 18 46 48 49 48 47 49 49 50 52 53 54 58 59 60 62 66 75 87 86 88 89 82 88 94 95 92 91 95 93 93 93 97 94 98 96
30 30 34 29 19 22 24 24 17 15 14 18 17 40 49 50 51 46 48 47 50 52 52 54 55 58 58 59 60 61 64 63 67 74 84 76 82 83 92 92 98 97 95 95 94 93 94 91 91
24 26 28 26 19 23 24 28 20 15 23 41 51 52 51 50 46 48 48 50 53 55 55 56 58 59 59 60 64 62 66 64 64 67 68 77 82 85 86 92 88 93 93 92 94 94 95 96 93
30 32 32 24 20 21 25 21 21 26 52 52 54 56 56 55 53 50 53 56 58 59 59 58 57 58 58 58 60 62 64 63 64 64 69 75 77 78 82 85 91 86 94 93 97 95 95 95 97
28 31 28 29 24 23 25 24 25 36 46 49 53 54 56 59 61 60 59 61 61 63 63 60 60 59 60 60 58 60 60 61 66 68 68 68 70 74 76 79 82 89 88 91 90 94 93 88 97
29 23 26 26 29 36 25 40 28 44 57 57 58 63 66 65 63 63 64 65 65 65 63 63 62 62 57 62 65 68 72 74 68 69 68 66 70 74 75 77 80 87 92 91 89 90 90 85 86
28 27 27 31 34 36 34 38 31 50 66 68 64 62 68 68 67 67 67 64 64 67 69 69 68 65 62 63 66 72 73 71 69 70 69 68 68 71 73 78 82 84 88 89 86 88 92 86 83
22 28 33 36 38 49 32 35 39 78 70 69 65 64 67 67 70 70 68 68 72 73 74 74 72 72 69 70 70 73 76 75 75 74 75 73 71 73 75 76 81 84 85 83 90 84 86 87 84
27 37 62 63 67 58 34 40 78 71 67 69 72 73 72 72 79 82 83 82 80 80 73 66 70 75 71 69 70 74 76 77 79 77 76 75 75 77 76 81 85 84 82 85 88 90 87 89 90
32 39 59 65 70 59 35 47 85 64 61 63 67 74 76 83 85 87 85 85 81 76 72 79 79 77 70 70 71 74 79 81 80 78 76 76 76 72 76 79 81 81 81 81 84 91 91 84 89
40 44 35 49 52 62 50 88 66 66 74 74 71 76 86 90 90 90 87 77 79 77 79 91 85 82 76 75 81 85 87 83 84 80 78 79 77 74 77 78 83 83 85 85 86 91 93 96 98
32 29 53 71 66 63 53 57 92 94 85 74 81 90 94 90 90 91 86 85 86 81 85 94 92 88 90 90 89 92 95 88 85 83 83 84 84 84 84 83 82 82 84 87 85 89 90 96 97
40 47 48 53 59 68 80 82 90 92 92 90 79 81 94 95 97 96 93 90 89 90 90 98 96 96 93 89 95 96 96 94 87 84 86 87 87 87 90 86 87 86 85 89 89 87 92 92 94
38 44 51 70 56 60 58 71 84 90 89 79 73 68 70 85 94 96 96 95 93 94 95 94 91 93 92 90 92 96 97 96 92 90 90 88 87 86 86 87 89 89 91 95 98 98 93 93 94